[[{"header":{"parameterUnit":"m.s-1","parameterCategory":1,"la1":30.6,"la2":29.2853,"lo1":-89.7004,"lo2":-87.6739,"dy":0.0162,"dx":0.0183,"nx":112,"ny":82,"refTime":"2023-08-08T06:00:00:Z","depth":0,"parameterNumber":2,"parameterNumberName":"U-component_of_WINDS"},"data":[0.0,0.0,0.0,0.0,0.0,0.0,0.0,0.0,0.0,0.0,0.0,0.0,0.0,0.0,0.0,0.0,0.0,0.0,0.0,0.0,0.0,0.0,0.0,0.0,0.0,0.0,0.0,0.0,0.0,0.0,0.0,0.0,0.0,0.0,0.0,0.0,0.0,0.0,0.0,0.0,0.0,0.0,0.0,0.0,0.0,0.0,0.0,0.0,0.0,0.0,0.0,0.0,0.0,0.0,0.0,0.0,0.0,0.0,0.0,0.0,0.0,0.0,0.0,0.0,0.0,0.0,0.0,0.0,0.0,0.0,0.0,0.0,0.0,0.0,0.0,0.0,0.0,0.0,0.0,0.0,0.0,0.0,0.0,0.0,0.0,0.0,0.0,0.0,0.0,0.0,0.0,-4.0091,-4.0294,-4.0457,-4.0496,-4.0496,-4.0441,-4.0353,0.0,0.0,0.0,0.0,0.0,0.0,0.0,0.0,0.0,0.0,0.0,0.0,0.0,0.0,0.0,0.0,0.0,0.0,0.0,0.0,0.0,0.0,0.0,0.0,0.0,0.0,0.0,0.0,0.0,0.0,0.0,0.0,0.0,0.0,0.0,0.0,0.0,0.0,0.0,0.0,0.0,0.0,0.0,0.0,0.0,0.0,0.0,0.0,0.0,0.0,0.0,0.0,0.0,0.0,0.0,0.0,0.0,0.0,0.0,0.0,0.0,0.0,0.0,0.0,0.0,0.0,0.0,0.0,0.0,0.0,0.0,0.0,0.0,0.0,0.0,0.0,0.0,0.0,0.0,0.0,0.0,0.0,0.0,0.0,0.0,0.0,0.0,0.0,0.0,0.0,0.0,0.0,0.0,0.0,0.0,0.0,0.0,0.0,0.0,0.0,0.0,0.0,0.0,0.0,-3.9462,-4.0032,-4.0139,-4.0241,-4.0481,-4.0496,-4.0372,-4.0072,0.0,0.0,0.0,0.0,0.0,0.0,0.0,0.0,0.0,0.0,0.0,0.0,0.0,0.0,0.0,0.0,0.0,0.0,0.0,0.0,0.0,0.0,0.0,0.0,0.0,0.0,0.0,0.0,0.0,0.0,0.0,0.0,0.0,0.0,0.0,0.0,0.0,0.0,0.0,0.0,0.0,0.0,0.0,0.0,0.0,0.0,0.0,0.0,0.0,0.0,0.0,0.0,0.0,0.0,0.0,0.0,0.0,0.0,0.0,0.0,0.0,0.0,0.0,0.0,0.0,0.0,0.0,0.0,0.0,0.0,0.0,0.0,0.0,0.0,0.0,0.0,0.0,0.0,0.0,0.0,0.0,0.0,0.0,0.0,0.0,0.0,0.0,0.0,0.0,0.0,0.0,0.0,0.0,0.0,0.0,0.0,0.0,0.0,0.0,0.0,0.0,0.0,0.0,-4.0939,-4.1082,-4.1473,-4.1637,-4.1573,-4.1231,-4.12,-4.0863,-4.0051,-3.9861,0.0,0.0,0.0,0.0,0.0,0.0,0.0,0.0,0.0,0.0,0.0,0.0,0.0,0.0,0.0,0.0,0.0,0.0,0.0,0.0,0.0,0.0,0.0,0.0,0.0,0.0,0.0,0.0,0.0,0.0,0.0,0.0,0.0,0.0,0.0,0.0,0.0,0.0,0.0,0.0,0.0,0.0,0.0,0.0,0.0,0.0,0.0,0.0,0.0,0.0,0.0,0.0,0.0,0.0,0.0,0.0,0.0,0.0,0.0,0.0,0.0,0.0,0.0,0.0,0.0,0.0,0.0,0.0,0.0,0.0,0.0,0.0,0.0,0.0,0.0,0.0,0.0,0.0,0.0,0.0,0.0,0.0,0.0,0.0,0.0,0.0,0.0,0.0,0.0,0.0,0.0,0.0,0.0,0.0,0.0,0.0,0.0,0.0,0.0,0.0,0.0,0.0,-4.221,-4.2403,-4.2648,-4.2824,-4.2684,-4.2154,-4.1923,-4.1485,-4.073,-4.0049,0.0,0.0,0.0,0.0,0.0,0.0,0.0,0.0,0.0,0.0,0.0,0.0,0.0,0.0,0.0,0.0,0.0,0.0,0.0,0.0,0.0,0.0,0.0,0.0,0.0,0.0,0.0,0.0,0.0,0.0,0.0,0.0,0.0,0.0,0.0,0.0,0.0,0.0,0.0,0.0,0.0,0.0,0.0,0.0,0.0,0.0,0.0,0.0,0.0,0.0,0.0,0.0,0.0,0.0,0.0,0.0,0.0,0.0,0.0,0.0,0.0,0.0,0.0,0.0,0.0,0.0,0.0,0.0,0.0,0.0,0.0,0.0,0.0,0.0,0.0,0.0,0.0,0.0,0.0,0.0,0.0,0.0,0.0,0.0,0.0,0.0,0.0,0.0,0.0,0.0,0.0,0.0,0.0,0.0,0.0,0.0,0.0,0.0,0.0,0.0,0.0,0.0,-4.1707,-4.197,-4.2559,-4.2463,-4.2538,-4.2983,-4.2277,-4.2063,-4.2649,-4.0988,0.0,0.0,0.0,0.0,0.0,0.0,0.0,0.0,0.0,0.0,0.0,0.0,0.0,0.0,0.0,0.0,0.0,0.0,0.0,0.0,0.0,0.0,0.0,0.0,0.0,0.0,0.0,0.0,0.0,0.0,0.0,0.0,0.0,0.0,0.0,0.0,0.0,0.0,0.0,0.0,0.0,0.0,0.0,0.0,0.0,0.0,0.0,0.0,0.0,0.0,0.0,0.0,0.0,0.0,0.0,0.0,0.0,0.0,0.0,0.0,0.0,0.0,0.0,0.0,0.0,0.0,0.0,0.0,0.0,0.0,0.0,0.0,0.0,0.0,0.0,0.0,0.0,0.0,0.0,0.0,0.0,0.0,0.0,0.0,0.0,0.0,0.0,0.0,0.0,0.0,0.0,0.0,0.0,0.0,0.0,0.0,0.0,0.0,0.0,0.0,0.0,0.0,-4.3565,-4.3912,0.0,-4.4296,-4.4221,-4.3885,-4.3547,-4.3153,-4.2669,0.0,0.0,0.0,0.0,0.0,0.0,0.0,0.0,0.0,0.0,0.0,0.0,0.0,0.0,0.0,0.0,0.0,0.0,0.0,0.0,0.0,0.0,0.0,0.0,0.0,0.0,0.0,0.0,0.0,0.0,0.0,0.0,0.0,0.0,0.0,0.0,0.0,0.0,0.0,0.0,0.0,0.0,0.0,0.0,0.0,0.0,0.0,0.0,0.0,0.0,0.0,0.0,0.0,0.0,0.0,0.0,0.0,0.0,0.0,0.0,0.0,0.0,0.0,0.0,0.0,0.0,0.0,0.0,0.0,0.0,0.0,0.0,0.0,0.0,0.0,0.0,0.0,0.0,0.0,0.0,0.0,0.0,0.0,0.0,0.0,0.0,0.0,0.0,0.0,0.0,0.0,0.0,0.0,0.0,0.0,0.0,0.0,0.0,0.0,0.0,0.0,0.0,-4.4228,-4.4701,-4.5063,0.0,-4.5419,-4.5273,-4.4759,-4.4451,-4.4009,-4.3327,0.0,0.0,0.0,0.0,0.0,0.0,0.0,0.0,0.0,0.0,0.0,0.0,0.0,0.0,0.0,0.0,0.0,0.0,0.0,0.0,0.0,0.0,0.0,0.0,0.0,0.0,0.0,0.0,0.0,0.0,0.0,0.0,0.0,0.0,0.0,0.0,0.0,0.0,0.0,0.0,0.0,0.0,0.0,0.0,0.0,0.0,0.0,0.0,0.0,0.0,0.0,0.0,0.0,0.0,0.0,0.0,0.0,0.0,0.0,0.0,0.0,0.0,0.0,0.0,0.0,0.0,0.0,0.0,0.0,0.0,0.0,0.0,0.0,0.0,0.0,0.0,0.0,0.0,0.0,0.0,0.0,0.0,0.0,0.0,0.0,0.0,0.0,0.0,0.0,0.0,0.0,0.0,0.0,0.0,0.0,0.0,0.0,0.0,0.0,0.0,0.0,0.0,-4.454,-4.4663,-4.495,-4.555,-4.5352,-4.5312,-4.5577,-4.4797,-4.4499,0.0,0.0,0.0,0.0,0.0,0.0,0.0,0.0,0.0,0.0,0.0,0.0,0.0,0.0,0.0,0.0,0.0,0.0,0.0,0.0,0.0,0.0,0.0,0.0,0.0,0.0,0.0,0.0,0.0,0.0,0.0,0.0,0.0,0.0,0.0,0.0,0.0,0.0,0.0,0.0,0.0,0.0,0.0,0.0,0.0,0.0,0.0,0.0,0.0,0.0,0.0,0.0,0.0,0.0,0.0,0.0,0.0,0.0,0.0,0.0,0.0,0.0,0.0,0.0,0.0,0.0,0.0,0.0,0.0,0.0,0.0,0.0,0.0,0.0,0.0,0.0,0.0,0.0,0.0,0.0,0.0,0.0,0.0,0.0,0.0,0.0,0.0,0.0,0.0,0.0,0.0,0.0,0.0,0.0,0.0,0.0,0.0,0.0,0.0,0.0,0.0,0.0,0.0,-4.458,-4.5022,-4.541,-4.5577,-4.5522,-4.5513,-4.5586,-4.5364,-4.5235,-4.5283,0.0,0.0,0.0,0.0,0.0,0.0,0.0,0.0,0.0,0.0,0.0,0.0,0.0,0.0,0.0,0.0,0.0,0.0,0.0,0.0,0.0,0.0,0.0,0.0,0.0,0.0,0.0,0.0,0.0,0.0,0.0,0.0,0.0,0.0,0.0,0.0,0.0,0.0,0.0,0.0,0.0,0.0,0.0,0.0,0.0,0.0,0.0,0.0,0.0,0.0,0.0,0.0,0.0,0.0,0.0,0.0,0.0,0.0,0.0,0.0,0.0,0.0,0.0,0.0,0.0,0.0,0.0,0.0,0.0,0.0,0.0,0.0,0.0,0.0,0.0,0.0,0.0,0.0,0.0,0.0,0.0,0.0,0.0,0.0,0.0,0.0,0.0,0.0,0.0,0.0,0.0,0.0,0.0,0.0,0.0,0.0,0.0,0.0,0.0,0.0,0.0,0.0,-4.4593,-4.5201,-4.5594,-4.5594,-4.5594,-4.5594,-4.5594,-4.5594,-4.5504,-4.5283,0.0,0.0,0.0,0.0,0.0,0.0,0.0,0.0,0.0,0.0,0.0,0.0,0.0,0.0,0.0,0.0,0.0,0.0,0.0,0.0,0.0,0.0,0.0,0.0,0.0,0.0,0.0,0.0,0.0,0.0,0.0,0.0,0.0,0.0,0.0,0.0,0.0,0.0,0.0,0.0,0.0,0.0,0.0,0.0,0.0,0.0,0.0,0.0,0.0,0.0,0.0,0.0,0.0,0.0,0.0,0.0,0.0,0.0,0.0,0.0,0.0,0.0,0.0,0.0,0.0,0.0,0.0,0.0,0.0,0.0,0.0,0.0,0.0,0.0,0.0,0.0,0.0,0.0,0.0,0.0,0.0,0.0,0.0,0.0,0.0,0.0,0.0,0.0,0.0,0.0,0.0,0.0,0.0,0.0,0.0,0.0,0.0,0.0,0.0,0.0,0.0,0.0,-4.4593,-4.5201,-4.5594,-4.5594,-4.5594,-4.5594,-4.5594,-4.5594,-4.5476,-4.5169,0.0,0.0,0.0,0.0,0.0,0.0,0.0,0.0,0.0,0.0,0.0,0.0,0.0,0.0,0.0,0.0,0.0,0.0,0.0,0.0,0.0,0.0,0.0,0.0,0.0,0.0,0.0,0.0,0.0,0.0,0.0,0.0,0.0,0.0,0.0,0.0,0.0,0.0,0.0,0.0,0.0,0.0,0.0,0.0,0.0,0.0,0.0,0.0,0.0,0.0,0.0,0.0,0.0,0.0,0.0,0.0,0.0,0.0,0.0,0.0,-4.1543,0.0,0.0,0.0,0.0,0.0,0.0,0.0,0.0,0.0,0.0,0.0,0.0,0.0,0.0,0.0,0.0,0.0,0.0,0.0,0.0,0.0,0.0,0.0,0.0,0.0,0.0,0.0,0.0,0.0,0.0,0.0,0.0,0.0,0.0,0.0,0.0,0.0,0.0,0.0,0.0,0.0,-4.4593,-4.5201,-4.5594,-4.5594,-4.5594,-4.5594,-4.5594,-4.5594,-4.555,-4.5419,0.0,0.0,0.0,0.0,0.0,0.0,0.0,0.0,0.0,0.0,0.0,0.0,0.0,0.0,0.0,0.0,0.0,0.0,0.0,0.0,0.0,0.0,0.0,0.0,0.0,0.0,0.0,0.0,0.0,0.0,0.0,0.0,0.0,0.0,0.0,0.0,0.0,0.0,0.0,0.0,0.0,0.0,0.0,0.0,0.0,0.0,0.0,0.0,0.0,0.0,0.0,0.0,0.0,0.0,0.0,0.0,0.0,0.0,0.0,0.0,0.0,-4.2044,0.0,0.0,0.0,0.0,0.0,0.0,0.0,0.0,0.0,0.0,0.0,0.0,0.0,0.0,0.0,0.0,0.0,0.0,0.0,0.0,0.0,0.0,0.0,0.0,0.0,0.0,0.0,0.0,0.0,0.0,0.0,0.0,0.0,0.0,0.0,0.0,0.0,0.0,0.0,0.0,-4.4593,-4.5201,-4.5594,-4.5594,-4.5594,-4.5768,-4.6182,-4.5845,-4.575,-4.6146,-4.5621,0.0,0.0,0.0,0.0,0.0,0.0,0.0,0.0,0.0,0.0,0.0,0.0,0.0,0.0,0.0,0.0,0.0,0.0,0.0,0.0,0.0,0.0,0.0,0.0,0.0,0.0,0.0,0.0,0.0,0.0,0.0,0.0,0.0,0.0,0.0,0.0,0.0,0.0,0.0,0.0,0.0,0.0,0.0,0.0,0.0,0.0,0.0,0.0,0.0,0.0,0.0,0.0,0.0,-4.4501,-4.4501,-4.4501,-4.4501,-4.4501,-4.4426,-4.3037,-4.2502,-4.2592,0.0,0.0,0.0,0.0,0.0,0.0,0.0,0.0,0.0,0.0,0.0,0.0,0.0,0.0,0.0,0.0,0.0,0.0,0.0,0.0,0.0,0.0,0.0,0.0,0.0,-4.1762,-4.1608,0.0,0.0,0.0,0.0,0.0,0.0,0.0,0.0,0.0,0.0,0.0,0.0,-4.4701,-4.5232,-4.5594,-4.5594,-4.5594,-4.5951,-4.6836,-4.624,-4.6124,-4.6846,-4.6165,-4.5554,0.0,0.0,0.0,0.0,0.0,0.0,0.0,0.0,0.0,0.0,0.0,0.0,0.0,0.0,0.0,0.0,0.0,0.0,0.0,0.0,0.0,0.0,0.0,0.0,0.0,0.0,0.0,0.0,0.0,0.0,0.0,0.0,-4.4036,-4.4036,0.0,0.0,0.0,0.0,0.0,0.0,0.0,0.0,0.0,0.0,0.0,0.0,0.0,-4.4358,-4.4411,-4.4473,-4.4501,-4.4501,-4.4501,-4.4501,-4.4501,-4.4501,-4.4501,-4.4482,-4.4257,0.0,-4.419,-4.4177,0.0,0.0,0.0,0.0,0.0,0.0,0.0,0.0,0.0,0.0,0.0,0.0,0.0,0.0,0.0,0.0,0.0,0.0,0.0,0.0,0.0,0.0,-4.2458,-4.2603,-4.2642,-4.2604,0.0,-4.2575,-4.2642,-4.2594,0.0,0.0,0.0,0.0,0.0,0.0,0.0,0.0,-4.503,-4.5381,-4.5594,-4.5594,-4.5594,-4.5951,-4.6836,-4.6797,-4.6778,-4.6885,-4.6788,-4.6235,-4.5145,-4.4971,0.0,0.0,0.0,0.0,0.0,0.0,0.0,0.0,0.0,0.0,0.0,0.0,0.0,0.0,0.0,0.0,0.0,0.0,0.0,0.0,0.0,0.0,0.0,0.0,0.0,0.0,0.0,0.0,0.0,-4.4005,-4.4005,-4.4005,-4.4005,-4.4005,0.0,0.0,0.0,0.0,0.0,0.0,0.0,0.0,0.0,-4.4184,-4.4229,-4.4289,-4.4344,-4.4416,-4.444,-4.444,-4.4487,-4.4501,-4.4501,-4.4501,-4.4501,-4.4501,-4.4501,-4.4501,-4.4501,-4.4501,-4.4501,-4.4463,0.0,0.0,0.0,0.0,-4.3412,-4.3412,-4.3412,-4.3412,0.0,0.0,0.0,0.0,0.0,0.0,0.0,0.0,0.0,0.0,0.0,0.0,0.0,-4.3461,-4.3846,-4.421,-4.421,-4.423,-4.4125,0.0,-4.4279,-4.4766,-4.4429,0.0,0.0,0.0,0.0,0.0,-4.5096,-4.54,-4.5594,-4.5594,-4.5594,-4.5951,-4.6836,-4.6904,-4.7077,-4.7548,-4.7116,-4.6618,-4.6138,-4.5418,-4.4281,0.0,0.0,0.0,0.0,0.0,0.0,0.0,0.0,0.0,0.0,0.0,0.0,0.0,0.0,0.0,0.0,0.0,0.0,0.0,0.0,0.0,0.0,0.0,0.0,0.0,0.0,0.0,0.0,-4.4636,-4.4636,-4.4636,-4.4636,-4.4636,0.0,0.0,0.0,0.0,0.0,0.0,-4.4321,-4.4116,-4.407,-4.4184,-4.4199,-4.4229,-4.43,-4.4358,-4.4368,-4.4387,-4.4426,-4.4468,-4.4468,-4.4501,-4.4501,-4.4501,-4.4501,-4.4501,-4.4501,-4.4501,-4.4501,-4.4501,-4.4501,-4.4501,-4.4501,-4.4501,-4.4501,-4.4501,-4.4501,-4.4501,-4.4501,-4.4501,0.0,-4.4501,-4.4501,0.0,0.0,0.0,0.0,-4.3084,-4.3248,-4.3768,-4.4266,-4.4321,-4.4838,-4.5307,-4.5307,-4.5338,-4.5187,0.0,-4.4988,-4.5342,-4.5096,0.0,0.0,0.0,0.0,-4.5211,-4.5222,-4.5438,-4.5594,-4.5594,-4.5594,-4.5951,-4.6836,-4.6904,-4.7154,-4.7759,-4.7367,-4.6935,-4.6586,-4.5857,-4.4734,-4.3164,0.0,0.0,0.0,0.0,0.0,0.0,0.0,0.0,0.0,0.0,0.0,0.0,0.0,0.0,0.0,0.0,0.0,0.0,0.0,0.0,0.0,0.0,0.0,0.0,0.0,0.0,0.0,0.0,0.0,-4.6364,-4.6364,0.0,0.0,0.0,0.0,-4.6364,-4.5658,-4.5231,-4.5231,-4.4451,-4.407,-4.4184,-4.4199,-4.4229,-4.43,-4.43,-4.43,-4.43,-4.4368,-4.4397,-4.4397,-4.4473,-4.4501,-4.4501,-4.4501,-4.4501,-4.4501,-4.4501,-4.4501,-4.4501,-4.4501,-4.4501,-4.4501,-4.4501,-4.4501,-4.4501,-4.4501,-4.4501,-4.4501,-4.4501,-4.4501,-4.4501,-4.4501,-4.4477,0.0,0.0,-4.4769,-4.4823,-4.5099,-4.5201,-4.5239,-4.522,-4.5269,-4.5307,-4.5307,-4.5307,-4.5319,0.0,-4.5428,-4.5495,-4.5457,0.0,-4.5476,-4.5448,-4.5476,-4.5504,-4.5568,-4.5586,-4.5594,-4.5594,-4.5594,-4.5951,-4.6836,-4.6904,-4.6923,-4.6962,-4.7578,-4.7261,-4.572,-4.633,-4.6126,-4.4905,-4.3295,0.0,0.0,0.0,0.0,0.0,0.0,0.0,0.0,0.0,0.0,0.0,0.0,0.0,0.0,0.0,0.0,0.0,0.0,0.0,0.0,0.0,0.0,0.0,0.0,0.0,0.0,0.0,0.0,-4.6494,-4.6494,0.0,-4.6494,-4.6494,-4.6494,-4.6494,-4.6234,-4.6067,-4.6067,-4.5769,-4.5637,-4.5688,-4.5669,-4.5685,-4.5717,-4.5764,-4.5777,-4.5777,-4.5854,-4.5881,-4.5881,-4.5956,-4.5985,-4.5985,-4.6081,-4.6096,-4.6096,-4.6096,-4.5458,-4.4501,-4.4501,-4.4501,-4.4501,-4.4501,-4.4501,-4.4501,-4.4501,-4.4501,-4.4501,-4.4501,-4.4501,-4.4501,-4.4501,-4.4551,-4.4646,-4.4732,-4.4914,-4.5057,-4.5148,-4.5625,-4.5946,-4.5411,-4.5698,-4.5927,-4.5411,-4.5307,-4.5328,-4.538,-4.5429,-4.5438,-4.5438,-4.5429,-4.5438,-4.5448,-4.5477,-4.5504,-4.5522,-4.5577,-4.5594,-4.5594,-4.5594,-4.5729,-4.6028,-4.6586,-4.6904,-4.6904,-4.7117,-4.6992,-4.6471,-4.6137,-4.5496,-4.4497,-4.3181,-4.2037,0.0,0.0,0.0,0.0,0.0,0.0,0.0,0.0,0.0,0.0,0.0,0.0,0.0,0.0,0.0,0.0,0.0,0.0,0.0,0.0,0.0,0.0,0.0,0.0,0.0,0.0,-4.7311,-4.7311,-4.7311,-4.7311,-4.7311,-4.7311,-4.7311,-4.7311,-4.7051,-4.6903,-4.6903,-4.6643,-4.6494,-4.6494,-4.6494,-4.6494,-4.6494,-4.6541,-4.6557,-4.6557,-4.6635,-4.6666,-4.6666,-4.6725,-4.6772,-4.6772,-4.6866,-4.693,-4.6948,-4.6978,-4.634,-4.5308,-4.5007,-4.4909,-4.4871,-4.4594,-4.4501,-4.4501,-4.4501,-4.4501,-4.4501,-4.4501,-4.4501,-4.4501,-4.4501,-4.4551,-4.4646,-4.4699,-4.4821,-4.4986,-4.5014,-4.5483,-4.5837,-4.5347,-4.5644,-4.5903,-4.5411,-4.5307,-4.5317,-4.5348,-4.5369,-4.5389,-4.5409,-4.54,-4.539,-4.54,-4.5429,-4.5476,-4.5476,-4.5522,-4.5568,-4.5568,-4.5586,-4.5594,-4.5594,-4.6115,-4.6433,-4.6471,-4.6656,-4.6666,-4.6471,-4.6014,-4.537,-4.4488,-4.3139,-4.187,-4.0716,0.0,0.0,0.0,0.0,0.0,0.0,0.0,0.0,0.0,0.0,0.0,0.0,0.0,0.0,0.0,0.0,0.0,0.0,0.0,0.0,0.0,0.0,0.0,-4.8891,-4.8891,-4.8909,-4.8909,-4.8909,-4.8909,-4.8909,-4.8909,-4.8909,-4.8909,-4.8184,-4.7738,-4.7738,-4.6995,-4.6568,-4.6568,-4.6568,-4.6568,-4.6568,-4.6568,-4.6568,-4.6568,-4.6631,-4.668,-4.668,-4.6741,-4.6772,-4.6788,-4.6846,-4.6877,-4.6892,-4.7024,-4.7072,-4.6993,-4.6092,-4.5735,-4.5641,-4.4871,-4.4576,-4.4576,-4.4613,-4.4594,-4.4576,-4.4576,-4.4576,-4.4576,-4.4576,-4.4576,-4.4617,-4.4734,-4.4774,-4.4813,-4.4953,-4.4971,-4.5007,-4.5144,-4.5179,-4.5213,-4.5352,-4.5373,-4.5383,-4.5383,-4.5425,-4.5456,-4.541,-4.54,-4.54,-4.54,-4.54,0.0,-4.54,-4.5467,-4.5504,-4.5495,-4.5559,-4.5594,-4.5594,-4.555,-4.5522,-4.5605,-4.6263,-4.635,-4.5624,-4.6044,-4.5856,-4.4988,-4.321,-4.1808,-4.0791,0.0,0.0,0.0,0.0,0.0,0.0,0.0,0.0,0.0,0.0,0.0,0.0,0.0,0.0,0.0,0.0,0.0,0.0,0.0,0.0,0.0,0.0,-4.8732,-4.8495,-4.8714,-4.8909,-4.8909,-4.8909,-4.8909,-4.8909,-4.8909,-4.8909,-4.8909,-4.8704,-4.8574,-4.8574,-4.837,-4.824,-4.824,-4.824,-4.824,-4.824,-4.824,-4.824,-4.824,-4.8257,-4.8274,-4.8274,-4.8377,-4.8445,-4.8445,-4.8506,-4.857,-4.8615,-4.8649,-4.8715,-4.8683,-4.7218,-4.6636,-4.6617,-4.6377,-4.6302,-4.6411,-4.6974,-4.6805,-4.6302,-4.6302,-4.6302,-4.6302,-4.6302,-4.6302,-4.6317,-4.636,-4.6445,-4.6523,-4.6563,-4.6643,-4.6733,-4.6771,-4.6839,-4.6922,-4.6957,-4.7045,-4.7111,-4.7111,-4.7141,-4.6751,-4.554,-4.5329,-4.5329,-4.5329,-4.536,0.0,-4.5409,-4.5467,-4.5485,-4.5429,-4.5495,-4.5522,-4.5522,-4.5504,-4.5522,-4.5605,-4.5799,-4.5809,-4.5614,-4.5725,-4.5294,-4.4211,-4.3039,-4.1817,0.0,0.0,0.0,0.0,0.0,0.0,0.0,0.0,0.0,0.0,0.0,0.0,0.0,0.0,0.0,0.0,0.0,0.0,0.0,0.0,0.0,0.0,-4.8193,-4.8697,-4.8458,-4.8678,-4.8856,-4.8909,-4.8909,-4.8909,-4.8909,-4.8909,-4.8909,-4.8909,-4.8909,-4.8909,-4.8909,-4.8909,-4.8909,-4.8909,-4.8909,-4.8909,-4.8909,-4.8909,-4.8909,-4.8909,-4.8909,-4.8909,-4.8909,-4.8979,-4.9015,0.0,-4.9133,-4.9181,-4.9214,-4.9244,-4.9327,0.0,0.0,0.0,0.0,0.0,-4.7218,-4.7575,-4.8044,-4.8138,-4.8044,-4.8044,-4.78,-4.75,-4.75,-4.7274,-4.7012,-4.7012,-4.707,-4.7109,-4.7109,-4.716,-4.7262,-4.7297,-4.7377,-4.746,-4.7591,-4.7662,-4.7732,-4.7777,-4.7788,0.0,-4.6519,-4.6042,-4.5793,-4.5793,-4.5557,-4.5348,-4.5348,-4.5429,-4.5438,-4.541,-4.5448,-4.5513,-4.555,-4.5513,0.0,0.0,0.0,-4.5504,-4.54,-4.54,0.0,0.0,0.0,-4.2473,-4.1385,0.0,0.0,0.0,-3.8756,-3.8652,0.0,0.0,0.0,0.0,0.0,0.0,0.0,0.0,0.0,0.0,0.0,0.0,0.0,0.0,0.0,0.0,-4.8326,-4.8733,-4.8624,-4.8715,-4.8804,-4.8874,-4.8891,-4.8909,-4.8909,-4.8909,-4.8909,-4.8909,-4.8909,-4.8909,-4.8909,0.0,0.0,0.0,0.0,-4.8909,-4.8909,-4.8909,-4.8909,-4.8909,-4.8909,-4.8909,-4.8909,-4.8909,-4.8909,-4.8909,-4.9032,-4.9084,-4.9101,-4.9148,-4.9228,-4.9249,-4.8596,-4.8345,-4.8269,-4.765,-4.7819,-4.8363,-4.8438,0.0,0.0,-4.964,-4.9171,-4.8607,-4.8607,-4.8119,-4.7556,-4.7556,-4.75,-4.7425,-4.7425,-4.735,-4.7304,-4.7434,-4.7476,-4.7554,-4.7783,-4.7845,-4.7893,-4.8018,-4.8052,-4.8052,-4.8052,-4.7272,-4.6653,-4.6653,-4.5965,-4.543,-4.543,-4.5406,-4.5399,-4.5381,0.0,0.0,-4.5568,-4.5532,-4.5523,-4.5577,-4.555,-4.541,-4.5169,-4.5169,-4.5118,-4.5074,-4.4206,-4.3389,-4.2619,-4.1521,-4.049,-3.9483,-3.9101,-3.8921,0.0,0.0,0.0,0.0,0.0,0.0,0.0,0.0,0.0,0.0,0.0,0.0,0.0,0.0,0.0,-4.7632,-4.8152,-4.8569,-4.8605,-4.8605,-4.8678,-4.8786,-4.8856,-4.8909,-4.8909,-4.8909,-4.8909,-4.8909,-4.8909,-4.8909,-4.8909,-4.8909,0.0,-4.8909,-4.8909,-4.8909,-4.8909,-4.8909,-4.8909,-4.8909,0.0,0.0,-4.8909,-4.8909,-4.8909,-4.8909,-4.8926,-4.8996,-4.9101,-4.9118,-4.9181,-4.9305,-4.9271,-4.9246,-4.9302,-4.979,-4.9659,-4.934,-4.9978,-5.0332,-5.0482,-5.0482,-5.0785,-5.118,-5.118,-5.1086,0.0,-5.0954,-5.0485,-4.9978,-4.9978,-4.949,-4.902,-4.9051,-4.9152,-4.9235,-4.9273,-4.9384,-4.9459,-4.9485,-4.9575,-4.9657,-4.9657,-4.8483,-4.754,-4.754,-4.6825,-4.6271,-4.6271,-4.5769,-4.5369,-4.5338,-4.5389,-4.5419,-4.5429,-4.5419,-4.5458,-4.5532,-4.5559,-4.5559,-4.5504,-4.5504,-4.5495,-4.5485,-4.4621,-4.3685,-4.2679,-4.1594,-4.0544,-3.9483,-3.9192,-3.9059,0.0,0.0,0.0,0.0,0.0,0.0,0.0,0.0,0.0,0.0,0.0,-4.7013,0.0,0.0,-4.7834,-4.7917,-4.8248,-4.8494,-4.8458,-4.8495,-4.8624,-4.884,-4.8874,-4.8909,-4.8909,-4.8909,-4.8909,-4.8909,-4.8909,-4.8909,-4.8909,-4.8909,-4.8909,-4.8909,-4.8909,-4.8909,-4.8909,-4.8909,-4.8909,-4.8909,-4.8909,-4.8909,-4.8909,-4.8909,-4.8909,-4.8909,-4.8909,-4.8926,-4.9015,-4.9084,-4.9133,-4.9214,-4.9361,-4.944,-4.9546,-4.994,-5.0091,-5.0147,-5.056,-5.0954,-5.1292,-5.1292,-5.1292,-5.1367,-5.178,-5.163,-5.1386,-5.1799,-5.1611,-5.1292,-5.1292,-5.1011,-5.0598,-5.0203,-5.0153,-5.0112,-4.9772,-4.9764,-4.9816,-4.9898,-4.9946,-5.0031,-5.0095,-4.9472,-4.8846,-4.8495,-4.7723,-4.7139,-4.7139,-4.6445,-4.595,-4.595,-4.5617,-4.5399,-4.54,-4.5409,-4.5438,-4.5495,-4.5522,-4.5568,-4.5594,-4.5594,-4.5594,-4.5594,-4.5035,-4.4068,-4.2699,-4.1942,-4.0834,-3.9483,-3.9219,-3.9101,0.0,0.0,0.0,0.0,0.0,0.0,0.0,0.0,-4.7128,-4.716,-4.7212,-4.7345,-4.7674,-4.7816,-4.7994,-4.8267,-4.8382,-4.8438,-4.8363,-4.8438,-4.8587,-4.8803,-4.8838,-4.8838,-4.8838,-4.8874,-4.8874,-4.8874,-4.8891,-4.8964,-4.9132,-4.9132,-4.9206,-4.9373,-4.9392,-4.9392,-4.9392,-4.9392,-4.9392,-4.9392,-4.9392,-4.9392,-4.9392,-4.9392,-4.9299,-4.9132,-4.8964,-4.8909,-4.8909,-4.9032,-4.9101,-4.9118,-4.9228,-4.9358,-4.9474,-4.949,-4.9903,-5.0482,-5.0482,-5.0992,-5.1668,-5.1668,-5.133,-5.1048,-5.1705,-5.1442,-5.1067,-5.1724,-5.1799,-5.1705,-5.1874,-5.178,-5.1536,-5.1048,-5.0917,-5.0739,-5.0033,-4.9893,-4.9881,-4.9839,-4.9843,-4.9898,-5.0005,-5.0044,-4.9892,-4.94,-4.8602,-4.8048,-4.8048,-4.7302,-4.6702,-4.6602,-4.6,-4.5561,-4.539,-4.5381,-4.5429,-4.5486,-4.5485,-4.5522,-4.5577,-4.5586,-4.5594,-4.5594,-4.539,-4.443,-4.2689,-4.229,-4.1193,-3.9483,-3.9219,-3.9101,-4.8772,-4.8495,-4.8475,-4.8567,-4.8146,-4.7852,0.0,0.0,-4.7653,-4.8055,-4.8152,-4.8172,-4.821,-4.823,-4.8267,-4.8287,-4.8306,-4.8363,-4.8457,-4.8494,-4.8532,-4.8605,-4.8623,-4.8623,-4.8623,-4.8732,-4.8804,-4.8804,-4.8856,-4.9206,-4.993,-4.9986,-5.032,-5.1101,-5.1119,-5.1119,-5.1119,-5.1119,-5.1119,-5.1119,-5.1119,-5.1119,-5.1119,-5.1119,-5.0711,-4.993,-4.9206,-4.8909,-4.8909,-4.9032,-4.9101,-4.9101,-4.9181,-4.926,-4.9324,-4.9459,-4.9565,-4.9621,-4.9621,-5.0166,-5.0839,-5.0839,-5.1255,-5.178,-5.1874,-5.1837,-5.178,-5.1874,-5.1386,-5.0992,-5.1705,-5.1367,-5.0992,-5.163,-5.178,-5.1555,-5.0761,-5.0592,-5.0382,-4.9668,-4.9638,-4.9721,-4.975,-4.9843,-4.998,-5.0133,-4.9461,-4.8945,-4.8945,-4.82,-4.736,-4.6577,-4.6434,-4.609,-4.5375,-4.5369,-4.5399,-4.5399,-4.5467,-4.5504,-4.5513,-4.5568,-4.5594,-4.5594,-4.5568,-4.4613,-4.2699,-4.2479,-4.1357,-3.9483,-3.9219,-3.9101,-4.8772,-4.855,0.0,0.0,-4.8343,-4.8229,-4.8363,-4.8248,-4.8152,-4.8287,-4.8363,-4.8382,-4.8306,-4.8306,-4.8306,0.0,-4.8306,-4.8306,-4.8382,-4.8382,-4.8401,-4.842,-4.8862,-4.9066,-4.8752,-4.923,-4.9562,-4.9562,-5.0061,-5.0506,-5.0841,-5.0859,-5.1026,-5.1398,-5.1398,-5.1398,-5.1398,-5.1398,-5.1398,-5.1398,-5.1398,-5.1398,-5.1398,-5.1398,-5.1193,-5.0841,-5.0506,-5.0358,-5.0358,-5.0412,-5.0132,-4.9686,-4.9808,-4.9577,-4.9216,-4.9327,-4.9424,-4.9521,-4.9625,-4.9887,-5.0189,-5.0189,-5.0511,-5.0959,-5.114,-5.1306,-5.1488,-5.181,-5.1668,-5.148,-5.1818,-5.1649,-5.1367,-5.1236,-5.1555,-5.1555,-5.0278,-5.0372,-5.0447,-4.9659,-4.9551,-4.9608,-4.9678,-4.975,-4.9843,-5.0038,-4.986,-4.9704,-4.9794,-4.906,-4.8028,-4.6653,-4.65,-4.6175,-4.5383,-4.5359,-4.5399,-4.539,-4.5457,-4.5513,-4.5559,-4.5586,-4.5594,-4.5594,-4.5438,-4.4499,-4.2699,-4.2348,-4.1255,-3.9483,-3.9219,-3.9101,-4.866,0.0,0.0,-4.8457,-4.8476,-4.8457,-4.8325,-4.8382,-4.8419,-4.8306,-4.8382,-4.8419,-4.8306,-4.8306,-4.8306,-4.8306,-4.8306,-4.8306,-4.8306,-4.8306,-4.8398,-4.8636,-4.9244,-4.9561,-4.94,-4.9972,-5.0378,-5.0397,-5.1008,-5.1491,-5.1714,-5.1732,-5.1825,-5.2048,-5.2067,-5.2067,-5.2067,-5.2067,-5.2067,-5.2067,-5.2067,-5.2067,-5.2048,-5.1825,-5.1732,-5.1714,-5.1491,-5.1398,-5.1398,-5.1416,-5.1044,-5.0469,-5.0595,-5.0258,-4.977,-4.9963,-4.9843,-4.9604,-4.9836,-4.9904,-4.9904,-4.9904,-5.0031,-5.025,-5.0492,-5.0695,-5.0925,-5.1228,-5.1306,-5.1365,-5.1515,-5.1574,-5.148,-5.1123,-5.148,-5.1518,-5.0128,-5.0278,-5.0447,-4.9659,-4.9509,-4.9521,-4.9623,-4.9653,-4.9692,-4.9816,-4.9925,-5.0057,-5.0231,-4.9572,-4.8506,-4.7016,-4.6653,-4.6175,-4.5383,-4.5359,-4.5399,-4.54,-4.5467,-4.5513,-4.5568,-4.5586,-4.5594,-4.5594,-4.541,-4.4565,-4.3062,-4.2643,-4.1538,-3.9852,-3.9586,-3.9324,0.0,0.0,-4.855,-4.8363,-4.8401,-4.8457,-4.8325,-4.8306,-4.8306,-4.8306,-4.8306,-4.8306,-4.8306,-4.8306,-4.8306,-4.8306,-4.8306,-4.8306,-4.8306,-4.8306,-4.8618,-4.9463,-4.9652,-5.0004,0.0,-5.0985,-5.11,-5.1157,-5.1306,-5.1732,-5.2512,-5.2568,-5.2921,-5.3701,-5.3738,-5.3738,-5.3738,-5.3738,-5.3738,-5.3738,-5.3738,-5.3738,-5.3701,-5.2921,-5.2568,-5.2512,-5.1732,-5.1398,-5.1398,-5.147,-5.1433,-5.1379,-5.1432,-5.1449,-5.1465,-5.1797,-5.0979,-4.974,-5.0075,-5.0195,-5.0195,-5.0195,-5.0195,-5.0195,-5.0202,-5.0221,-5.0174,-4.9927,-4.9866,-4.9986,-5.0579,-5.0745,-5.0917,-5.1686,-5.1874,-5.1668,-5.0842,-5.0688,-5.0447,-4.9659,-4.9509,-4.949,-4.9509,-4.9509,-4.9551,-4.9678,-4.9707,-4.9821,-5.007,-4.9525,-4.8754,-4.7865,-4.6986,-4.6175,-4.5383,-4.5359,-4.5408,-4.5408,-4.5467,-4.5504,-4.5504,-4.5568,-4.5594,-4.5594,-4.5586,-4.5054,-4.3951,-4.3688,-4.259,-4.0741,-4.0495,-3.99,0.0,0.0,-4.8495,-4.8344,-4.8325,-4.8363,-4.8306,-4.8306,-4.8306,-4.8306,-4.8306,-4.8306,-4.8306,-4.8306,-4.8306,-4.8306,-4.8306,-4.8306,-4.8306,-4.8306,-4.8618,-4.95,-5.0089,0.0,0.0,0.0,0.0,-5.199,-5.2623,-5.3107,-5.3385,-5.3404,-5.3534,-5.3794,-5.3813,-5.3813,-5.3813,-5.3813,-5.3813,-5.3813,-5.3813,-5.3813,-5.3794,-5.3534,-5.3404,-5.3385,-5.3107,-5.2995,-5.2995,-5.3033,-5.2698,-5.2197,-5.2233,-5.1899,-5.1505,-5.2054,-5.1935,-5.1559,-5.1932,-5.2086,-5.2118,-5.2118,-5.1856,-5.1472,-5.1162,-5.079,-5.0415,-5.0147,-5.0075,-5.007,-5.0094,-5.0085,-5.0136,-5.0269,-5.071,-5.0879,-5.0072,-5.0316,-5.0447,-4.9659,-4.9509,-4.9509,-4.9509,-4.9509,-4.9551,-4.9678,-4.9843,-5.0005,-5.0095,-4.9971,-4.9576,-4.8754,-4.7876,-4.7016,-4.6175,-4.5666,-4.54,-4.54,-4.5495,-4.5568,-4.5568,-4.5586,-4.5594,-4.5594,-4.5594,-4.5136,-4.419,-4.398,-4.3137,-4.1791,-4.1561,-4.0909,-4.8513,-4.8513,-4.8495,-4.8344,-4.8343,-4.8363,-4.8306,-4.8306,-4.8306,-4.8306,-4.8306,-4.8306,-4.8306,-4.8306,-4.8306,-4.8306,-4.8306,-4.8306,-4.8306,-4.8563,-4.9077,-4.9941,-5.0729,0.0,0.0,0.0,0.0,-5.2861,-5.342,-5.3774,-5.3813,-5.3813,-5.3813,-5.3813,-5.3813,-5.3813,-5.3813,-5.3813,-5.3813,-5.3813,-5.3813,-5.3813,-5.3813,-5.3813,-5.3813,-5.3813,-5.3813,-5.3813,-5.3813,-5.3813,-5.3497,-5.3032,-5.3032,-5.2717,-5.2325,-5.3017,-5.3271,-5.3274,-5.3185,-5.3196,-5.3244,-5.3244,-5.2979,-5.2614,-5.2309,-5.1934,-5.1529,-5.0924,-5.0771,-5.0639,-5.0082,-4.9865,-4.9781,-4.964,-4.9958,-5.0128,-4.9602,-4.9903,-5.0109,-4.9602,-4.9509,-4.9509,-4.9509,-4.9509,-4.9521,-4.9608,-4.9821,-4.9992,-5.0095,-5.0182,-4.9949,-4.9175,-4.8602,-4.7799,-4.6596,-4.6087,-4.5707,-4.5419,-4.5504,-4.5577,-4.5594,-4.5594,-4.5594,-4.5594,-4.5594,-4.5325,-4.4759,-4.4439,-4.39,-4.3185,-4.2865,-4.2352,-4.8513,-4.855,-4.8532,-4.8344,-4.84,-4.8457,-4.8325,-4.8306,-4.8306,-4.8306,-4.8306,-4.8306,0.0,0.0,-4.8306,-4.8306,-4.8306,-4.8306,-4.8306,-4.904,-4.9904,0.0,0.0,0.0,0.0,0.0,0.0,-5.3656,0.0,-5.3734,-5.3793,-5.3813,-5.3813,-5.3813,-5.3813,-5.3813,-5.3813,-5.3813,-5.3813,-5.3813,-5.3813,-5.3813,-5.3813,-5.3813,-5.3813,-5.3813,-5.3813,-5.3813,-5.3813,-5.3813,-5.3813,-5.3813,-5.3813,-5.3813,-5.3889,-5.456,-5.4851,-5.4775,-5.384,-5.3572,-5.3633,-5.3633,-5.3594,-5.3575,-5.3575,-5.3536,-5.3271,-5.2184,-5.1857,-5.1576,-5.0554,-5.0057,-4.983,-4.9784,-4.9655,-4.9509,-4.9509,-4.9509,-4.9509,-4.9509,-4.9509,-4.9509,-4.9509,-4.9509,-4.9509,-4.9509,-4.9608,-4.9792,-5.0057,-5.0095,-4.9872,-4.9221,-4.9129,-4.8411,-4.671,-4.6592,-4.6261,-4.5458,-4.5448,-4.5522,-4.5586,-4.5594,-4.5594,-4.5594,-4.5594,-4.5594,-4.5594,-4.5085,-4.4825,-4.48,-4.4345,-4.4085,-4.8513,-4.8438,-4.8363,-4.8306,-4.8343,-4.8343,-4.8306,-4.8306,-4.8306,-4.8306,-4.8306,-4.8306,0.0,0.0,0.0,-4.8306,-4.8306,0.0,-4.8306,-4.904,0.0,0.0,0.0,-5.2307,-5.3112,-5.3227,0.0,0.0,-5.3596,-5.3734,-5.3793,-5.3813,-5.3813,-5.3813,-5.3813,-5.3813,-5.3813,-5.3813,-5.3813,-5.3813,-5.3813,-5.3813,-5.3813,-5.3813,-5.3813,-5.3813,-5.3813,-5.3813,-5.3813,-5.3813,-5.3813,-5.3813,-5.3813,-5.3813,-5.3889,-5.456,-5.4851,-5.4933,-5.5122,-5.5268,-5.536,-5.5357,-5.4967,-5.4465,-5.4465,-5.402,-5.3431,-5.3157,-5.2599,-5.1985,-5.1509,-5.0757,-5.0062,-4.9857,-4.9655,-4.9509,-4.9509,-4.9509,-4.9509,-4.9509,-4.9509,-4.9509,-4.9509,-4.9509,-4.9509,-4.9509,-4.9521,-4.9653,-4.9925,-5.0044,-5.0081,-5.0004,-4.9461,-4.8659,-4.7559,-4.6925,-4.6269,-4.5447,-4.5448,-4.5504,-4.5522,-4.5577,-4.5594,-4.5594,-4.5594,-4.5594,-4.5594,-4.5457,-4.5283,-4.5115,-4.5631,-4.5438,-4.8438,-4.8401,-4.8382,-4.8306,-4.8306,-4.8306,-4.8306,-4.8306,-4.8306,-4.8306,-4.8306,0.0,0.0,0.0,0.0,0.0,0.0,0.0,-4.8306,-4.904,-4.9904,0.0,-5.1499,0.0,-5.3112,-5.3185,-5.323,0.0,-5.3499,-5.3657,-5.3754,-5.3774,-5.3813,-5.3813,-5.3813,-5.3813,-5.3813,-5.3813,-5.3813,-5.3813,-5.3813,-5.3813,-5.3813,-5.3813,-5.3813,-5.3813,0.0,-5.3813,-5.3813,-5.3813,-5.3813,-5.3813,-5.3813,-5.3889,-5.4089,-5.4607,-5.4924,-5.5145,-5.5621,-5.5846,-5.5924,-5.5979,-5.5685,-5.5335,-5.5335,-5.4987,-5.4523,-5.4175,-5.371,-5.3133,-5.2219,-5.1371,-5.0641,-5.0101,-4.9722,-4.9509,-4.9509,-4.9509,-4.9509,-4.9509,-4.9509,-4.9509,-4.9509,-4.9509,-4.9509,-4.9509,-4.9509,-4.9582,-4.9792,-4.9871,-5.0005,-5.0194,-4.9818,-4.9079,-4.7903,-4.7382,-4.663,-4.5475,-4.5438,-4.5477,-4.5495,-4.555,-4.5568,-4.5594,-4.5594,-4.5594,-4.5594,-4.5485,-4.5725,-4.6298,-4.6687,-4.6944,-4.8343,-4.8382,-4.8438,-4.8325,-4.8306,-4.8306,-4.8306,-4.8306,-4.8306,-4.8306,0.0,-4.8306,-4.8306,-4.8306,-4.8306,-4.8306,0.0,-4.8306,-4.8306,-4.904,-4.9904,-5.071,-5.1499,-5.2307,-5.3112,-5.3185,-5.3209,-5.3277,-5.342,-5.3558,-5.3675,-5.3774,-5.3813,-5.3813,-5.3813,-5.3813,-5.3813,-5.3813,-5.3813,-5.3813,-5.3813,-5.3813,-5.3813,-5.3813,-5.3813,-5.3813,0.0,0.0,-5.3813,-5.3813,-5.3813,-5.3813,-5.3813,-5.3999,-5.433,-5.4685,-5.5009,-5.5351,-5.5673,-5.5787,-5.5826,-5.5962,-5.6007,-5.6003,-5.6003,-5.6012,-5.5857,-5.5161,-5.4871,-5.4426,-5.2801,-5.1953,-5.1327,-5.0463,-4.9908,-4.9578,-4.9548,-4.9521,-4.9509,-4.9509,-4.9509,-4.9509,-4.9509,-4.9509,-4.9509,-4.9509,-4.9509,-4.9536,-4.9667,-4.9678,-4.9807,-5.0044,-5.0095,-4.9517,-4.806,-4.7853,-4.7171,-4.5637,-4.5455,-4.5429,-4.5485,-4.5495,-4.5522,-4.5594,-4.5594,-4.5594,-4.5594,-4.5381,-4.6065,-4.7603,-4.7455,-4.8276,-4.8343,-4.8306,-4.8325,-4.8306,-4.8306,-4.8306,-4.8306,-4.8306,0.0,0.0,0.0,-4.8306,-4.8306,-4.8306,-4.8306,-4.8306,0.0,0.0,0.0,0.0,-4.9904,0.0,0.0,0.0,0.0,0.0,0.0,0.0,0.0,-5.3558,-5.3675,-5.3774,-5.3813,-5.3813,-5.3813,-5.3813,-5.3813,-5.3813,-5.3813,-5.3813,-5.3813,-5.3813,-5.3813,-5.3813,-5.3813,-5.3813,-5.3813,0.0,-5.3813,-5.3813,-5.3813,-5.3813,-5.3813,-5.3999,-5.433,-5.4685,-5.5009,-5.5339,-5.5618,-5.5756,-5.5826,-5.5962,-5.5999,-5.5998,-5.5995,-5.6012,-5.5973,-5.5838,-5.5316,-5.4561,-5.3536,-5.251,-5.1537,-5.0729,-5.0306,-5.0032,-4.9795,-4.9615,-4.9509,-4.9509,-4.9509,-4.9509,-4.9509,-4.9509,-4.9509,-4.9509,-4.9509,-4.9524,-4.9521,-4.9638,-4.9764,-4.9925,-5.0044,-4.9708,-4.8705,-4.8113,-4.7379,-4.6377,-4.5741,-4.5409,-4.5419,-4.5476,-4.5522,-4.5594,-4.5594,-4.5594,-4.5594,-4.5559,-4.606,-4.705,-4.7665,-4.8538,-4.8344,-4.8363,-4.8382,-4.8306,-4.8306,-4.8306,-4.8306,0.0,0.0,0.0,0.0,-4.8306,-4.8306,0.0,0.0,0.0,0.0,0.0,0.0,0.0,0.0,0.0,0.0,0.0,0.0,0.0,0.0,0.0,0.0,-5.3519,-5.3598,-5.3716,-5.3813,-5.3813,-5.3813,-5.3813,-5.3813,-5.3813,-5.3813,-5.3813,-5.3813,-5.3813,-5.3813,-5.3813,-5.3813,-5.3813,-5.3813,0.0,-5.3813,-5.3813,-5.3813,-5.3813,-5.3813,-5.4107,-5.4576,-5.4746,-5.5105,-5.5539,-5.5671,-5.5724,-5.5766,-5.5856,-5.5933,-5.6008,-5.5995,-5.6012,-5.6012,-5.6012,-5.5412,-5.46,-5.373,-5.2654,-5.1597,-5.0779,-5.0286,-4.9974,-4.983,-4.964,-4.9509,-4.9509,-4.9509,-4.9509,-4.9509,-4.9509,-4.9509,-4.9509,-4.9509,-4.9509,-4.9509,-4.9551,-4.9653,-4.9774,-4.9912,-4.967,-4.8877,-4.8197,-4.7425,-4.6557,-4.5787,-4.536,-4.54,-4.5429,-4.5495,-4.5594,-4.5594,-4.5594,-4.5594,-4.5594,-4.6277,-4.7593,-4.7978,-4.8899,-4.8437,-4.8401,-4.8438,-4.8343,-4.8306,-4.8306,-4.8306,-4.8306,0.0,0.0,-4.8306,-4.8306,-4.8306,0.0,-4.8306,0.0,0.0,0.0,0.0,0.0,0.0,0.0,0.0,0.0,0.0,0.0,0.0,0.0,0.0,0.0,-5.3561,-5.3698,-5.3813,-5.3813,-5.3813,-5.3813,-5.3813,-5.3813,-5.3813,-5.3813,-5.3813,-5.3813,-5.3813,-5.3813,-5.3813,-5.3813,-5.3813,0.0,0.0,-5.3813,-5.3813,-5.3813,-5.3889,-5.4281,-5.4806,-5.488,-5.5237,-5.5703,-5.5703,-5.5703,-5.5714,-5.5776,-5.5876,-5.599,-5.5996,-5.6003,-5.5973,-5.5799,-5.5296,-5.4561,-5.3498,-5.2564,-5.1674,-5.0865,-5.032,-4.9968,-4.9968,-4.9764,-4.9559,-4.9559,-4.9536,-4.9509,-4.9509,-4.9509,-4.9509,-4.9509,-4.9509,-4.9509,-4.9509,-4.9509,-4.9536,-4.9653,-4.9792,-4.9627,-4.9074,-4.8257,-4.7479,-4.6814,-4.5851,-4.5329,-4.54,-4.541,-4.5457,-4.5577,-4.5577,-4.5586,-4.5594,-4.5787,-4.667,-4.8188,-4.8361,-4.9339,-4.8678,-4.8401,-4.8306,-4.8306,-4.8306,-4.8306,-4.8306,0.0,0.0,-4.8306,-4.8306,-4.8306,-4.8306,-4.8306,-4.8306,0.0,0.0,0.0,0.0,0.0,0.0,0.0,0.0,0.0,0.0,0.0,0.0,0.0,0.0,0.0,-5.3756,-5.3793,-5.3813,-5.3813,-5.3813,-5.3813,-5.3813,-5.3813,-5.3813,-5.3813,-5.3813,-5.3813,-5.3813,-5.3813,-5.3813,-5.3813,-5.3813,0.0,0.0,-5.3813,-5.3813,-5.3832,-5.4143,-5.4479,-5.4836,-5.5138,-5.5437,-5.5703,-5.5703,-5.5703,-5.5714,-5.5776,-5.5846,-5.5914,-5.599,-5.5996,-5.5857,-5.5122,-5.4851,-5.4426,-5.2743,-5.2232,-5.1945,-5.1075,-5.069,-5.0537,-5.0537,-5.0135,-4.9762,-4.9762,-4.9611,-4.9509,-4.9509,-4.9509,-4.9509,-4.9509,-4.9509,-4.9509,-4.9509,-4.9509,-4.949,-4.9505,-4.9638,-4.9741,-4.9779,-4.8466,-4.7636,-4.7674,-4.6175,-4.5328,-4.5389,-4.5389,-4.5419,-4.5504,-4.5504,-4.555,-4.5594,-4.6394,-4.724,-4.8134,-4.8923,-4.9844,-4.9304,-4.8768,-4.8306,-4.8306,-4.8306,-4.8306,-4.8306,0.0,0.0,-4.8306,-4.8306,-4.8306,-4.8306,-4.8306,-4.8306,0.0,0.0,0.0,0.0,0.0,0.0,0.0,0.0,0.0,0.0,0.0,0.0,0.0,0.0,0.0,-5.3793,-5.3813,-5.3813,-5.3813,-5.3813,-5.3813,-5.3813,-5.3813,-5.3813,-5.3813,-5.3813,-5.3813,-5.3813,-5.3813,-5.3813,-5.3813,-5.3813,0.0,0.0,-5.3813,-5.3907,-5.4125,-5.4246,-5.4639,-5.5124,-5.5262,-5.5461,-5.5703,-5.5703,-5.5376,-5.4983,-5.5004,-5.4699,-5.4448,-5.5034,-5.5253,-5.5103,-5.4252,-5.3633,-5.3072,-5.2384,-5.1815,-5.1331,-5.0975,-5.0745,-5.0587,-5.0587,-5.0309,-5.0031,-5.0031,-4.9849,-4.9679,-4.9679,-4.9589,-4.9509,-4.9509,-4.9509,-4.9509,-4.9509,-4.9509,-4.9509,-4.9509,-4.9623,-4.9721,-4.9792,-4.8441,-4.7619,-4.7686,-4.6181,-4.5328,-4.5398,-4.5408,-4.54,-4.5438,-4.5485,-4.5513,-4.555,-4.6453,-4.7335,-4.817,-4.9056,-4.994,-4.9765,-4.9045,-4.8363,-4.8306,-4.8306,-4.8306,0.0,0.0,-4.8306,-4.8306,-4.8306,-4.8306,-4.8306,-4.8306,-4.8306,0.0,0.0,0.0,0.0,0.0,0.0,0.0,0.0,0.0,0.0,0.0,0.0,0.0,0.0,0.0,-5.3793,-5.3813,-5.3813,-5.3813,-5.3813,-5.3813,-5.3813,-5.3813,-5.3813,-5.3813,-5.3813,-5.3813,-5.3813,-5.3813,-5.3813,-5.3813,0.0,0.0,0.0,-5.3813,-5.4,-5.4315,-5.4397,-5.4746,-5.5164,-5.5351,-5.5331,-5.5212,-5.5316,-5.4799,-5.4126,-5.4126,-5.3764,-5.3387,-5.38,-5.4162,-5.4233,-5.3362,-5.2492,-5.1815,-5.1815,-5.137,-5.0898,-5.0898,-5.0789,-5.07,-5.07,-5.0488,-5.0309,-5.0309,-5.0031,-4.9803,-4.9803,-4.9625,-4.9509,-4.9509,-4.9509,-4.9509,-4.9509,-4.9509,-4.9509,-4.9509,-4.9578,-4.9667,-4.9692,-4.8342,-4.7529,-4.7584,-4.6115,-4.5286,-4.5378,-4.5359,-4.5389,-4.54,-4.5448,-4.5485,-4.5504,-4.6674,-4.7566,-4.8198,-4.9335,-5.0181,-4.993,-4.912,-4.8457,-4.8325,-4.8306,-4.8306,0.0,0.0,-4.8306,-4.8306,-4.8306,-4.8306,-4.8306,-4.8306,-4.8306,-4.8306,0.0,0.0,0.0,0.0,0.0,0.0,0.0,0.0,0.0,0.0,0.0,0.0,0.0,0.0,-5.3793,-5.3813,-5.3813,-5.3813,-5.3813,-5.3813,-5.3813,-5.3813,-5.3813,-5.3813,-5.3813,-5.3813,-5.3813,-5.3813,-5.3813,0.0,0.0,0.0,0.0,-5.3813,-5.4,-5.433,-5.467,-5.4791,-5.488,-5.5485,-5.4983,-5.4065,-5.4397,-5.3933,-5.3222,-5.3222,-5.3253,-5.3155,-5.2374,-5.2784,-5.3323,-5.2461,-5.1583,-5.0917,-5.0917,-5.0917,-5.0898,-5.0898,-5.0898,-5.0898,-5.0898,-5.0745,-5.0606,-5.0606,-5.0164,-4.9803,-4.9803,-4.9625,-4.9509,-4.9509,-4.9509,-4.9509,-4.9509,-4.9509,-4.9509,-4.9509,-4.949,-4.9551,-4.9678,-4.8164,-4.7324,-4.7571,-4.6035,-4.5159,-4.5297,-4.5307,-4.5328,-4.5408,-4.54,-4.5429,-4.5504,-4.7232,-4.8086,-4.8144,-4.9875,-5.0693,-5.0721,-4.991,-4.9097,-4.8453,-4.8306,-4.8306,-4.8306,-4.8306,-4.8306,-4.8306,-4.8306,-4.8306,-4.8306,-4.8306,-4.8306,-4.8306,0.0,0.0,0.0,0.0,0.0,0.0,0.0,0.0,0.0,0.0,0.0,0.0,0.0,0.0,-5.3793,-5.3813,-5.3813,-5.3813,-5.3813,-5.3813,-5.3813,-5.3813,-5.3813,-5.3813,-5.3813,-5.3813,-5.3813,-5.3813,0.0,0.0,0.0,0.0,0.0,-5.4035,-5.433,-5.4654,-5.4761,-5.4708,-5.4582,-5.4551,-5.4074,-5.3462,-5.3575,-5.3049,-5.2308,-5.2308,-5.1982,-5.1534,-5.1294,-5.1865,-5.2434,-5.1563,-5.1111,-5.0898,-5.0898,-5.0898,-5.0898,-5.0898,-5.0898,-5.0898,-5.0898,-5.0858,-5.0797,-5.0797,-5.0417,-5.0068,-5.0068,-4.975,-4.9509,-4.9509,-4.9509,-4.9509,-4.9509,-4.9509,-4.9509,-4.9509,-4.9509,-4.928,-4.872,-4.7773,-4.6984,-4.6467,-4.5599,-4.5125,-4.5159,-4.5246,-4.5307,-4.5328,-4.5379,-4.5419,-4.5438,-4.6628,-4.7511,-4.8105,-4.8663,-4.8913,0.0,-5.0478,-4.9502,-4.8931,-4.8545,0.0,0.0,-4.8306,-4.8306,-4.8306,-4.8306,-4.8306,-4.8306,-4.8306,-4.8306,-4.8306,0.0,0.0,0.0,0.0,0.0,0.0,0.0,0.0,0.0,0.0,0.0,0.0,0.0,0.0,-5.2902,-5.3181,-5.3348,-5.3348,-5.3645,-5.3813,-5.3813,-5.3813,-5.3813,-5.3813,-5.3813,-5.3813,-5.3813,-5.3813,0.0,0.0,0.0,0.0,0.0,-5.4072,-5.438,-5.4773,-5.4329,-5.414,-5.4075,-5.3689,-5.313,-5.2576,-5.2672,-5.2164,-5.1452,-5.1453,-5.1163,-5.0846,-5.0846,-5.1255,-5.1602,-5.1053,-5.0898,-5.0898,-5.0898,-5.0898,-5.0898,-5.0898,-5.0898,-5.0898,-5.0898,-5.0898,-5.0898,-5.0898,-5.0596,-5.0342,-5.0342,-4.9929,-4.9615,-4.9615,-4.9548,-4.9509,-4.9509,-4.9509,-4.9509,-4.9509,-4.9509,-4.902,-4.7856,-4.7362,-4.6774,-4.5957,-4.53,-4.4991,-4.5103,-4.5181,-4.5254,-4.5297,-4.5378,-4.5408,-4.5408,-4.635,-4.7242,-4.8105,-4.8105,-4.8105,0.0,0.0,0.0,0.0,0.0,0.0,0.0,-4.8306,0.0,-4.8306,-4.8306,-4.8306,-4.8306,-4.8306,-4.8324,-4.8379,0.0,0.0,0.0,0.0,0.0,0.0,0.0,0.0,0.0,0.0,0.0,0.0,0.0,0.0,-5.1398,-5.2104,-5.2531,-5.2549,-5.3274,-5.3702,-5.3813,-5.3813,-5.3813,-5.3832,-5.3832,-5.3851,-5.387,-5.387,0.0,0.0,0.0,0.0,0.0,-5.3925,-5.4135,-5.4576,-5.3483,-5.3167,-5.331,-5.2883,-5.2167,-5.1484,-5.1736,-5.1337,-5.0702,-5.0711,-5.0784,-5.0899,-5.0899,-5.0893,-5.0898,-5.0898,-5.0898,-5.0898,-5.0898,-5.0898,-5.0898,-5.0898,-5.0898,-5.0898,-5.0898,-5.0898,-5.0898,-5.0898,-5.0745,-5.0587,-5.0587,-5.0164,-4.9811,-4.9784,-4.964,-4.9521,-4.949,-4.9509,-4.9509,-4.9509,-4.9509,-4.8814,-4.7143,-4.7012,-4.6656,-4.5854,-4.5114,-4.4808,-4.5068,-4.5091,-4.5159,-4.5286,-4.5367,-4.5398,-4.5408,-4.6282,-4.7127,-4.7923,-4.7923,-4.7923,-5.2968,0.0,-5.0401,-4.9757,-4.893,-4.8306,0.0,-4.8306,-4.8306,-4.8306,0.0,0.0,-4.8306,0.0,0.0,0.0,0.0,0.0,0.0,0.0,0.0,0.0,0.0,0.0,0.0,0.0,0.0,0.0,0.0,-5.1398,-5.1398,-5.1584,-5.1785,-5.1971,-5.2158,-5.2766,-5.3794,-5.3813,-5.3926,-5.4177,-5.4177,-5.4332,-5.456,-5.456,0.0,0.0,0.0,0.0,-5.4259,-5.3817,-5.3604,-5.343,-5.2753,-5.2275,-5.1954,-5.1851,-5.1419,-5.0901,-5.0952,-5.0856,-5.0702,-5.0757,-5.0793,-5.0827,-5.0885,-5.089,-5.0898,-5.0898,-5.0898,-5.0898,-5.0898,-5.0898,-5.0898,-5.0898,-5.0898,-5.0898,-5.0898,-5.0898,-5.0898,-5.0898,-5.0745,-5.0587,-5.0587,-5.032,-5.005,-4.9844,-4.9768,-4.9679,-4.9521,-4.9509,-4.9509,-4.9509,-4.9509,-4.8814,-4.7143,-4.7012,-4.6388,-4.4913,-4.474,-4.4738,-4.4783,-4.4979,-4.5114,-4.5148,-4.5256,-4.5348,-4.5408,-4.5619,-4.5851,-4.6108,-4.6108,-4.6136,-5.3093,-5.2289,-5.1242,-5.0822,-5.0068,-4.9462,-4.9462,0.0,0.0,0.0,0.0,0.0,0.0,0.0,0.0,0.0,0.0,0.0,0.0,0.0,0.0,0.0,0.0,0.0,0.0,0.0,0.0,0.0,0.0,-5.0681,-5.0681,-5.1019,-5.1271,-5.1424,-5.1782,-5.2328,-5.3067,-5.3067,-5.3355,-5.3924,-5.3531,-5.3644,-5.4185,-5.3787,-5.3528,0.0,0.0,0.0,-5.3186,-5.2768,-5.2642,-5.2639,-5.1839,-5.1508,-5.1455,-5.1042,-5.0812,-5.0712,-5.0712,-5.0702,-5.0712,-5.0748,-5.0793,-5.0855,-5.0897,-5.0901,-5.0898,-5.0898,-5.0898,-5.0898,-5.0898,-5.0898,-5.0898,-5.0898,-5.0898,-5.0898,-5.0898,-5.0898,-5.0898,-5.0898,-5.0805,-5.0745,-5.0745,-5.0538,-5.0331,-5.0176,-5.0056,-4.9897,-4.9683,-4.964,-4.96,-4.9505,-4.9133,-4.8382,-4.7124,-4.6636,-4.5866,-4.4576,-4.4565,-4.4632,-4.4699,-4.4833,-4.4967,-4.5103,-4.5224,-4.5328,-4.5408,-4.5408,-4.5429,-4.5448,-4.5485,-4.5513,-5.2839,-5.2601,-5.2162,-5.2034,-5.1389,-5.0802,-5.0804,0.0,0.0,0.0,0.0,0.0,0.0,0.0,0.0,0.0,0.0,0.0,0.0,0.0,0.0,0.0,0.0,0.0,0.0,0.0,0.0,0.0,0.0,-4.9803,-4.9803,-5.0453,-5.0827,-5.0868,-5.1551,-5.1925,-5.1966,-5.2115,-5.2594,-5.3367,-5.2632,-5.2684,-5.3437,-5.2702,-5.2224,0.0,0.0,0.0,-5.198,-5.1578,-5.1681,-5.2006,-5.096,-5.0856,-5.1214,-5.0528,-5.0472,-5.0712,-5.0712,-5.0693,-5.0711,-5.0692,-5.0784,-5.0891,-5.0899,-5.0905,-5.0898,-5.0898,-5.0898,-5.0898,-5.0898,-5.0898,-5.0898,-5.0898,-5.0898,-5.0898,-5.0898,-5.0898,-5.0898,-5.0898,-5.0898,-5.0898,-5.0898,-5.0763,-5.0644,-5.0596,-5.0415,-5.0152,-4.991,-4.9851,-4.9795,-4.9619,-4.8807,-4.7931,-4.7122,-4.6214,-4.5359,-4.4538,-4.4501,-4.4551,-4.468,-4.4712,-4.484,-4.5084,-4.5203,-4.5307,-4.5369,-4.5369,-4.538,-4.539,-4.5457,-4.5485,-5.2142,-5.2626,-5.2927,-5.2162,-5.1389,-5.0804,-5.0867,0.0,0.0,0.0,0.0,0.0,0.0,0.0,0.0,0.0,0.0,0.0,0.0,0.0,0.0,0.0,0.0,0.0,0.0,0.0,0.0,0.0,0.0,-4.9803,-4.9803,-4.9917,-5.0081,-5.0326,-5.0441,-5.0642,-5.0928,-5.1782,-5.2422,-5.2813,-5.2679,-5.2841,-5.3251,-5.3116,-5.3018,0.0,0.0,-5.282,-5.2514,-5.1802,-5.1361,-5.113,-5.0514,-5.0314,-5.0421,-5.0572,-5.0663,-5.0712,-5.0712,-5.0693,-5.0702,-5.0702,-5.0738,-5.0838,-5.0872,-5.0905,-5.0898,-5.0898,-5.0898,-5.0898,-5.0898,-5.0898,-5.0898,-5.0898,-5.0898,-5.0898,-5.0898,-5.0898,-5.0898,-5.0898,-5.0898,-5.0898,-5.0898,-5.0882,-5.0797,-5.0635,-5.0557,-5.0436,-5.0171,-5.0147,-5.0123,-5.0106,-4.9162,-4.8215,-4.7414,-4.6322,-4.5359,-4.4538,-4.4501,-4.4551,-4.468,-4.4712,-4.484,-4.5084,-4.5125,-4.5192,-4.5317,-4.5317,-4.5348,-4.5399,-4.5409,-4.5458,-5.1756,-5.2293,-5.2608,-5.264,-5.2445,-5.2252,-5.2213,0.0,0.0,0.0,0.0,0.0,0.0,0.0,0.0,0.0,0.0,0.0,0.0,0.0,0.0,0.0,0.0,0.0,0.0,0.0,0.0,0.0,0.0,0.0,-5.0279,-5.0279,-5.0336,-5.0472,-5.0472,-5.0544,-5.0712,-5.1154,-5.1691,-5.2264,-5.1823,-5.1926,-5.2481,-5.2049,-5.1757,-5.1582,0.0,-5.1407,-5.1103,-5.0723,-5.0583,-5.0539,-5.03,-5.0306,-5.0493,-5.0634,-5.0712,-5.0712,-5.0712,-5.0712,-5.0702,-5.0739,-5.0784,-5.081,-5.0877,-5.0901,-5.0898,-5.0898,-5.0898,-5.0898,-5.0898,-5.0898,-5.0898,-5.0898,-5.0898,-5.0898,-5.0898,-5.0898,-5.0898,-5.0898,-5.0898,-5.0898,-5.0898,-5.0898,-5.0874,-5.0771,-5.0763,-5.0672,-5.0446,-5.0286,-5.0147,-4.9993,-4.8632,-4.7584,-4.7221,-4.5876,-4.4876,-4.4519,-4.4501,-4.4528,-4.4592,-4.4659,-4.4764,-4.487,-4.4962,-4.5068,-4.5192,-4.5192,-4.5254,-4.5338,-4.5369,-4.5409,-5.1116,-5.1722,-5.2128,-5.2546,0.0,-5.3418,-5.3359,0.0,0.0,0.0,0.0,0.0,0.0,0.0,0.0,0.0,0.0,0.0,0.0,0.0,0.0,0.0,0.0,0.0,0.0,0.0,0.0,0.0,0.0,0.0,-5.0712,-5.0712,-5.0712,-5.0712,-5.0712,-5.0712,-5.0712,-5.0712,-5.101,-5.1606,-5.0991,-5.101,-5.1606,-5.0971,-5.0554,-5.0325,-5.0325,-5.0202,-5.0,-5.0,-5.0123,-5.0325,-5.0325,-5.0464,-5.0712,-5.0712,-5.0693,-5.0702,-5.0702,-5.0712,-5.074,-5.0775,-5.081,-5.0866,-5.1117,-5.118,-5.1254,-5.1439,-5.1497,-5.1401,-5.1014,-5.0898,-5.0898,-5.0898,-5.0898,-5.0898,-5.0898,-5.0898,-5.0898,-5.0898,-5.0898,-5.0898,-5.0898,-5.0898,-5.0898,-5.0898,-5.0898,-5.083,-5.07,-5.0498,-5.0278,-5.0073,-4.8377,-4.7068,-4.6622,-4.5402,-4.4648,-4.4648,-4.4565,-4.4501,-4.4501,-4.4592,-4.4672,-4.4712,-4.4796,-4.4919,-4.5038,-4.5072,-4.5159,-4.5265,-4.5338,-4.5369,-4.9739,-5.0901,-5.1917,-5.1153,-5.2105,0.0,-5.3439,-5.3499,0.0,0.0,0.0,0.0,0.0,0.0,0.0,0.0,0.0,0.0,0.0,0.0,0.0,0.0,0.0,0.0,0.0,0.0,0.0,0.0,0.0,0.0,-5.0712,-5.0712,-5.0712,-5.0712,-5.0712,-5.0712,-5.0712,-5.0712,-5.0731,-5.0789,-5.0731,-5.0731,-5.0789,-5.0731,-5.0683,-5.0663,-5.0663,-5.0653,-5.0643,-5.0643,-5.0653,-5.0663,-5.0663,-5.0673,-5.0712,-5.0712,-5.0693,-5.0692,-5.0692,-5.0748,-5.0793,-5.0801,-5.0846,-5.1035,-5.1788,-5.2053,-5.2279,-5.3091,-5.3304,-5.2937,-5.1323,-5.0898,-5.0898,-5.0898,-5.0898,-5.0898,-5.0898,-5.0898,-5.0898,-5.0898,-5.0898,-5.0898,-5.0898,-5.0898,-5.0898,-5.0898,-5.0898,-5.0898,-5.0882,-5.0855,-5.0839,-5.083,-4.9151,-4.728,-4.5475,-4.5224,-4.5148,-4.5148,-4.4751,-4.4501,-4.4501,-4.4515,-4.4565,-4.4699,-4.4712,-4.477,-4.4907,-4.5045,-4.5095,-4.5125,-4.5254,-4.5338,-4.7921,-4.8698,-4.9379,-4.951,-5.021,0.0,0.0,-5.2361,0.0,0.0,0.0,0.0,0.0,0.0,0.0,0.0,0.0,0.0,0.0,0.0,0.0,0.0,0.0,0.0,0.0,0.0,0.0,0.0,0.0,0.0,0.0,-5.2241,-5.201,-5.1471,-5.1452,-5.1202,-5.0712,-5.0712,-5.0712,-5.0712,-5.0712,-5.0712,-5.0712,-5.0712,-5.0712,-5.0712,-5.0712,-5.0712,-5.0712,-5.0712,-5.0712,-5.075,-5.1241,-5.1452,-5.151,-5.2049,-5.2251,-5.2251,-5.231,-5.2338,-5.2366,-5.2401,-5.2428,-5.2531,-5.2865,-5.2987,-5.3072,-5.3401,-5.3498,-5.3343,-5.2685,-5.2511,-5.2511,-5.2511,-5.2105,-5.1718,-5.1718,-5.1273,-5.0898,-5.0898,-5.0898,-5.0898,-5.0898,-5.0898,-5.0898,-5.0898,-5.0898,-5.0898,-5.0898,-5.0789,-5.0506,-4.9967,-4.8193,-4.6527,-4.5307,-4.5201,-4.5201,-4.5201,-4.5038,-4.4953,-4.4953,-4.4953,-4.4957,-4.5023,-4.5023,-4.5079,-4.5218,-4.526,-4.5331,-4.541,-4.5456,-4.5512,-4.6726,-4.7286,-4.7783,0.0,0.0,0.0,-5.0025,0.0,0.0,0.0,0.0,0.0,0.0,0.0,0.0,0.0,0.0,0.0,0.0,0.0,0.0,0.0,0.0,0.0,0.0,0.0,0.0,0.0,0.0,0.0,0.0,-5.3203,-5.2933,-5.2327,-5.2308,-5.2049,-5.1491,-5.1491,-5.1491,-5.1491,-5.1491,-5.1356,-5.1087,-5.1356,-5.1491,-5.1491,-5.1491,-5.1491,-5.1491,-5.1491,-5.1491,-5.1529,-5.2106,-5.2308,-5.2395,-5.3011,-5.3243,-5.3244,-5.3311,-5.334,-5.3367,-5.3411,-5.3428,-5.3494,-5.3818,-5.3904,-5.3962,-5.4213,-5.4291,-5.4291,-5.4291,-5.3904,-5.342,-5.3149,-5.2635,-5.2132,-5.1854,-5.1331,-5.0898,-5.0898,-5.0898,-5.0898,-5.0898,-5.0898,-5.0898,-5.0898,-5.0898,-5.0898,-5.0898,-5.078,-5.0257,-4.9139,-4.7587,-4.6292,-4.5457,-4.539,-4.539,-4.539,-4.539,-4.5323,-4.5211,-4.5201,-4.5201,-4.5201,-4.5201,-4.5243,-4.5332,-4.539,-4.5457,-4.5537,-4.558,-4.5621,-4.639,-4.7004,-4.7564,0.0,0.0,0.0,0.0,0.0,0.0,0.0,0.0,0.0,0.0,0.0,0.0,0.0,0.0,0.0,0.0,0.0,0.0,0.0,0.0,0.0,0.0,0.0,0.0,0.0,0.0,0.0,0.0,-5.3222,-5.3222,-5.3222,-5.3222,-5.3222,-5.3203,-5.3203,-5.3203,-5.3203,-5.3222,-5.276,-5.1942,-5.2818,-5.3203,-5.3203,-5.3203,-5.3203,-5.3203,-5.3203,-5.3203,-5.3203,-5.3222,-5.3222,-5.3222,-5.3301,-5.3321,-5.3329,-5.3393,-5.3475,-5.3517,-5.3517,-5.3517,-5.3691,-5.4542,-5.4813,-5.4987,-5.578,-5.6012,-5.6012,-5.5993,-5.4755,-5.3285,-5.2442,-5.221,-5.195,-5.1091,-5.0917,-5.0898,-5.0898,-5.0898,-5.0898,-5.0898,-5.0898,-5.0898,-5.0898,-5.0898,-5.0898,-5.0898,-5.0879,-5.0241,-4.8566,-4.7599,-4.6728,-4.5865,-4.5807,-4.5807,-4.5807,-4.5807,-4.5626,-4.5232,-4.5211,-4.5211,-4.5211,-4.5211,-4.5211,-4.5211,-4.5342,-4.541,-4.541,-4.5537,-4.5605,-4.466,-4.5118,0.0,0.0,0.0,0.0,0.0,0.0,0.0,0.0,0.0,0.0,0.0,0.0,0.0,0.0,0.0,0.0,0.0,0.0,0.0,0.0,0.0,0.0,0.0,0.0,0.0,0.0,0.0,0.0,0.0,-5.4953,-5.4703,-5.4126,-5.4107,-5.3818,-5.3222,-5.3203,-5.3203,-5.3222,-5.3818,-5.3664,-5.2818,-5.3087,-5.3203,-5.3203,-5.3203,-5.3203,-5.3203,-5.3203,-5.3203,-5.326,-5.3876,-5.4108,-5.4187,-5.4823,-5.5094,-5.5133,-5.5208,-5.5235,-5.5272,-5.5268,-5.5258,-5.5316,-5.5567,-5.5644,-5.5702,-5.5935,-5.6012,-5.5877,-5.5296,-5.4793,-5.4349,-5.4097,-5.3091,-5.2132,-5.1873,-5.1331,-5.0898,-5.0898,-5.0898,-5.0898,-5.0898,-5.0898,-5.0898,-5.0898,-5.0898,-5.0705,-5.0132,-4.9513,-4.872,-4.7599,-4.6709,-4.6078,-4.5826,-4.5807,-4.5807,-4.5807,-4.5807,-4.5745,-4.5626,-4.5626,-4.5626,-4.5626,-4.5626,-4.5626,-4.5626,-4.5669,-4.5712,-4.5742,-4.5798,-4.584,-4.436,0.0,0.0,0.0,0.0,0.0,0.0,0.0,0.0,0.0,0.0,0.0,0.0,0.0,0.0,0.0,0.0,0.0,0.0,0.0,0.0,0.0,0.0,0.0,0.0,0.0,0.0,0.0,0.0,0.0,0.0,-5.5703,-5.5472,-5.4991,-5.4972,-5.4722,-5.4203,-5.4184,-5.4184,-5.4203,-5.4722,-5.4703,-5.4184,-5.4184,-5.4184,-5.4184,-5.4184,-5.4184,-5.4184,-5.4184,-5.4184,-5.4241,-5.4761,-5.4995,-5.5084,-5.5643,-5.5885,-5.5953,-5.5989,-5.6007,-5.6007,-5.5995,-5.6012,-5.6012,-5.6012,-5.6012,-5.6012,-5.6012,-5.578,-5.5412,-5.4929,-5.4291,-5.3768,-5.3768,-5.2956,-5.2113,-5.1757,-5.1273,-5.0898,-5.0898,-5.0898,-5.0898,-5.0898,-5.0898,-5.0898,-5.0898,-5.0898,-5.0608,-4.9803,-4.8933,-4.8063,-4.7192,-4.6329,-4.5807,-4.5807,-4.5807,-4.5807,-4.5807,-4.5807,-4.5807,-4.5807,-4.5807,-4.5807,-4.5807,-4.5807,-4.5807,-4.5807,-4.5807,-4.5814,-4.586,-4.5893,-4.5925,0.0,0.0,0.0,0.0,0.0,0.0,0.0,0.0,0.0,0.0,0.0,0.0,0.0,0.0,0.0,0.0,0.0,0.0,0.0,0.0,0.0,0.0,0.0,0.0,0.0,0.0,0.0,0.0,0.0,0.0,0.0,-5.5703,-5.5703,-5.5703,-5.5703,-5.5703,-5.5703,-5.5703,-5.5703,0.0,-5.5703,-5.5703,-5.5703,-5.5703,-5.5703,-5.5703,-5.5703,-5.5703,-5.5703,-5.5703,-5.5695,-5.5714,-5.5714,-5.5756,-5.5826,-5.5895,-5.5962,-5.6008,-5.5995,-5.6012,-5.6012,-5.6012,-5.6012,-5.6012,-5.6012,-5.5954,-5.5896,-5.5896,-5.5316,-5.4658,-5.4581,-5.3382,-5.219,-5.2113,-5.2066,-5.1854,-5.1072,-5.0898,-5.0898,-5.0898,-5.0898,-5.0898,-5.0898,-5.0898,-5.0898,-5.0898,-5.084,-5.0492,-4.9687,-4.8817,-4.7947,-4.7076,-4.6271,-4.5807,-4.5807,-4.5807,-4.5807,-4.5807,-4.5807,-4.5807,-4.5807,-4.5807,-4.5807,-4.5807,-4.5807,-4.5807,-4.5807,-4.5807,-4.5807,-4.5807,-4.586,-4.5893,0.0,0.0,0.0,0.0,0.0,0.0,0.0,0.0,0.0,0.0,0.0,0.0,0.0,0.0,0.0,0.0,0.0,0.0,0.0,0.0,0.0,0.0,0.0,0.0,0.0,0.0,0.0,0.0,0.0,0.0,-5.5703,-5.5703,-5.5703,-5.5703,-5.5703,-5.5703,-5.5703,-5.5703,-5.5703,0.0,-5.5703,-5.5703,-5.5703,-5.5703,-5.5703,-5.5703,-5.5703,-5.5703,-5.5703,-5.5703,-5.5735,-5.5776,-5.5776,-5.5846,-5.5962,-5.5971,-5.5989,-5.5995,-5.6003,-5.6012,-5.6012,-5.6012,-5.6012,-5.6012,-5.6012,-5.5567,-5.5064,-5.5064,-5.4445,-5.3614,-5.2937,-5.248,-5.2028,-5.1351,-5.1169,-5.113,-5.0937,-5.0898,-5.0898,-5.0898,-5.0898,-5.0898,-5.0898,-5.0898,-5.0898,-5.0898,-5.0357,-4.9649,-4.8798,-4.7927,-4.7038,-4.6174,-4.5904,-4.5807,-4.5807,-4.5807,-4.5807,-4.5807,-4.5807,-4.5807,-4.5807,-4.5807,-4.5807,-4.5807,-4.5807,-4.5807,-4.5807,-4.5807,-4.5807,-4.5807,-4.5814,-4.5854,0.0,0.0,0.0,0.0,0.0,0.0,0.0,0.0,0.0,0.0,0.0,0.0,0.0,0.0,0.0,0.0,0.0,0.0,0.0,0.0,0.0,0.0,0.0,0.0,0.0,0.0,0.0,0.0,0.0,-5.4491,-5.4491,-5.4491,-5.4491,-5.4491,-5.4491,-5.4491,-5.4491,-5.4914,-5.5126,-5.5126,-5.5511,-5.5703,-5.5703,-5.5703,-5.5703,-5.5703,-5.5703,-5.5703,-5.5714,-5.5735,-5.5766,-5.5797,-5.5836,-5.5914,-5.5999,-5.5999,-5.6007,-5.6012,-5.6012,-5.6012,-5.6012,-5.6012,-5.5741,-5.5432,-5.5432,-5.4832,-5.4175,-5.4175,-5.3556,-5.2763,-5.2326,-5.1892,-5.1467,-5.1014,-5.0898,-5.0898,-5.0898,-5.0898,-5.0898,-5.0898,-5.0898,-5.0898,-5.0898,-5.0898,-5.0763,-5.0376,-4.9977,-4.9223,-4.7947,-4.7386,-4.6767,-4.5884,-4.5807,-4.5807,-4.5807,-4.5807,-4.5807,-4.5807,-4.5807,-4.5807,-4.5807,-4.5807,-4.5807,-4.5807,-4.5807,-4.5807,-4.5807,-4.5807,-4.5807,-4.5807,-4.5807,-4.5847,0.0,0.0,0.0,0.0,0.0,0.0,0.0,0.0,0.0,0.0,0.0,0.0,0.0,0.0,0.0,0.0,0.0,0.0,0.0,0.0,0.0,0.0,0.0,0.0,0.0,0.0,0.0,0.0,0.0,-5.3203,-5.3203,-5.3203,-5.3203,-5.3203,-5.3203,-5.3203,-5.3203,-5.3914,-5.428,-5.428,-5.4953,-5.5261,-5.5261,-5.5261,-5.5434,-5.5703,-5.5703,-5.5714,-5.5724,-5.5776,-5.5807,-5.5846,-5.5895,-5.5943,-5.6008,-5.6008,-5.5996,-5.5993,-5.5838,-5.5799,-5.578,-5.5625,-5.5122,-5.4581,-5.4581,-5.3962,-5.3285,-5.3285,-5.2647,-5.197,-5.197,-5.1447,-5.0898,-5.0898,-5.0898,-5.0898,-5.0898,-5.0898,-5.0898,-5.0898,-5.0898,-5.0898,-5.0898,-5.0782,-5.0473,-4.9803,-4.9436,-4.874,-4.7289,-4.696,-4.66,-4.5884,-4.5807,-4.5807,-4.5807,-4.5807,-4.5807,-4.5807,-4.5807,-4.5807,-4.5807,-4.5807,-4.5807,-4.5807,-4.5807,-4.5807,-4.5807,-4.5807,-4.5807,-4.5807,-4.5807,-4.5821,0.0,0.0,0.0,0.0,0.0,0.0,0.0,0.0,0.0,0.0,0.0,0.0,0.0,0.0,0.0,0.0,0.0,0.0,0.0,0.0,0.0,0.0,0.0,0.0,0.0,0.0,0.0,0.0,-5.3203,-5.3203,-5.3203,-5.3203,-5.3203,-5.3203,-5.3203,-5.3203,-5.3203,-5.3318,-5.3376,-5.3376,-5.3491,-5.353,-5.353,-5.353,-5.4337,-5.5703,-5.5703,-5.5735,-5.5787,-5.5806,-5.5866,-5.5981,-5.5981,-5.5998,-5.5995,-5.5995,-5.6003,-5.5896,-5.52,-5.4967,-5.4832,-5.4078,-5.3749,-5.3672,-5.3672,-5.3053,-5.2364,-5.2364,-5.1757,-5.1072,-5.1072,-5.0995,-5.0898,-5.0898,-5.0898,-5.0898,-5.0898,-5.0898,-5.0898,-5.0898,-5.0898,-5.0898,-5.0898,-5.0318,-4.9823,-4.9726,-4.8411,-4.7366,-4.7134,-4.6445,-4.5923,-4.5807,-4.5807,-4.5807,-4.5807,-4.5807,-4.5807,-4.5807,-4.5807,-4.5807,-4.5807,-4.5807,-4.5807,-4.5807,-4.5807,-4.5807,-4.5807,-4.5807,-4.5807,-4.5807,-4.5807,-4.5807,0.0,0.0,0.0,0.0,0.0,0.0,0.0,0.0,0.0,0.0,0.0,0.0,0.0,0.0,0.0,0.0,0.0,0.0,0.0,0.0,0.0,0.0,0.0,0.0,0.0,0.0,0.0,0.0,-5.1798,-5.1798,-5.1798,-5.1798,-5.1798,-5.1798,-5.1798,-5.1798,-5.1798,-5.226,-5.2712,-5.3203,-5.3203,-5.3203,-5.3203,-5.3203,-5.3606,-5.4299,-5.433,-5.436,-5.441,-5.4448,-5.4495,-5.455,-5.4577,-5.4602,-5.46,-5.46,-5.46,-5.4542,-5.4194,-5.4078,-5.4,-5.3614,-5.3169,-5.2763,-5.2763,-5.2163,-5.1467,-5.1467,-5.1196,-5.0898,-5.0898,-5.0898,-5.0898,-5.0898,-5.0898,-5.0898,-5.0898,-5.0898,-5.0898,-5.0898,-5.0898,-5.0763,-5.0299,-4.9939,-4.9378,-4.8392,-4.7579,-4.6922,-4.6426,-4.6039,-4.5807,-4.5807,-4.5807,-4.5807,-4.5807,-4.5807,-4.5807,-4.5807,-4.5807,-4.5814,-4.5854,-4.5814,-4.5814,-4.5854,-4.5814,-4.5807,-4.5807,-4.5807,-4.5807,-4.5807,-4.5807,-4.5807,0.0,0.0,0.0,0.0,0.0,0.0,0.0,0.0,0.0,0.0,0.0,0.0,0.0,0.0,0.0,0.0,0.0,0.0,0.0,0.0,0.0,0.0,0.0,0.0,0.0,0.0,0.0,0.0,-5.0712,-5.0712,-5.0712,-5.0712,-5.0712,-5.0712,-5.0712,-5.0712,-5.0712,-5.1298,-5.1914,-5.2568,-5.2568,-5.2568,-5.2568,-5.2559,-5.2569,-5.2588,-5.309,-5.3321,-5.333,-5.3384,-5.3419,-5.3428,-5.3489,-5.3498,-5.3498,-5.3498,-5.3498,-5.3459,-5.3246,-5.3169,-5.3091,-5.2666,-5.2086,-5.1525,-5.1293,-5.077,-5.026,-5.026,-5.026,-5.026,-5.026,-5.0434,-5.0589,-5.0589,-5.0743,-5.0898,-5.0898,-5.0898,-5.0898,-5.0898,-5.0724,-5.0395,-4.9803,-4.9339,-4.8604,-4.7289,-4.6902,-4.6542,-4.5884,-4.5807,-4.5807,-4.5807,-4.5807,-4.5807,-4.5807,-4.5814,-4.5814,-4.5807,-4.5821,-4.5841,-4.59,-4.5841,-4.5848,-4.5893,-4.5861,-4.5848,-4.584,-4.5827,-4.5835,-4.5848,-4.5848,-4.5866,0.0,0.0,0.0,0.0,0.0,0.0,0.0,0.0,0.0,0.0,0.0,0.0,0.0,0.0,0.0,0.0,0.0,0.0,0.0,0.0,0.0,0.0,0.0,0.0,0.0,0.0,0.0,0.0,-5.0712,-5.0712,-5.0712,-5.0712,-5.0712,-5.0712,-5.0712,-5.0712,-5.0712,-5.075,-5.0789,-5.0827,-5.0827,-5.0827,-5.0827,-5.0827,-5.0827,-5.0923,-5.2589,-5.334,-5.3402,-5.3402,-5.3436,-5.3498,-5.3498,-5.3498,-5.3498,-5.3498,-5.3498,-5.3382,-5.2558,-5.2268,-5.2016,-5.0403,-4.9881,-4.9687,-4.8856,-4.8566,-4.8527,-4.8527,-4.8527,-4.8527,-4.8527,-4.9146,-4.9765,-4.9765,-5.0337,-5.0898,-5.0898,-5.0898,-5.0898,-5.0898,-5.0279,-4.9745,-4.9707,-4.8333,-4.7192,-4.7115,-4.6406,-4.5845,-4.5807,-4.5807,-4.5807,-4.5807,-4.5807,-4.5807,-4.5807,-4.5854,-4.586,-4.5807,-4.5867,-4.5893,-4.59,-4.5906,-4.5905,-4.5905,-4.5959,-4.5968,-4.5893,-4.5886,-4.5925,-4.5987,-4.5987,-4.6014,0.0,0.0,0.0,0.0,0.0,0.0,0.0,0.0,0.0,0.0,0.0,0.0,0.0,0.0,0.0,0.0,0.0,0.0,0.0,0.0,0.0,0.0,0.0,0.0,0.0,0.0,0.0,0.0,0.0,-4.9875,-4.9875,-5.0404,-5.0712,-5.0712,-5.0712,-5.0712,-5.0712,-5.0712,-5.0712,-5.0712,-5.0702,-5.0692,-5.0692,-5.0748,-5.0784,-5.0849,-5.1485,-5.1773,-5.1807,-5.1794,-5.1818,-5.1834,-5.1834,-5.1834,-5.1834,-5.1834,-5.1834,-5.1796,-5.1467,-5.137,-5.1273,-5.0666,-5.0473,-5.0318,-4.9494,-4.9223,-4.9126,-4.8566,-4.8392,-4.8392,-4.8392,-4.8624,-4.8875,-4.8875,-4.9088,-4.9301,-4.9301,-4.9301,-4.9301,-4.9301,-4.9068,-4.8682,-4.8121,-4.7502,-4.6902,-4.6348,-4.6,-4.5807,-4.5807,-4.5807,-4.5807,-4.5807,-4.5847,-4.586,-4.586,-4.5893,-4.5904,-4.5933,-4.5954,-4.5978,-4.6022,-4.6037,-4.6022,-4.6036,-4.604,-4.6029,-4.5968,-4.6005,-4.6029,-4.6057,-4.6057,-4.6089,0.0,0.0,0.0,0.0,0.0,0.0,0.0,0.0,0.0,0.0,0.0,0.0,0.0,0.0,0.0,0.0,0.0,0.0,0.0,0.0,0.0,0.0,0.0,0.0,0.0,0.0,0.0,0.0,0.0,0.0,-4.8952,-4.951,-4.9846,-4.9891,-5.0222,-5.0392,-5.0392,-5.0662,-5.0795,-5.0811,-5.0797,-5.0813,-5.0848,-5.0874,-5.093,-5.097,-5.0997,-5.0966,-5.0905,-5.0909,-5.0898,-5.0898,-5.0898,-5.0898,-5.0898,-5.0898,-5.0898,-5.0898,-5.0898,-5.0898,-5.0859,-5.0569,-5.0492,-5.0337,-4.9513,-4.9068,-4.8701,-4.8121,-4.7753,-4.7521,-4.7521,-4.7734,-4.8043,-4.8333,-4.8179,-4.7966,-4.7966,-4.8198,-4.8392,-4.8392,-4.8159,-4.7773,-4.7192,-4.6864,-4.6464,-4.5884,-4.5807,-4.5807,-4.5807,-4.5814,-4.5841,-4.5867,-4.5904,-4.5939,-4.5977,-4.5969,-4.5987,-4.6037,-4.6056,-4.6086,-4.6108,-4.6126,-4.6126,-4.6134,-4.6128,-4.6119,-4.6075,-4.6114,-4.613,-4.6124,-4.6124,-4.6149,0.0,0.0,0.0,0.0,0.0,0.0,0.0,0.0,0.0,0.0,0.0,0.0,0.0,0.0,0.0,0.0,0.0,0.0,0.0,0.0,0.0,0.0,0.0,0.0,0.0,0.0,0.0,0.0,-4.8048,-4.8067,-4.8067,-4.8095,-4.8176,-4.8292,-4.924,-4.9759,-4.9759,-5.0536,-5.0922,-5.0936,-5.0956,-5.0991,-5.1055,-5.1083,-5.1096,-5.1116,-5.1176,-5.1092,-5.0914,-5.0914,-5.0914,-5.0914,-5.0914,-5.0914,-5.0914,-5.0906,-5.0906,-5.0906,-5.0898,-5.0898,-5.0763,-4.9997,-4.9745,-4.9571,-4.8701,-4.785,-4.7173,-4.7154,-4.6523,-4.5826,-4.5807,-4.6426,-4.727,-4.8121,-4.7676,-4.7057,-4.7057,-4.7734,-4.8314,-4.8314,-4.7637,-4.7057,-4.7057,-4.6368,-4.5807,-4.5814,-4.5814,-4.5814,-4.5821,-4.5874,-4.5923,-4.5998,-4.6007,-4.6037,-4.6086,-4.6101,-4.6106,-4.6094,-4.6154,-4.6161,-4.6115,-4.6161,-4.6206,-4.6206,-4.6208,-4.6191,-4.6191,-4.62,-4.6201,-4.6191,-4.6191,-4.6248,-4.5524,0.0,0.0,0.0,0.0,0.0,0.0,0.0,0.0,0.0,0.0,0.0,0.0,0.0,0.0,0.0,0.0,0.0,0.0,0.0,0.0,0.0,0.0,0.0,0.0,0.0,0.0,0.0,-4.6874,-4.7255,-4.7302,-4.7995,-4.8365,-4.8299,-4.8651,-4.8866,-4.8863,-4.9077,-4.919,-4.9197,-4.9829,-5.0135,-5.0183,-5.0852,-5.1176,-5.1176,-5.1199,-5.1174,-5.1123,-5.1123,-5.1123,-5.1123,-5.1123,-5.1123,-5.1113,-5.1062,-5.105,-5.103,-5.0925,-5.0898,-5.0859,-5.0647,-5.0569,-5.0415,-4.9591,-4.9165,-4.8856,-4.8217,-4.7405,-4.66,-4.5962,-4.5981,-4.6232,-4.6464,-4.6348,-4.6155,-4.6155,-4.6348,-4.6523,-4.6523,-4.6329,-4.6155,-4.6155,-4.5962,-4.5822,-4.5941,-4.5931,-4.5954,-4.6009,-4.6033,-4.6056,-4.6076,-4.6072,-4.6089,-4.6104,-4.6134,-4.617,-4.6166,-4.6189,-4.6211,-4.6247,-4.6265,-4.6264,-4.6264,-4.6278,-4.6274,-4.6274,-4.6261,-4.6261,-4.6274,-4.6274,-4.6272,0.0,0.0,0.0,0.0,0.0,0.0,0.0,-4.5594,0.0,0.0,0.0,0.0,0.0,0.0,0.0,0.0,0.0,0.0,0.0,0.0,0.0,0.0,0.0,0.0,0.0,0.0,-4.4547,-4.4547,-4.5028,-4.5508,-4.5921,-4.6591,-4.7096,-4.7373,-4.7864,-4.8113,-4.8112,-4.8486,-4.8672,-4.8671,-4.919,-4.9413,-4.9438,-4.9991,-5.025,-5.0269,-5.062,-5.0777,-5.0816,-5.1147,-5.1258,-5.1203,-5.1203,-5.1178,-5.1157,-5.1109,-5.1069,-5.1004,-5.0937,-5.0898,-5.0898,-5.0898,-5.0898,-5.0743,-4.9939,-4.9455,-4.8972,-4.8101,-4.7231,-4.6445,-4.5923,-4.5807,-4.5807,-4.5807,-4.5807,-4.5821,-4.5861,-4.5886,-4.5873,-4.5801,-4.5807,-4.5827,-4.586,-4.5872,-4.5919,-4.6039,-4.6045,-4.6052,-4.6092,-4.6108,-4.6106,-4.6144,-4.6134,-4.6141,-4.6188,-4.6229,-4.623,-4.6246,-4.6245,-4.6259,-4.6302,-4.63,-4.63,-4.63,-4.63,-4.63,-4.63,-4.63,-4.63,-4.63,-4.63,-4.63,0.0,0.0,0.0,0.0,0.0,0.0,-4.5594,-4.5594,-4.5594,0.0,0.0,0.0,0.0,0.0,0.0,0.0,0.0,0.0,0.0,0.0,0.0,0.0,0.0,0.0,0.0,-4.3104,-4.3094,-4.311,-4.3131,-4.3516,-4.4337,-4.4578,-4.5024,-4.5796,-4.6685,-4.7213,-4.7317,-4.8078,-4.8511,-4.8612,-4.8709,-4.8769,-4.8769,-4.8867,-4.8906,-4.8945,-4.9726,-5.0058,-5.0117,-5.082,-5.1156,-5.1229,-5.1229,-5.1178,-5.112,-5.1109,-5.0959,-5.0786,-5.077,-5.0705,-5.0627,-5.0627,-5.0627,-5.0492,-4.9765,-4.901,-4.8217,-4.7347,-4.6542,-4.5923,-4.5826,-4.5807,-4.5787,-4.5808,-4.5815,-4.5854,-4.5982,-4.6008,-4.5988,-4.5854,-4.5829,-4.5872,-4.5983,-4.6002,-4.6021,-4.6108,-4.6119,-4.6104,-4.6128,-4.6119,-4.6155,-4.619,-4.6211,-4.6247,-4.6284,-4.63,-4.63,-4.63,-4.63,-4.63,-4.63,-4.63,-4.63,-4.63,-4.63,-4.63,-4.63,-4.63,-4.63,-4.63,-4.63,-4.63,0.0,0.0,0.0,0.0,0.0,0.0,-4.5594,-4.5594,-4.5594,0.0,0.0,0.0,0.0,0.0,0.0,0.0,0.0,0.0,0.0,0.0,0.0,0.0,0.0,0.0,0.0,-4.3104,-4.3123,-4.3178,-4.3333,-4.349,-4.3612,-4.3802,-4.3944,-4.4014,-4.4293,-4.4798,-4.5505,-4.5681,-4.6112,-4.6816,-4.7519,-4.7851,-4.7871,-4.8574,-4.8906,-4.8906,-4.9082,-4.9141,-4.918,-4.9316,-5.0175,-5.1362,-5.1362,-5.1327,-5.1241,-5.1203,-5.0685,-5.0002,-4.9945,-4.9475,-4.8894,-4.8894,-4.8894,-4.8856,-4.8701,-4.8527,-4.8217,-4.7347,-4.698,-4.667,-4.5981,-4.5807,-4.5822,-4.5936,-4.5963,-4.5979,-4.6063,-4.6086,-4.6063,-4.6047,-4.6043,-4.6047,-4.6086,-4.6089,-4.6108,-4.6174,-4.6182,-4.6209,-4.6248,-4.6264,-4.6279,-4.6273,-4.6272,-4.6288,-4.6302,-4.63,-4.63,-4.63,-4.63,-4.63,-4.63,-4.63,-4.63,-4.63,-4.63,-4.63,-4.63,-4.63,-4.63,-4.63,-4.63,-4.63,0.0,0.0,0.0,-4.5594,0.0,0.0,0.0,-4.5594,-4.5479,0.0,0.0,0.0,0.0,0.0,0.0,0.0,0.0,0.0,0.0,0.0,0.0,0.0,0.0,0.0,0.0,-4.1797,-4.1836,-4.1951,-4.2142,-4.2435,-4.2824,-4.2988,-4.3227,-4.3591,-4.3663,-4.3904,-4.4355,-4.4355,-4.457,-4.5019,-4.5898,-4.6308,-4.6328,-4.7207,-4.7598,-4.7637,-4.8066,-4.8242,-4.8281,-4.8711,-4.9394,-5.0156,-5.0156,-5.0093,-5.0005,-4.9979,-4.9629,-4.9212,-4.9149,-4.8879,-4.8491,-4.8491,-4.8491,-4.8413,-4.7986,-4.7564,-4.7157,-4.6715,-4.6599,-4.6502,-4.6055,-4.5949,-4.5979,-4.6037,-4.6057,-4.607,-4.6134,-4.6147,-4.6155,-4.6186,-4.6208,-4.6187,-4.6153,-4.615,-4.6161,-4.6249,-4.6247,-4.6262,-4.6309,-4.6303,-4.63,-4.63,-4.63,-4.63,-4.63,-4.63,-4.63,-4.63,-4.63,-4.63,-4.63,-4.63,-4.63,-4.63,-4.63,-4.63,-4.63,-4.63,-4.63,-4.63,-4.63,-4.63,0.0,0.0,0.0,0.0,0.0,-4.5594,0.0,0.0,0.0,-4.4451,0.0,0.0,0.0,0.0,0.0,0.0,0.0,0.0,0.0,0.0,0.0,0.0,0.0,0.0,0.0,-4.0527,-4.0602,-4.0707,-4.0887,-4.1303,-4.2028,-4.2113,-4.2476,-4.3202,-4.3221,-4.3281,-4.3457,-4.3457,-4.3535,-4.3711,-4.4414,-4.4746,-4.4785,-4.5644,-4.6055,-4.6094,-4.6973,-4.7344,-4.7402,-4.8105,-4.8398,-4.8437,-4.8769,-4.8822,-4.8697,-4.8697,-4.8547,-4.8347,-4.8347,-4.825,-4.8113,-4.8113,-4.8113,-4.7996,-4.7279,-4.6621,-4.6098,-4.6098,-4.6098,-4.6102,-4.6105,-4.6096,-4.6092,-4.6128,-4.6121,-4.614,-4.6207,-4.6211,-4.6249,-4.6295,-4.6305,-4.6272,-4.623,-4.6211,-4.6249,-4.6287,-4.63,-4.63,-4.63,-4.63,-4.63,-4.63,-4.63,-4.63,-4.63,-4.63,-4.63,-4.63,-4.63,-4.63,-4.63,-4.63,-4.63,-4.63,-4.63,-4.63,-4.63,-4.63,-4.63,-4.63,-4.63,-4.63,0.0,0.0,0.0,0.0,-4.5594,0.0,0.0,0.0,-4.4412,-4.4316,0.0,0.0,0.0,0.0,0.0,0.0,0.0,0.0,0.0,0.0,0.0,0.0,0.0,0.0,0.0,0.0,-4.0703,-4.0785,-4.0919,-4.1068,-4.1225,-4.1247,-4.1327,-4.1484,-4.1484,-4.1836,-4.2539,-4.2558,-4.2949,-4.3691,-4.3808,-4.3848,-4.3887,-4.4746,-4.5156,-4.5195,-4.6074,-4.6445,-4.6465,-4.6543,-4.6601,-4.6758,-4.8301,-4.8822,-4.8697,-4.8697,-4.8179,-4.7455,-4.7455,-4.6971,-4.6371,-4.6371,-4.6371,-4.6371,-4.6274,-4.6176,-4.6098,-4.6098,-4.6098,-4.6105,-4.6099,-4.6105,-4.6108,-4.6161,-4.6187,-4.621,-4.6277,-4.6288,-4.6287,-4.6303,-4.6302,-4.6302,-4.6287,-4.6288,-4.6287,-4.6302,-4.63,-4.63,-4.63,-4.63,-4.63,-4.63,-4.63,-4.63,-4.63,-4.63,-4.63,-4.63,-4.63,-4.63,-4.63,-4.63,-4.63,-4.63,-4.63,-4.63,-4.63,-4.63,-4.63,-4.63,-4.63,-4.63,0.0,0.0,0.0,0.0,0.0,0.0,0.0,0.0,-4.4028,0.0,0.0,0.0,0.0,0.0,0.0,0.0,0.0,0.0,0.0,0.0,0.0,0.0,0.0,0.0,0.0,0.0,0.0,0.0,-4.0944,-4.1041,-4.1152,-4.1152,-4.1172,-4.1191,-4.1191,-4.1367,-4.1699,-4.1699,-4.1894,-4.2246,-4.2715,-4.2949,-4.2988,-4.3848,-4.4258,-4.4297,-4.5176,-4.5547,-4.5586,-4.6094,-4.6308,-4.6367,-4.7109,-4.7362,-4.7318,-4.7318,-4.7059,-4.6716,-4.6716,-4.6503,-4.621,-4.621,-4.621,-4.621,-4.621,-4.621,-4.621,-4.621,-4.6215,-4.6217,-4.622,-4.6225,-4.6229,-4.6249,-4.6265,-4.6261,-4.6285,-4.63,-4.63,-4.63,-4.63,-4.63,-4.63,-4.63,-4.63,-4.63,-4.63,-4.63,-4.63,-4.63,-4.63,-4.63,-4.63,-4.63,-4.63,-4.63,-4.63,-4.63,-4.63,-4.63,-4.63,-4.63,-4.63,-4.63,-4.63,-4.63,-4.63,-4.63,-4.63,-4.63,-4.63,-4.63,-4.566,0.0,0.0,0.0,0.0,0.0,0.0,0.0,0.0,0.0,0.0,0.0,0.0,0.0,0.0,0.0,0.0,0.0,0.0,0.0,0.0,0.0,0.0,0.0,0.0,0.0,0.0,-4.0851,-4.0919,-4.1016,-4.1191,-4.1191,-4.1191,-4.1191,-4.1191,-4.1191,-4.1191,-4.1191,-4.1191,-4.1211,-4.1797,-4.207,-4.2109,-4.2949,-4.334,-4.3398,-4.4277,-4.4648,-4.4707,-4.5586,-4.5937,-4.5976,-4.6211,-4.6308,-4.6308,-4.6308,-4.6308,-4.6308,-4.6308,-4.6308,-4.6308,-4.6308,-4.6308,-4.6308,-4.6308,-4.6308,-4.6308,-4.6308,-4.6307,-4.6306,-4.6305,-4.63,-4.6293,-4.629,-4.6305,-4.63,-4.63,-4.63,-4.63,-4.63,-4.63,-4.63,-4.63,-4.63,-4.63,-4.63,-4.63,-4.63,-4.63,-4.63,-4.63,-4.63,-4.63,-4.63,-4.63,-4.63,-4.63,-4.63,-4.63,-4.63,-4.63,-4.6298,-4.6296,-4.6296,-4.6275,-4.6247,-4.6214,-4.6214,-4.6206,-4.6173,-4.6269,-4.6275,0.0,0.0,0.0,-4.5637,0.0,0.0,0.0,0.0,-4.2874,0.0,0.0,0.0,0.0,0.0,-4.0246,-3.9477,-3.9996,0.0,0.0,0.0,0.0,0.0,0.0,0.0,0.0,0.0,0.0,-4.0785,-4.0801,-4.092,-4.1191,-4.1191,-4.1191,-4.1191,-4.1191,-4.1191,-4.1191,-4.1191,-4.1191,-4.1191,-4.123,-4.123,-4.1269,-4.207,-4.2441,-4.248,-4.3359,-4.373,-4.3808,-4.4687,-4.5039,-4.5137,-4.5976,-4.6308,-4.6308,-4.6308,-4.6308,-4.6308,-4.6308,-4.6308,-4.6308,-4.6308,-4.6308,-4.6308,-4.6308,-4.6308,-4.6307,-4.6307,-4.6305,-4.6301,-4.6295,-4.6294,-4.6291,-4.6303,-4.63,-4.63,-4.63,-4.63,-4.63,-4.63,-4.63,-4.63,-4.63,-4.63,-4.63,-4.63,-4.63,-4.63,-4.63,-4.63,-4.63,-4.63,-4.63,-4.63,-4.63,-4.63,-4.63,-4.63,-4.63,-4.63,-4.63,-4.629,-4.6306,-4.6306,-4.6236,-4.6141,-4.6005,-4.6005,-4.5935,-4.5813,-4.6144,-4.6238,0.0,0.0,-4.5949,-4.5773,0.0,0.0,0.0,0.0,0.0,0.0,0.0,0.0,0.0,0.0,-4.0419,-4.015,-4.0323,-4.04,0.0,0.0,0.0,0.0,0.0,0.0,0.0,0.0,0.0,-4.0924,-4.0928,-4.1019,-4.1191,-4.1191,-4.1191,-4.1191,-4.1191,-4.1191,-4.1191,-4.1191,-4.1191,-4.1191,-4.1191,-4.1191,-4.1211,-4.1484,-4.1601,-4.168,-4.3086,-4.3691,-4.3808,-4.5254,-4.5859,-4.5898,-4.6172,-4.6308,-4.6308,-4.6308,-4.6308,-4.6308,-4.6308,-4.6308,-4.6308,-4.6308,-4.6308,-4.6308,-4.6308,-4.6307,-4.6306,-4.6305,-4.6301,-4.6296,-4.6294,-4.6309,-4.6305,-4.6302,-4.63,-4.63,-4.63,-4.63,-4.63,-4.63,-4.63,-4.63,-4.63,-4.63,-4.63,-4.63,-4.63,-4.63,-4.63,-4.63,-4.63,-4.63,-4.63,-4.63,-4.63,-4.6214,-4.6173,-4.6173,-4.6072,-4.6041,-4.6041,-4.6039,-4.6046,-4.6046,-4.5964,-4.5915,-4.5872,-4.5872,-4.5836,-4.5795,-4.5915,-4.594,-4.5987,-4.6021,0.0,-4.5877,-4.5243,0.0,-4.3439,0.0,0.0,0.0,0.0,0.0,0.0,0.0,-4.0512,-4.0552,-4.0534,-4.0496,0.0,-4.0496,0.0,0.0,0.0,0.0,0.0,0.0,-4.0726,-4.0986,-4.0961,-4.1017,0.0,0.0,-4.1191,-4.1191,-4.1191,-4.1191,-4.1191,-4.1191,-4.1191,-4.1191,-4.1191,-4.1348,-4.1621,-4.1621,-4.1797,-4.2148,-4.3223,-4.3691,-4.3808,-4.5254,-4.584,-4.5879,-4.6172,-4.6308,-4.6308,-4.6308,-4.6308,-4.6308,-4.6308,-4.6308,-4.6308,-4.6308,-4.6308,-4.6308,-4.6307,-4.6305,-4.6303,-4.63,-4.6295,-4.6308,-4.6308,-4.6305,-4.63,-4.63,-4.63,-4.63,-4.63,-4.63,-4.63,-4.63,-4.63,-4.63,-4.63,-4.63,-4.63,-4.63,-4.63,-4.63,-4.63,-4.63,-4.6275,-4.6221,-4.6238,-4.6211,-4.615,-4.6087,-4.6037,-4.6037,-4.594,-4.5899,-4.5899,-4.5886,-4.5863,-4.5863,-4.5802,-4.5731,-4.5696,-4.5696,-4.5667,-4.5615,-4.5615,-4.5461]},{"header":{"parameterUnit":"m.s-1","parameterCategory":1,"la1":30.6,"la2":29.2853,"lo1":-89.7004,"lo2":-87.6739,"dy":0.0162,"dx":0.0183,"nx":112,"ny":82,"refTime":"2023-08-08T06:00:00:Z","depth":0,"parameterNumber":3,"parameterNumberName":"V-component_of_WINDS"},"data":[0.0,0.0,0.0,0.0,0.0,0.0,0.0,0.0,0.0,0.0,0.0,0.0,0.0,0.0,0.0,0.0,0.0,0.0,0.0,0.0,0.0,0.0,0.0,0.0,0.0,0.0,0.0,0.0,0.0,0.0,0.0,0.0,0.0,0.0,0.0,0.0,0.0,0.0,0.0,0.0,0.0,0.0,0.0,0.0,0.0,0.0,0.0,0.0,0.0,0.0,0.0,0.0,0.0,0.0,0.0,0.0,0.0,0.0,0.0,0.0,0.0,0.0,0.0,0.0,0.0,0.0,0.0,0.0,0.0,0.0,0.0,0.0,0.0,0.0,0.0,0.0,0.0,0.0,0.0,0.0,0.0,0.0,0.0,0.0,0.0,0.0,0.0,0.0,0.0,0.0,0.0,-0.8934,-0.7969,-0.7316,-0.7095,-0.7095,-0.7404,-0.8072,0.0,0.0,0.0,0.0,0.0,0.0,0.0,0.0,0.0,0.0,0.0,0.0,0.0,0.0,0.0,0.0,0.0,0.0,0.0,0.0,0.0,0.0,0.0,0.0,0.0,0.0,0.0,0.0,0.0,0.0,0.0,0.0,0.0,0.0,0.0,0.0,0.0,0.0,0.0,0.0,0.0,0.0,0.0,0.0,0.0,0.0,0.0,0.0,0.0,0.0,0.0,0.0,0.0,0.0,0.0,0.0,0.0,0.0,0.0,0.0,0.0,0.0,0.0,0.0,0.0,0.0,0.0,0.0,0.0,0.0,0.0,0.0,0.0,0.0,0.0,0.0,0.0,0.0,0.0,0.0,0.0,0.0,0.0,0.0,0.0,0.0,0.0,0.0,0.0,0.0,0.0,0.0,0.0,0.0,0.0,0.0,0.0,0.0,0.0,0.0,0.0,0.0,0.0,0.0,-1.1037,-0.9104,-0.8715,-0.8233,-0.7183,-0.7095,-0.7665,-0.893,0.0,0.0,0.0,0.0,0.0,0.0,0.0,0.0,0.0,0.0,0.0,0.0,0.0,0.0,0.0,0.0,0.0,0.0,0.0,0.0,0.0,0.0,0.0,0.0,0.0,0.0,0.0,0.0,0.0,0.0,0.0,0.0,0.0,0.0,0.0,0.0,0.0,0.0,0.0,0.0,0.0,0.0,0.0,0.0,0.0,0.0,0.0,0.0,0.0,0.0,0.0,0.0,0.0,0.0,0.0,0.0,0.0,0.0,0.0,0.0,0.0,0.0,0.0,0.0,0.0,0.0,0.0,0.0,0.0,0.0,0.0,0.0,0.0,0.0,0.0,0.0,0.0,0.0,0.0,0.0,0.0,0.0,0.0,0.0,0.0,0.0,0.0,0.0,0.0,0.0,0.0,0.0,0.0,0.0,0.0,0.0,0.0,0.0,0.0,0.0,0.0,0.0,0.0,-1.0969,-1.0338,-0.9194,-0.8519,-0.794,-0.7316,-0.7265,-0.7804,-0.9109,-0.9662,0.0,0.0,0.0,0.0,0.0,0.0,0.0,0.0,0.0,0.0,0.0,0.0,0.0,0.0,0.0,0.0,0.0,0.0,0.0,0.0,0.0,0.0,0.0,0.0,0.0,0.0,0.0,0.0,0.0,0.0,0.0,0.0,0.0,0.0,0.0,0.0,0.0,0.0,0.0,0.0,0.0,0.0,0.0,0.0,0.0,0.0,0.0,0.0,0.0,0.0,0.0,0.0,0.0,0.0,0.0,0.0,0.0,0.0,0.0,0.0,0.0,0.0,0.0,0.0,0.0,0.0,0.0,0.0,0.0,0.0,0.0,0.0,0.0,0.0,0.0,0.0,0.0,0.0,0.0,0.0,0.0,0.0,0.0,0.0,0.0,0.0,0.0,0.0,0.0,0.0,0.0,0.0,0.0,0.0,0.0,0.0,0.0,0.0,0.0,0.0,0.0,0.0,-1.0818,-1.0033,-0.9309,-0.8664,-0.8056,-0.748,-0.7439,-0.7876,-0.8937,-0.98,0.0,0.0,0.0,0.0,0.0,0.0,0.0,0.0,0.0,0.0,0.0,0.0,0.0,0.0,0.0,0.0,0.0,0.0,0.0,0.0,0.0,0.0,0.0,0.0,0.0,0.0,0.0,0.0,0.0,0.0,0.0,0.0,0.0,0.0,0.0,0.0,0.0,0.0,0.0,0.0,0.0,0.0,0.0,0.0,0.0,0.0,0.0,0.0,0.0,0.0,0.0,0.0,0.0,0.0,0.0,0.0,0.0,0.0,0.0,0.0,0.0,0.0,0.0,0.0,0.0,0.0,0.0,0.0,0.0,0.0,0.0,0.0,0.0,0.0,0.0,0.0,0.0,0.0,0.0,0.0,0.0,0.0,0.0,0.0,0.0,0.0,0.0,0.0,0.0,0.0,0.0,0.0,0.0,0.0,0.0,0.0,0.0,0.0,0.0,0.0,0.0,0.0,-1.2751,-1.1787,-0.9532,-0.995,-0.9625,-0.7724,-0.7455,-0.7654,-0.8339,-0.8946,0.0,0.0,0.0,0.0,0.0,0.0,0.0,0.0,0.0,0.0,0.0,0.0,0.0,0.0,0.0,0.0,0.0,0.0,0.0,0.0,0.0,0.0,0.0,0.0,0.0,0.0,0.0,0.0,0.0,0.0,0.0,0.0,0.0,0.0,0.0,0.0,0.0,0.0,0.0,0.0,0.0,0.0,0.0,0.0,0.0,0.0,0.0,0.0,0.0,0.0,0.0,0.0,0.0,0.0,0.0,0.0,0.0,0.0,0.0,0.0,0.0,0.0,0.0,0.0,0.0,0.0,0.0,0.0,0.0,0.0,0.0,0.0,0.0,0.0,0.0,0.0,0.0,0.0,0.0,0.0,0.0,0.0,0.0,0.0,0.0,0.0,0.0,0.0,0.0,0.0,0.0,0.0,0.0,0.0,0.0,0.0,0.0,0.0,0.0,0.0,0.0,0.0,-1.203,-1.0694,0.0,-0.9163,-0.8646,-0.7787,-0.7678,-0.8095,-0.9118,0.0,0.0,0.0,0.0,0.0,0.0,0.0,0.0,0.0,0.0,0.0,0.0,0.0,0.0,0.0,0.0,0.0,0.0,0.0,0.0,0.0,0.0,0.0,0.0,0.0,0.0,0.0,0.0,0.0,0.0,0.0,0.0,0.0,0.0,0.0,0.0,0.0,0.0,0.0,0.0,0.0,0.0,0.0,0.0,0.0,0.0,0.0,0.0,0.0,0.0,0.0,0.0,0.0,0.0,0.0,0.0,0.0,0.0,0.0,0.0,0.0,0.0,0.0,0.0,0.0,0.0,0.0,0.0,0.0,0.0,0.0,0.0,0.0,0.0,0.0,0.0,0.0,0.0,0.0,0.0,0.0,0.0,0.0,0.0,0.0,0.0,0.0,0.0,0.0,0.0,0.0,0.0,0.0,0.0,0.0,0.0,0.0,0.0,0.0,0.0,0.0,0.0,-1.3049,-1.156,-1.0145,0.0,-0.8726,-0.834,-0.7892,-0.7838,-0.8405,-0.9854,0.0,0.0,0.0,0.0,0.0,0.0,0.0,0.0,0.0,0.0,0.0,0.0,0.0,0.0,0.0,0.0,0.0,0.0,0.0,0.0,0.0,0.0,0.0,0.0,0.0,0.0,0.0,0.0,0.0,0.0,0.0,0.0,0.0,0.0,0.0,0.0,0.0,0.0,0.0,0.0,0.0,0.0,0.0,0.0,0.0,0.0,0.0,0.0,0.0,0.0,0.0,0.0,0.0,0.0,0.0,0.0,0.0,0.0,0.0,0.0,0.0,0.0,0.0,0.0,0.0,0.0,0.0,0.0,0.0,0.0,0.0,0.0,0.0,0.0,0.0,0.0,0.0,0.0,0.0,0.0,0.0,0.0,0.0,0.0,0.0,0.0,0.0,0.0,0.0,0.0,0.0,0.0,0.0,0.0,0.0,0.0,0.0,0.0,0.0,0.0,0.0,0.0,-1.2091,-1.1707,-1.0636,-0.8237,-0.897,-0.9167,-0.8088,-0.7899,-0.8549,0.0,0.0,0.0,0.0,0.0,0.0,0.0,0.0,0.0,0.0,0.0,0.0,0.0,0.0,0.0,0.0,0.0,0.0,0.0,0.0,0.0,0.0,0.0,0.0,0.0,0.0,0.0,0.0,0.0,0.0,0.0,0.0,0.0,0.0,0.0,0.0,0.0,0.0,0.0,0.0,0.0,0.0,0.0,0.0,0.0,0.0,0.0,0.0,0.0,0.0,0.0,0.0,0.0,0.0,0.0,0.0,0.0,0.0,0.0,0.0,0.0,0.0,0.0,0.0,0.0,0.0,0.0,0.0,0.0,0.0,0.0,0.0,0.0,0.0,0.0,0.0,0.0,0.0,0.0,0.0,0.0,0.0,0.0,0.0,0.0,0.0,0.0,0.0,0.0,0.0,0.0,0.0,0.0,0.0,0.0,0.0,0.0,0.0,0.0,0.0,0.0,0.0,0.0,-1.1945,-1.0239,-0.8775,-0.8088,-0.8283,-0.8333,-0.8038,-0.7948,-0.8333,-0.9213,0.0,0.0,0.0,0.0,0.0,0.0,0.0,0.0,0.0,0.0,0.0,0.0,0.0,0.0,0.0,0.0,0.0,0.0,0.0,0.0,0.0,0.0,0.0,0.0,0.0,0.0,0.0,0.0,0.0,0.0,0.0,0.0,0.0,0.0,0.0,0.0,0.0,0.0,0.0,0.0,0.0,0.0,0.0,0.0,0.0,0.0,0.0,0.0,0.0,0.0,0.0,0.0,0.0,0.0,0.0,0.0,0.0,0.0,0.0,0.0,0.0,0.0,0.0,0.0,0.0,0.0,0.0,0.0,0.0,0.0,0.0,0.0,0.0,0.0,0.0,0.0,0.0,0.0,0.0,0.0,0.0,0.0,0.0,0.0,0.0,0.0,0.0,0.0,0.0,0.0,0.0,0.0,0.0,0.0,0.0,0.0,0.0,0.0,0.0,0.0,0.0,0.0,-1.1896,-0.9608,-0.7988,-0.7988,-0.7988,-0.7988,-0.7988,-0.7988,-0.8382,-0.9213,0.0,0.0,0.0,0.0,0.0,0.0,0.0,0.0,0.0,0.0,0.0,0.0,0.0,0.0,0.0,0.0,0.0,0.0,0.0,0.0,0.0,0.0,0.0,0.0,0.0,0.0,0.0,0.0,0.0,0.0,0.0,0.0,0.0,0.0,0.0,0.0,0.0,0.0,0.0,0.0,0.0,0.0,0.0,0.0,0.0,0.0,0.0,0.0,0.0,0.0,0.0,0.0,0.0,0.0,0.0,0.0,0.0,0.0,0.0,0.0,0.0,0.0,0.0,0.0,0.0,0.0,0.0,0.0,0.0,0.0,0.0,0.0,0.0,0.0,0.0,0.0,0.0,0.0,0.0,0.0,0.0,0.0,0.0,0.0,0.0,0.0,0.0,0.0,0.0,0.0,0.0,0.0,0.0,0.0,0.0,0.0,0.0,0.0,0.0,0.0,0.0,0.0,-1.1896,-0.9608,-0.7988,-0.7988,-0.7988,-0.7988,-0.7988,-0.7988,-0.8531,-0.9756,0.0,0.0,0.0,0.0,0.0,0.0,0.0,0.0,0.0,0.0,0.0,0.0,0.0,0.0,0.0,0.0,0.0,0.0,0.0,0.0,0.0,0.0,0.0,0.0,0.0,0.0,0.0,0.0,0.0,0.0,0.0,0.0,0.0,0.0,0.0,0.0,0.0,0.0,0.0,0.0,0.0,0.0,0.0,0.0,0.0,0.0,0.0,0.0,0.0,0.0,0.0,0.0,0.0,0.0,0.0,0.0,0.0,0.0,0.0,0.0,-1.1716,0.0,0.0,0.0,0.0,0.0,0.0,0.0,0.0,0.0,0.0,0.0,0.0,0.0,0.0,0.0,0.0,0.0,0.0,0.0,0.0,0.0,0.0,0.0,0.0,0.0,0.0,0.0,0.0,0.0,0.0,0.0,0.0,0.0,0.0,0.0,0.0,0.0,0.0,0.0,0.0,0.0,-1.1896,-0.9608,-0.7988,-0.7988,-0.7988,-0.7988,-0.7988,-0.7988,-0.8237,-0.8726,0.0,0.0,0.0,0.0,0.0,0.0,0.0,0.0,0.0,0.0,0.0,0.0,0.0,0.0,0.0,0.0,0.0,0.0,0.0,0.0,0.0,0.0,0.0,0.0,0.0,0.0,0.0,0.0,0.0,0.0,0.0,0.0,0.0,0.0,0.0,0.0,0.0,0.0,0.0,0.0,0.0,0.0,0.0,0.0,0.0,0.0,0.0,0.0,0.0,0.0,0.0,0.0,0.0,0.0,0.0,0.0,0.0,0.0,0.0,0.0,0.0,-1.1957,0.0,0.0,0.0,0.0,0.0,0.0,0.0,0.0,0.0,0.0,0.0,0.0,0.0,0.0,0.0,0.0,0.0,0.0,0.0,0.0,0.0,0.0,0.0,0.0,0.0,0.0,0.0,0.0,0.0,0.0,0.0,0.0,0.0,0.0,0.0,0.0,0.0,0.0,0.0,0.0,-1.1896,-0.9608,-0.7988,-0.7988,-0.7988,-0.8019,-0.8143,-0.8032,-0.8118,-0.8345,-0.8919,0.0,0.0,0.0,0.0,0.0,0.0,0.0,0.0,0.0,0.0,0.0,0.0,0.0,0.0,0.0,0.0,0.0,0.0,0.0,0.0,0.0,0.0,0.0,0.0,0.0,0.0,0.0,0.0,0.0,0.0,0.0,0.0,0.0,0.0,0.0,0.0,0.0,0.0,0.0,0.0,0.0,0.0,0.0,0.0,0.0,0.0,0.0,0.0,0.0,0.0,0.0,0.0,0.0,-1.2813,-1.2813,-1.2813,-1.2813,-1.2813,-1.2791,-1.2391,-1.1987,-1.1662,0.0,0.0,0.0,0.0,0.0,0.0,0.0,0.0,0.0,0.0,0.0,0.0,0.0,0.0,0.0,0.0,0.0,0.0,0.0,0.0,0.0,0.0,0.0,0.0,0.0,-0.8687,-0.8465,0.0,0.0,0.0,0.0,0.0,0.0,0.0,0.0,0.0,0.0,0.0,0.0,-1.156,-0.946,-0.7988,-0.7988,-0.7988,-0.8102,-0.8258,-0.8153,-0.8133,-0.8313,-0.8348,-0.8855,0.0,0.0,0.0,0.0,0.0,0.0,0.0,0.0,0.0,0.0,0.0,0.0,0.0,0.0,0.0,0.0,0.0,0.0,0.0,0.0,0.0,0.0,0.0,0.0,0.0,0.0,0.0,0.0,0.0,0.0,0.0,0.0,-1.4202,-1.4202,0.0,0.0,0.0,0.0,0.0,0.0,0.0,0.0,0.0,0.0,0.0,0.0,0.0,-1.3298,-1.305,-1.291,-1.2813,-1.2813,-1.2813,-1.2813,-1.2813,-1.2813,-1.2813,-1.2807,-1.2743,0.0,-1.2619,-1.2667,0.0,0.0,0.0,0.0,0.0,0.0,0.0,0.0,0.0,0.0,0.0,0.0,0.0,0.0,0.0,0.0,0.0,0.0,0.0,0.0,0.0,0.0,-0.917,-0.9056,-0.887,-0.8668,0.0,-0.8614,-0.8676,-0.8811,0.0,0.0,0.0,0.0,0.0,0.0,0.0,0.0,-1.0293,-0.8924,-0.7988,-0.7988,-0.7988,-0.8102,-0.8258,-0.8252,-0.8248,-0.832,-0.8303,-0.883,-0.9957,-1.0021,0.0,0.0,0.0,0.0,0.0,0.0,0.0,0.0,0.0,0.0,0.0,0.0,0.0,0.0,0.0,0.0,0.0,0.0,0.0,0.0,0.0,0.0,0.0,0.0,0.0,0.0,0.0,0.0,0.0,-1.4298,-1.4298,-1.4298,-1.4298,-1.4298,0.0,0.0,0.0,0.0,0.0,0.0,0.0,0.0,0.0,-1.3931,-1.3786,-1.3593,-1.3346,-1.3104,-1.2953,-1.2953,-1.2861,-1.2813,-1.2813,-1.2813,-1.2813,-1.2813,-1.2813,-1.2813,-1.2813,-1.2813,-1.2813,-1.2802,0.0,0.0,0.0,0.0,-1.2499,-1.2499,-1.2499,-1.2499,0.0,0.0,0.0,0.0,0.0,0.0,0.0,0.0,0.0,0.0,0.0,0.0,0.0,-0.9337,-0.922,-0.9196,-0.9196,-0.9099,-0.8927,0.0,-0.8657,-0.9108,-1.0462,0.0,0.0,0.0,0.0,0.0,-0.9998,-0.8825,-0.7988,-0.7988,-0.7988,-0.8102,-0.8258,-0.8323,-0.8354,-0.8384,-0.8467,-0.8693,-0.9021,-0.9809,-1.058,0.0,0.0,0.0,0.0,0.0,0.0,0.0,0.0,0.0,0.0,0.0,0.0,0.0,0.0,0.0,0.0,0.0,0.0,0.0,0.0,0.0,0.0,0.0,0.0,0.0,0.0,0.0,0.0,-1.4503,-1.4503,-1.4503,-1.4503,-1.4503,0.0,0.0,0.0,0.0,0.0,0.0,-1.4401,-1.4334,-1.416,-1.3931,-1.3883,-1.3786,-1.3491,-1.3298,-1.3195,-1.3201,-1.3001,-1.2856,-1.2856,-1.2813,-1.2813,-1.2813,-1.2813,-1.2813,-1.2813,-1.2813,-1.2813,-1.2813,-1.2813,-1.2813,-1.2813,-1.2813,-1.2813,-1.2813,-1.2813,-1.2813,-1.2813,-1.2813,0.0,-1.2813,-1.2813,0.0,0.0,0.0,0.0,-1.0543,-0.9935,-0.9853,-0.9864,-0.9522,-0.9531,-0.9579,-0.9579,-0.943,-0.9193,0.0,-0.8694,-0.9019,-0.9998,0.0,0.0,0.0,0.0,-0.9558,-0.9509,-0.8627,-0.7988,-0.7988,-0.7988,-0.8102,-0.8258,-0.8323,-0.8368,-0.8421,-0.8619,-0.8593,-0.8214,-0.933,-0.9917,-0.9866,0.0,0.0,0.0,0.0,0.0,0.0,0.0,0.0,0.0,0.0,0.0,0.0,0.0,0.0,0.0,0.0,0.0,0.0,0.0,0.0,0.0,0.0,0.0,0.0,0.0,0.0,0.0,0.0,0.0,-1.5065,-1.5065,0.0,0.0,0.0,0.0,-1.5065,-1.4835,-1.4696,-1.4696,-1.4443,-1.416,-1.3931,-1.3883,-1.3786,-1.3491,-1.3491,-1.3491,-1.3491,-1.3195,-1.3098,-1.3098,-1.291,-1.2813,-1.2813,-1.2813,-1.2813,-1.2813,-1.2813,-1.2813,-1.2813,-1.2813,-1.2813,-1.2813,-1.2813,-1.2813,-1.2813,-1.2813,-1.2813,-1.2813,-1.2813,-1.2813,-1.2813,-1.2813,-1.2754,0.0,0.0,-1.1214,-1.0916,-0.9895,-0.9608,-0.9616,-0.9612,-0.9571,-0.9579,-0.9579,-0.9579,-0.9426,0.0,-0.8574,-0.8432,-0.8528,0.0,-0.8531,-0.8577,-0.8531,-0.8382,-0.8137,-0.8038,-0.7988,-0.7988,-0.7988,-0.8102,-0.8258,-0.8323,-0.8327,-0.8333,-0.8657,-0.8653,-0.8062,-0.8534,-0.928,-1.0315,-0.9995,0.0,0.0,0.0,0.0,0.0,0.0,0.0,0.0,0.0,0.0,0.0,0.0,0.0,0.0,0.0,0.0,0.0,0.0,0.0,0.0,0.0,0.0,0.0,0.0,0.0,0.0,0.0,0.0,-1.5107,-1.5107,0.0,-1.5107,-1.5107,-1.5107,-1.5107,-1.5022,-1.4968,-1.4968,-1.4871,-1.4773,-1.468,-1.4674,-1.4624,-1.4524,-1.4375,-1.4269,-1.4269,-1.4019,-1.3863,-1.3863,-1.3613,-1.3512,-1.3512,-1.3323,-1.3272,-1.3272,-1.3272,-1.3089,-1.2813,-1.2813,-1.2813,-1.2813,-1.2813,-1.2813,-1.2813,-1.2813,-1.2813,-1.2813,-1.2813,-1.2813,-1.2813,-1.2813,-1.2565,-1.2224,-1.1829,-1.1198,-1.0609,-1.0216,-0.9958,-0.9766,-0.9652,-0.9713,-0.9762,-0.9652,-0.9579,-0.948,-0.913,-0.8985,-0.8935,-0.8935,-0.8779,-0.873,-0.8886,-0.8634,-0.8382,-0.8283,-0.8088,-0.7988,-0.7988,-0.7988,-0.8012,-0.8116,-0.8214,-0.8323,-0.8323,-0.8573,-0.8603,-0.8194,-0.8395,-0.8741,-0.9255,-0.9524,-1.0384,0.0,0.0,0.0,0.0,0.0,0.0,0.0,0.0,0.0,0.0,0.0,0.0,0.0,0.0,0.0,0.0,0.0,0.0,0.0,0.0,0.0,0.0,0.0,0.0,0.0,0.0,-1.5372,-1.5372,-1.5372,-1.5372,-1.5372,-1.5372,-1.5372,-1.5372,-1.5288,-1.524,-1.524,-1.5155,-1.5107,-1.5107,-1.5107,-1.5107,-1.5107,-1.4898,-1.4847,-1.4847,-1.4536,-1.4434,-1.4434,-1.4174,-1.4021,-1.4021,-1.3771,-1.3623,-1.3629,-1.3526,-1.3342,-1.3045,-1.2959,-1.2877,-1.2867,-1.284,-1.2813,-1.2813,-1.2813,-1.2813,-1.2813,-1.2813,-1.2813,-1.2813,-1.2813,-1.2565,-1.2224,-1.2029,-1.1487,-1.0904,-1.0703,-1.0501,-1.0267,-0.9949,-0.9962,-0.9967,-0.9652,-0.9579,-0.9529,-0.9381,-0.9282,-0.9183,-0.9084,-0.8928,-0.8874,-0.9031,-0.8779,-0.8531,-0.8531,-0.8283,-0.8137,-0.8137,-0.8038,-0.7988,-0.7988,-0.8183,-0.8292,-0.8194,-0.8595,-0.8649,-0.8194,-0.884,-0.9179,-0.9203,-0.9712,-1.0488,-1.1483,0.0,0.0,0.0,0.0,0.0,0.0,0.0,0.0,0.0,0.0,0.0,0.0,0.0,0.0,0.0,0.0,0.0,0.0,0.0,0.0,0.0,0.0,0.0,-1.5945,-1.5945,-1.5891,-1.5891,-1.5891,-1.5891,-1.5891,-1.5891,-1.5891,-1.5891,-1.5656,-1.5511,-1.5511,-1.527,-1.5131,-1.5131,-1.5131,-1.5131,-1.5131,-1.5131,-1.5131,-1.5131,-1.4871,-1.4718,-1.4718,-1.4458,-1.4356,-1.4304,-1.4043,-1.3941,-1.389,-1.365,-1.3553,-1.3475,-1.3217,-1.3114,-1.3087,-1.2867,-1.2835,-1.2835,-1.2845,-1.284,-1.2835,-1.2835,-1.2835,-1.2835,-1.2835,-1.2835,-1.2689,-1.2196,-1.205,-1.1903,-1.1364,-1.1212,-1.1065,-1.0578,-1.043,-1.0282,-0.9743,-0.9644,-0.9595,-0.9595,-0.9397,-0.9145,-0.8878,-0.8825,-0.8825,-0.8825,-0.8825,0.0,-0.8825,-0.8581,-0.8382,-0.8432,-0.8187,-0.7988,-0.7988,-0.8237,-0.8283,-0.8041,-0.8679,-0.8747,-0.8045,-0.9682,-1.0534,-1.0386,-1.0523,-1.0812,-1.1216,0.0,0.0,0.0,0.0,0.0,0.0,0.0,0.0,0.0,0.0,0.0,0.0,0.0,0.0,0.0,0.0,0.0,0.0,0.0,0.0,0.0,0.0,-1.6424,-1.7054,-1.6418,-1.5891,-1.5891,-1.5891,-1.5891,-1.5891,-1.5891,-1.5891,-1.5891,-1.5825,-1.5783,-1.5783,-1.5716,-1.5674,-1.5674,-1.5674,-1.5674,-1.5674,-1.5674,-1.5674,-1.5674,-1.5621,-1.5569,-1.5569,-1.5311,-1.5159,-1.5159,-1.483,-1.4618,-1.44,-1.4353,-1.4199,-1.3959,-1.354,-1.3373,-1.3367,-1.3353,-1.3332,-1.3308,-1.347,-1.3421,-1.3332,-1.3332,-1.3332,-1.3332,-1.3332,-1.3332,-1.3281,-1.313,-1.2826,-1.2466,-1.2313,-1.2008,-1.1652,-1.1499,-1.1137,-1.0779,-1.0625,-1.0322,-1.0014,-1.0014,-0.9966,-0.9831,-0.942,-0.9377,-0.9377,-0.9377,-0.9229,0.0,-0.9084,-0.8684,-0.8482,-0.8676,-0.8432,-0.8283,-0.8283,-0.8382,-0.8283,-0.8041,-0.8179,-0.8232,-0.7992,-0.8475,-0.9061,-0.9751,-0.9887,-1.062,0.0,0.0,0.0,0.0,0.0,0.0,0.0,0.0,0.0,0.0,0.0,0.0,0.0,0.0,0.0,0.0,0.0,0.0,0.0,0.0,0.0,0.0,-1.772,-1.653,-1.716,-1.6583,-1.6051,-1.5891,-1.5891,-1.5891,-1.5891,-1.5891,-1.5891,-1.5891,-1.5891,-1.5891,-1.5891,-1.5891,-1.5891,-1.5891,-1.5891,-1.5891,-1.5891,-1.5891,-1.5891,-1.5891,-1.5891,-1.5891,-1.5891,-1.5737,-1.569,0.0,-1.5315,-1.5095,-1.4987,-1.4821,-1.4611,0.0,0.0,0.0,0.0,0.0,-1.354,-1.3642,-1.3776,-1.3803,-1.3776,-1.3776,-1.3706,-1.362,-1.362,-1.3556,-1.348,-1.348,-1.3275,-1.3064,-1.3064,-1.2802,-1.2498,-1.2287,-1.1977,-1.1559,-1.1097,-1.0785,-1.0473,-1.0264,-1.0212,0.0,-0.9888,-0.9786,-0.9734,-0.9734,-0.9528,-0.9381,-0.9381,-0.8985,-0.873,-0.8775,-0.8577,-0.8333,-0.8237,-0.8333,0.0,0.0,0.0,-0.8382,-0.8825,-0.8825,0.0,0.0,0.0,-1.0246,-1.1041,0.0,0.0,0.0,-1.3062,-1.3309,0.0,0.0,0.0,0.0,0.0,0.0,0.0,0.0,0.0,0.0,0.0,0.0,0.0,0.0,0.0,0.0,-1.747,-1.6483,-1.6683,-1.6477,-1.6271,-1.5998,-1.5945,-1.5891,-1.5891,-1.5891,-1.5891,-1.5891,-1.5891,-1.5891,-1.5891,0.0,0.0,0.0,0.0,-1.5891,-1.5891,-1.5891,-1.5891,-1.5891,-1.5891,-1.5891,-1.5891,-1.5891,-1.5891,-1.5891,-1.5636,-1.5535,-1.5482,-1.5202,-1.4874,-1.453,-1.4049,-1.3863,-1.3841,-1.3663,-1.3712,-1.3868,-1.389,0.0,0.0,-1.4234,-1.4099,-1.3938,-1.3938,-1.3798,-1.3636,-1.3636,-1.362,-1.3599,-1.3599,-1.3577,-1.3453,-1.2988,-1.2832,-1.2464,-1.1472,-1.1211,-1.1002,-1.0535,-1.0378,-1.0378,-1.0378,-1.0102,-0.9916,-0.9916,-0.977,-0.9657,-0.9657,-0.9393,-0.9133,-0.8924,0.0,0.0,-0.8137,-0.8336,-0.8386,-0.8088,-0.8237,-0.8775,-0.9756,-0.9756,-0.9899,-1.0096,-0.9952,-0.9669,-0.9351,-1.0112,-1.0755,-1.1322,-1.2705,-1.3307,0.0,0.0,0.0,0.0,0.0,0.0,0.0,0.0,0.0,0.0,0.0,0.0,0.0,0.0,0.0,-1.9124,-1.7943,-1.6961,-1.6736,-1.6677,-1.6524,-1.6264,-1.6051,-1.5891,-1.5891,-1.5891,-1.5891,-1.5891,-1.5891,-1.5891,-1.5891,-1.5891,0.0,-1.5891,-1.5891,-1.5891,-1.5891,-1.5891,-1.5891,-1.5891,0.0,0.0,-1.5891,-1.5891,-1.5891,-1.5891,-1.5838,-1.5684,-1.5482,-1.5428,-1.5095,-1.4546,-1.4245,-1.4121,-1.4137,-1.4277,-1.4239,-1.4148,-1.4331,-1.4373,-1.4416,-1.4416,-1.4562,-1.4676,-1.4676,-1.4649,0.0,-1.4611,-1.4476,-1.4331,-1.4331,-1.4191,-1.4056,-1.3949,-1.3516,-1.3135,-1.2915,-1.2485,-1.2102,-1.1995,-1.1616,-1.135,-1.135,-1.0693,-1.0159,-1.0159,-0.9953,-0.9835,-0.9835,-0.9468,-0.9282,-0.943,-0.9183,-0.9034,-0.8985,-0.9034,-0.8836,-0.8336,-0.8187,-0.8187,-0.8382,-0.8382,-0.8432,-0.8482,-0.832,-0.8541,-0.9072,-0.989,-1.0627,-1.1322,-1.2357,-1.2833,0.0,0.0,0.0,0.0,0.0,0.0,0.0,0.0,0.0,0.0,0.0,-2.0503,0.0,0.0,-1.8722,-1.8454,-1.774,-1.7173,-1.716,-1.7054,-1.6743,-1.6164,-1.5998,-1.5891,-1.5891,-1.5891,-1.5891,-1.5891,-1.5891,-1.5891,-1.5891,-1.5891,-1.5891,-1.5891,-1.5891,-1.5891,-1.5891,-1.5891,-1.5891,-1.5891,-1.5891,-1.5891,-1.5891,-1.5891,-1.5891,-1.5891,-1.5891,-1.5838,-1.569,-1.5535,-1.5315,-1.4987,-1.4563,-1.4293,-1.4207,-1.432,-1.4363,-1.4379,-1.4498,-1.4611,-1.4708,-1.4708,-1.4708,-1.4729,-1.4848,-1.4805,-1.4735,-1.4853,-1.4799,-1.4708,-1.4708,-1.4627,-1.4509,-1.4396,-1.4145,-1.378,-1.3395,-1.3044,-1.2767,-1.2441,-1.2164,-1.1896,-1.1623,-1.1194,-1.0773,-1.0363,-1.0144,-1.0073,-1.0073,-0.9766,-0.9558,-0.9558,-0.9333,-0.9133,-0.9031,-0.8981,-0.8832,-0.8432,-0.8283,-0.8137,-0.7988,-0.7988,-0.7988,-0.7988,-0.8448,-0.8816,-0.8979,-1.036,-1.1133,-1.1322,-1.2272,-1.2705,0.0,0.0,0.0,0.0,0.0,0.0,0.0,0.0,-2.0187,-2.0261,-2.004,-1.9672,-1.902,-1.8715,-1.8363,-1.7687,-1.743,-1.7331,-1.7483,-1.7331,-1.6908,-1.6152,-1.6045,-1.6045,-1.6045,-1.5998,-1.5998,-1.5998,-1.5945,-1.591,-1.5964,-1.5964,-1.5988,-1.6042,-1.6048,-1.6048,-1.6048,-1.6048,-1.6048,-1.6048,-1.6048,-1.6048,-1.6048,-1.6048,-1.6018,-1.5964,-1.591,-1.5891,-1.5891,-1.5636,-1.5482,-1.5428,-1.4874,-1.4504,-1.4245,-1.4191,-1.4309,-1.4416,-1.4416,-1.4622,-1.4815,-1.4815,-1.4719,-1.4638,-1.4826,-1.4751,-1.4643,-1.4832,-1.4853,-1.4826,-1.4875,-1.4848,-1.4778,-1.4638,-1.46,-1.437,-1.3699,-1.3544,-1.3366,-1.2831,-1.2659,-1.2441,-1.2005,-1.1841,-1.1461,-1.0613,-1.0331,-1.0213,-1.0213,-1.0054,-0.9874,-0.9587,-0.9411,-0.9218,-0.8977,-0.8924,-0.8779,-0.8584,-0.8482,-0.8283,-0.8088,-0.8038,-0.7988,-0.7988,-0.8874,-0.9191,-0.9025,-1.074,-1.1521,-1.1322,-1.2272,-1.2705,-1.6913,-1.7113,-1.7345,-1.7377,-1.8181,-1.8729,0.0,0.0,-1.9072,-1.8146,-1.7943,-1.7891,-1.7786,-1.7733,-1.7687,-1.7635,-1.7582,-1.7483,-1.7279,-1.7232,-1.7067,-1.6677,-1.6624,-1.6624,-1.6624,-1.6424,-1.6271,-1.6271,-1.6051,-1.5988,-1.6223,-1.6241,-1.635,-1.6604,-1.661,-1.661,-1.661,-1.661,-1.661,-1.661,-1.661,-1.661,-1.661,-1.661,-1.6477,-1.6223,-1.5988,-1.5891,-1.5891,-1.5636,-1.5482,-1.5482,-1.5095,-1.4767,-1.4552,-1.4299,-1.4213,-1.4229,-1.4229,-1.4385,-1.4518,-1.4518,-1.4697,-1.4848,-1.4875,-1.4864,-1.4848,-1.4875,-1.4735,-1.4622,-1.4826,-1.4729,-1.4622,-1.4805,-1.4848,-1.4783,-1.4436,-1.4388,-1.4268,-1.4066,-1.3591,-1.3207,-1.3098,-1.2659,-1.1941,-1.0828,-1.0513,-1.0404,-1.0404,-1.0245,-1.0067,-0.99,-0.9817,-0.9744,-0.9541,-0.9282,-0.9133,-0.9133,-0.8684,-0.8382,-0.8333,-0.8137,-0.7988,-0.7988,-0.8137,-0.847,-0.8979,-1.0051,-1.084,-1.1322,-1.2272,-1.2705,-1.7032,-1.6955,0.0,0.0,-1.7536,-1.7793,-1.7483,-1.774,-1.7943,-1.7635,-1.7483,-1.743,-1.7582,-1.7582,-1.7582,0.0,-1.7582,-1.7582,-1.743,-1.743,-1.7378,-1.7265,-1.7363,-1.7195,-1.6549,-1.6353,-1.6283,-1.6283,-1.6326,-1.641,-1.6519,-1.6525,-1.6579,-1.67,-1.67,-1.67,-1.67,-1.67,-1.67,-1.67,-1.67,-1.67,-1.67,-1.67,-1.6634,-1.6519,-1.641,-1.6362,-1.6362,-1.6258,-1.6108,-1.5964,-1.5645,-1.5335,-1.5047,-1.4611,-1.4347,-1.4083,-1.3413,-1.3192,-1.3272,-1.3272,-1.2887,-1.2706,-1.4242,-1.4228,-1.3856,-1.4673,-1.4815,-1.4762,-1.4859,-1.481,-1.4729,-1.4692,-1.4783,-1.4783,-1.4417,-1.4444,-1.4466,-1.4239,-1.3975,-1.3699,-1.3369,-1.3098,-1.2659,-1.1782,-1.1339,-1.0962,-1.0641,-1.0428,-1.0209,-0.9916,-0.9884,-0.9815,-0.9595,-0.9331,-0.9133,-0.8977,-0.863,-0.8333,-0.8187,-0.8038,-0.7988,-0.7988,-0.8627,-0.8952,-0.8979,-1.051,-1.1296,-1.1322,-1.2272,-1.2705,-1.7231,0.0,0.0,-1.7219,-1.7226,-1.7279,-1.7529,-1.743,-1.7384,-1.7582,-1.743,-1.7384,-1.7582,-1.7582,-1.7582,-1.7582,-1.7582,-1.7582,-1.7582,-1.7582,-1.7615,-1.7702,-1.7802,-1.7611,-1.6889,-1.672,-1.6612,-1.6557,-1.6635,-1.673,-1.6803,-1.6809,-1.6839,-1.6911,-1.6917,-1.6917,-1.6917,-1.6917,-1.6917,-1.6917,-1.6917,-1.6917,-1.6911,-1.6839,-1.6809,-1.6803,-1.673,-1.67,-1.67,-1.6644,-1.6524,-1.6398,-1.6135,-1.5906,-1.5633,-1.48,-1.4234,-1.364,-1.2368,-1.1923,-1.1923,-1.1923,-1.1378,-1.1025,-1.2882,-1.2875,-1.252,-1.3846,-1.4228,-1.4305,-1.4711,-1.4789,-1.4762,-1.4659,-1.4762,-1.4772,-1.4374,-1.4417,-1.4466,-1.4239,-1.4196,-1.4083,-1.3645,-1.3537,-1.3315,-1.2767,-1.2332,-1.1787,-1.1021,-1.065,-1.031,-0.9994,-0.9916,-0.9815,-0.9595,-0.9331,-0.9133,-0.8928,-0.8581,-0.8333,-0.8137,-0.8038,-0.7988,-0.7988,-0.8775,-0.9118,-0.9055,-1.078,-1.1519,-1.138,-1.2339,-1.2777,0.0,0.0,-1.6836,-1.7424,-1.7378,-1.7279,-1.7529,-1.7582,-1.7582,-1.7582,-1.7582,-1.7582,-1.7582,-1.7582,-1.7582,-1.7582,-1.7582,-1.7582,-1.7582,-1.7582,-1.7695,-1.7942,-1.7766,-1.7707,0.0,-1.7742,-1.7408,-1.7117,-1.6856,-1.6809,-1.7062,-1.708,-1.7195,-1.7449,-1.7461,-1.7461,-1.7461,-1.7461,-1.7461,-1.7461,-1.7461,-1.7461,-1.7449,-1.7195,-1.708,-1.7062,-1.6809,-1.67,-1.67,-1.6414,-1.6464,-1.6632,-1.6402,-1.6284,-1.6104,-1.4791,-1.3719,-1.2748,-1.1273,-1.0726,-1.0726,-1.0726,-1.0726,-1.0726,-1.0785,-1.0789,-1.1008,-1.2159,-1.2491,-1.2811,-1.4146,-1.4491,-1.46,-1.4821,-1.4875,-1.4815,-1.4579,-1.4475,-1.4466,-1.4239,-1.4196,-1.4191,-1.4196,-1.4196,-1.3975,-1.3369,-1.3261,-1.2827,-1.1732,-1.0866,-1.0363,-1.0228,-1.0041,-0.9815,-0.9595,-0.9331,-0.9187,-0.9187,-0.8684,-0.8382,-0.8382,-0.8137,-0.7988,-0.7988,-0.8038,-0.8452,-0.9192,-1.0287,-1.1064,-1.1538,-1.2574,-1.2964,0.0,0.0,-1.7113,-1.7477,-1.7529,-1.7483,-1.7582,-1.7582,-1.7582,-1.7582,-1.7582,-1.7582,-1.7582,-1.7582,-1.7582,-1.7582,-1.7582,-1.7582,-1.7582,-1.7582,-1.7695,-1.7955,-1.8107,0.0,0.0,0.0,0.0,-1.7459,-1.7289,-1.7255,-1.7346,-1.7352,-1.7394,-1.7479,-1.7485,-1.7485,-1.7485,-1.7485,-1.7485,-1.7485,-1.7485,-1.7485,-1.7479,-1.7394,-1.7352,-1.7346,-1.7255,-1.7219,-1.7219,-1.7104,-1.7059,-1.696,-1.6846,-1.6738,-1.6301,-1.4009,-1.2829,-1.214,-1.0625,-0.9948,-0.9777,-0.9777,-0.9144,-0.8729,-1.0293,-1.016,-0.9743,-1.0945,-1.1273,-1.1559,-1.2781,-1.3128,-1.3317,-1.4237,-1.4541,-1.4589,-1.4358,-1.4428,-1.4466,-1.4239,-1.4196,-1.4196,-1.4196,-1.4196,-1.3975,-1.3369,-1.2659,-1.2005,-1.1623,-1.1021,-1.0538,-1.0363,-1.0176,-0.9994,-0.9815,-0.9291,-0.8928,-0.8928,-0.8432,-0.8137,-0.8137,-0.8038,-0.7988,-0.7988,-0.7988,-0.8111,-0.829,-0.9248,-1.0157,-1.0954,-1.1868,-1.2556,-1.712,-1.712,-1.7113,-1.7477,-1.7536,-1.7483,-1.7582,-1.7582,-1.7582,-1.7582,-1.7582,-1.7582,-1.7582,-1.7582,-1.7582,-1.7582,-1.7582,-1.7582,-1.7582,-1.7675,-1.7862,-1.8115,-1.8464,0.0,0.0,0.0,0.0,-1.7751,-1.768,-1.7602,-1.7485,-1.7485,-1.7485,-1.7485,-1.7485,-1.7485,-1.7485,-1.7485,-1.7485,-1.7485,-1.7485,-1.7485,-1.7485,-1.7485,-1.7485,-1.7485,-1.7485,-1.7485,-1.7485,-1.7485,-1.7382,-1.7231,-1.7231,-1.7129,-1.6687,-1.3958,-1.2789,-1.2177,-0.9917,-0.8962,-0.8671,-0.8671,-0.8095,-0.7629,-0.9165,-0.9041,-0.8623,-0.9783,-1.0157,-1.0418,-1.1505,-1.2087,-1.2585,-1.3359,-1.3972,-1.4374,-1.4223,-1.4309,-1.4369,-1.4223,-1.4196,-1.4196,-1.4196,-1.4196,-1.4083,-1.3699,-1.2827,-1.206,-1.1623,-1.124,-1.0845,-1.0452,-1.0331,-1.016,-0.9904,-0.9377,-0.8988,-0.8829,-0.8382,-0.8088,-0.7988,-0.7988,-0.7988,-0.7988,-0.7988,-0.7941,-0.7892,-0.9243,-1.0236,-1.0867,-1.214,-1.3049,-1.7179,-1.6955,-1.6889,-1.7477,-1.7437,-1.7279,-1.7529,-1.7582,-1.7582,-1.7582,-1.7582,-1.7582,0.0,0.0,-1.7582,-1.7582,-1.7582,-1.7582,-1.7582,-1.7849,-1.8102,0.0,0.0,0.0,0.0,0.0,0.0,-1.8083,0.0,-1.7849,-1.7543,-1.7485,-1.7485,-1.7485,-1.7485,-1.7485,-1.7485,-1.7485,-1.7485,-1.7485,-1.7485,-1.7485,-1.7485,-1.7485,-1.7485,-1.7485,-1.7485,-1.7485,-1.7485,-1.7485,-1.7485,-1.7485,-1.7485,-1.7485,-1.7185,-1.4619,-1.3485,-1.2709,-0.9251,-0.7827,-0.7538,-0.7538,-0.7532,-0.7529,-0.7529,-0.7524,-0.7724,-0.8733,-0.9027,-0.9268,-1.0343,-1.1442,-1.2309,-1.2413,-1.3305,-1.4196,-1.4196,-1.4196,-1.4196,-1.4196,-1.4196,-1.4196,-1.4196,-1.4196,-1.4196,-1.4196,-1.3699,-1.2935,-1.1787,-1.1623,-1.1285,-1.0518,-1.0387,-1.029,-0.9929,-0.9638,-0.9307,-0.8836,-0.8577,-0.8283,-0.8038,-0.7988,-0.7988,-0.7988,-0.7988,-0.7988,-0.7988,-1.0047,-1.1072,-1.117,-1.3136,-1.4112,-1.7179,-1.7272,-1.7424,-1.7582,-1.7536,-1.7536,-1.7582,-1.7582,-1.7582,-1.7582,-1.7582,-1.7582,0.0,0.0,0.0,-1.7582,-1.7582,0.0,-1.7582,-1.7849,0.0,0.0,0.0,-1.9038,-1.9397,-1.9307,0.0,0.0,-1.8259,-1.7849,-1.7543,-1.7485,-1.7485,-1.7485,-1.7485,-1.7485,-1.7485,-1.7485,-1.7485,-1.7485,-1.7485,-1.7485,-1.7485,-1.7485,-1.7485,-1.7485,-1.7485,-1.7485,-1.7485,-1.7485,-1.7485,-1.7485,-1.7485,-1.7485,-1.7185,-1.4619,-1.3485,-1.2808,-0.9968,-0.863,-0.815,-0.7903,-0.7725,-0.7655,-0.7655,-0.7592,-0.7569,-0.7826,-0.7861,-0.8001,-0.9198,-1.0327,-1.1328,-1.22,-1.3305,-1.4196,-1.4196,-1.4196,-1.4196,-1.4196,-1.4196,-1.4196,-1.4196,-1.4196,-1.4196,-1.4196,-1.4083,-1.3537,-1.2332,-1.1841,-1.1332,-1.0686,-1.0513,-1.0343,-1.0163,-0.976,-0.9361,-0.9092,-0.868,-0.8382,-0.8283,-0.8088,-0.7988,-0.7988,-0.7988,-0.7988,-0.7988,-0.8528,-0.9213,-1.0002,-1.064,-1.1276,-1.7331,-1.7378,-1.743,-1.7582,-1.7582,-1.7582,-1.7582,-1.7582,-1.7582,-1.7582,-1.7582,0.0,0.0,0.0,0.0,0.0,0.0,0.0,-1.7582,-1.7849,-1.8102,0.0,-1.8744,0.0,-1.9397,-1.9424,-1.9243,0.0,-1.8421,-1.8018,-1.7726,-1.7602,-1.7485,-1.7485,-1.7485,-1.7485,-1.7485,-1.7485,-1.7485,-1.7485,-1.7485,-1.7485,-1.7485,-1.7485,-1.7485,-1.7485,0.0,-1.7485,-1.7485,-1.7485,-1.7485,-1.7485,-1.7485,-1.7185,-1.6408,-1.4441,-1.3186,-1.2225,-1.0058,-0.9095,-0.8732,-0.8241,-0.795,-0.7777,-0.7777,-0.7728,-0.7663,-0.7614,-0.7548,-0.7586,-0.8154,-0.9521,-1.088,-1.1509,-1.2975,-1.4196,-1.4196,-1.4196,-1.4196,-1.4196,-1.4196,-1.4196,-1.4196,-1.4196,-1.4196,-1.4196,-1.4196,-1.3867,-1.2935,-1.255,-1.2005,-1.1185,-1.0987,-1.0712,-1.0237,-0.9963,-0.9646,-0.9252,-0.8935,-0.8634,-0.8432,-0.8237,-0.8137,-0.7988,-0.7988,-0.7988,-0.7988,-0.8482,-0.9095,-0.9894,-1.0404,-1.0946,-1.7536,-1.743,-1.7331,-1.7529,-1.7582,-1.7582,-1.7582,-1.7582,-1.7582,-1.7582,0.0,-1.7582,-1.7582,-1.7582,-1.7582,-1.7582,0.0,-1.7582,-1.7582,-1.7849,-1.8102,-1.8457,-1.8744,-1.9038,-1.9397,-1.9424,-1.9301,-1.8997,-1.859,-1.8311,-1.8025,-1.7667,-1.7485,-1.7485,-1.7485,-1.7485,-1.7485,-1.7485,-1.7485,-1.7485,-1.7485,-1.7485,-1.7485,-1.7485,-1.7485,-1.7485,0.0,0.0,-1.7485,-1.7485,-1.7485,-1.7485,-1.7485,-1.6703,-1.5451,-1.4143,-1.2826,-1.145,-0.9879,-0.9335,-0.9217,-0.8613,-0.8183,-0.7933,-0.7933,-0.7872,-0.785,-0.7752,-0.7712,-0.7649,-0.7421,-0.8927,-1.0559,-1.0496,-1.2155,-1.3807,-1.3916,-1.4083,-1.4196,-1.4196,-1.4196,-1.4196,-1.4196,-1.4196,-1.4196,-1.4196,-1.4196,-1.4029,-1.3483,-1.3369,-1.2881,-1.1841,-1.1623,-1.1261,-1.0435,-1.0281,-0.9919,-0.9337,-0.9248,-0.8985,-0.8482,-0.8432,-0.8283,-0.7988,-0.7988,-0.7988,-0.7988,-0.8924,-0.9581,-0.9956,-1.0901,-1.1423,-1.7536,-1.7582,-1.7529,-1.7582,-1.7582,-1.7582,-1.7582,-1.7582,0.0,0.0,0.0,-1.7582,-1.7582,-1.7582,-1.7582,-1.7582,0.0,0.0,0.0,0.0,-1.8102,0.0,0.0,0.0,0.0,0.0,0.0,0.0,0.0,-1.8311,-1.8025,-1.7667,-1.7485,-1.7485,-1.7485,-1.7485,-1.7485,-1.7485,-1.7485,-1.7485,-1.7485,-1.7485,-1.7485,-1.7485,-1.7485,-1.7485,-1.7485,0.0,-1.7485,-1.7485,-1.7485,-1.7485,-1.7485,-1.6703,-1.5451,-1.4143,-1.2826,-1.1511,-1.0183,-0.9518,-0.9217,-0.8613,-0.8369,-0.8244,-0.7994,-0.7872,-0.7867,-0.7847,-0.7774,-0.7668,-0.7524,-0.8434,-0.9377,-0.9231,-1.0292,-1.1551,-1.2531,-1.3527,-1.4196,-1.4196,-1.4196,-1.4196,-1.4196,-1.4196,-1.4196,-1.4196,-1.4196,-1.4142,-1.4083,-1.3591,-1.3044,-1.2332,-1.1841,-1.1476,-1.1133,-1.0556,-1.0071,-0.9805,-0.941,-0.9084,-0.8726,-0.8531,-0.8283,-0.7988,-0.7988,-0.7988,-0.7988,-0.8187,-0.8381,-0.8614,-0.8942,-0.9051,-1.7477,-1.7483,-1.743,-1.7582,-1.7582,-1.7582,-1.7582,0.0,0.0,0.0,0.0,-1.7582,-1.7582,0.0,0.0,0.0,0.0,0.0,0.0,0.0,0.0,0.0,0.0,0.0,0.0,0.0,0.0,0.0,0.0,-1.8363,-1.8194,-1.7778,-1.7485,-1.7485,-1.7485,-1.7485,-1.7485,-1.7485,-1.7485,-1.7485,-1.7485,-1.7485,-1.7485,-1.7485,-1.7485,-1.7485,-1.7485,0.0,-1.7485,-1.7485,-1.7485,-1.7485,-1.7485,-1.6349,-1.456,-1.3904,-1.2406,-1.0607,-1.0004,-0.97,-0.9457,-0.9034,-0.8671,-0.8308,-0.7994,-0.7872,-0.7872,-0.7872,-0.7788,-0.7674,-0.7551,-0.8281,-0.904,-0.8954,-1.0288,-1.171,-1.2309,-1.3359,-1.4196,-1.4196,-1.4196,-1.4196,-1.4196,-1.4196,-1.4196,-1.4196,-1.4196,-1.4196,-1.4196,-1.3975,-1.3537,-1.293,-1.2387,-1.181,-1.134,-1.063,-1.0135,-0.9896,-0.9576,-0.9229,-0.8825,-0.8676,-0.8432,-0.7988,-0.7988,-0.7988,-0.7988,-0.7988,-0.8056,-0.8124,-0.819,-0.8128,-1.7391,-1.7378,-1.7331,-1.7536,-1.7582,-1.7582,-1.7582,-1.7582,0.0,0.0,-1.7582,-1.7582,-1.7582,0.0,-1.7582,0.0,0.0,0.0,0.0,0.0,0.0,0.0,0.0,0.0,0.0,0.0,0.0,0.0,0.0,0.0,-1.8181,-1.7772,-1.7485,-1.7485,-1.7485,-1.7485,-1.7485,-1.7485,-1.7485,-1.7485,-1.7485,-1.7485,-1.7485,-1.7485,-1.7485,-1.7485,-1.7485,0.0,0.0,-1.7485,-1.7485,-1.7485,-1.7185,-1.5693,-1.3665,-1.3366,-1.1804,-0.9822,-0.9822,-0.9822,-0.9761,-0.9396,-0.8912,-0.843,-0.8119,-0.7933,-0.7867,-0.7842,-0.7771,-0.7668,-0.7519,-0.809,-0.8705,-0.8569,-1.0123,-1.1651,-1.1651,-1.2812,-1.3802,-1.3802,-1.4029,-1.4196,-1.4196,-1.4196,-1.4196,-1.4196,-1.4196,-1.4196,-1.4196,-1.4196,-1.4029,-1.3537,-1.2935,-1.2316,-1.1612,-1.0809,-1.0255,-1.0004,-0.9746,-0.9377,-0.8928,-0.8878,-0.863,-0.8088,-0.8088,-0.8038,-0.7988,-0.8022,-0.8072,-0.8118,-0.8147,-0.798,-1.7298,-1.7378,-1.7582,-1.7582,-1.7582,-1.7582,-1.7582,0.0,0.0,-1.7582,-1.7582,-1.7582,-1.7582,-1.7582,-1.7582,0.0,0.0,0.0,0.0,0.0,0.0,0.0,0.0,0.0,0.0,0.0,0.0,0.0,0.0,0.0,-1.7596,-1.7543,-1.7485,-1.7485,-1.7485,-1.7485,-1.7485,-1.7485,-1.7485,-1.7485,-1.7485,-1.7485,-1.7485,-1.7485,-1.7485,-1.7485,-1.7485,0.0,0.0,-1.7485,-1.7485,-1.7361,-1.6231,-1.4917,-1.3545,-1.235,-1.1027,-0.9822,-0.9822,-0.9822,-0.9761,-0.9396,-0.9095,-0.8793,-0.843,-0.8119,-0.785,-0.7747,-0.7709,-0.7649,-0.7413,-0.7399,-0.7474,-0.7349,-0.8312,-0.9196,-0.9196,-1.1,-1.258,-1.258,-1.3467,-1.4196,-1.4196,-1.4196,-1.4196,-1.4196,-1.4196,-1.4196,-1.4196,-1.4196,-1.4191,-1.4137,-1.3591,-1.298,-1.2354,-1.1468,-1.0724,-1.0188,-0.9815,-0.948,-0.9183,-0.9183,-0.8931,-0.8382,-0.8382,-0.8237,-0.7988,-0.818,-0.833,-0.8433,-0.8571,-0.8397,-1.746,-1.751,-1.7582,-1.7582,-1.7582,-1.7582,-1.7582,0.0,0.0,-1.7582,-1.7582,-1.7582,-1.7582,-1.7582,-1.7582,0.0,0.0,0.0,0.0,0.0,0.0,0.0,0.0,0.0,0.0,0.0,0.0,0.0,0.0,0.0,-1.7543,-1.7485,-1.7485,-1.7485,-1.7485,-1.7485,-1.7485,-1.7485,-1.7485,-1.7485,-1.7485,-1.7485,-1.7485,-1.7485,-1.7485,-1.7485,-1.7485,0.0,0.0,-1.7485,-1.7062,-1.629,-1.5811,-1.4321,-1.241,-1.1872,-1.0906,-0.9822,-0.9822,-0.9764,-0.9633,-0.9513,-0.9092,-0.8563,-0.8348,-0.8073,-0.7744,-0.7625,-0.7538,-0.7459,-0.7304,-0.7282,-0.7214,-0.7221,-0.8094,-0.892,-0.892,-1.0178,-1.1378,-1.1378,-1.2313,-1.3137,-1.3137,-1.3694,-1.4196,-1.4196,-1.4196,-1.4196,-1.4196,-1.4196,-1.4196,-1.4196,-1.3645,-1.3207,-1.2935,-1.1741,-1.0884,-1.0681,-0.9974,-0.948,-0.9236,-0.9187,-0.9031,-0.8627,-0.8482,-0.8333,-0.8237,-0.8295,-0.824,-0.8223,-0.8374,-0.8301,-1.7623,-1.7548,-1.7483,-1.7582,-1.7582,-1.7582,0.0,0.0,-1.7582,-1.7582,-1.7582,-1.7582,-1.7582,-1.7582,-1.7582,0.0,0.0,0.0,0.0,0.0,0.0,0.0,0.0,0.0,0.0,0.0,0.0,0.0,0.0,0.0,-1.7543,-1.7485,-1.7485,-1.7485,-1.7485,-1.7485,-1.7485,-1.7485,-1.7485,-1.7485,-1.7485,-1.7485,-1.7485,-1.7485,-1.7485,-1.7485,0.0,0.0,0.0,-1.7485,-1.6767,-1.5575,-1.5213,-1.3904,-1.223,-1.145,-1.0755,-1.0233,-0.9878,-0.9663,-0.9544,-0.9544,-0.8997,-0.8396,-0.8281,-0.7974,-0.7622,-0.75,-0.7377,-0.7282,-0.7282,-0.722,-0.721,-0.721,-0.7817,-0.8371,-0.8371,-0.9357,-1.0178,-1.0178,-1.1378,-1.2417,-1.2417,-1.3413,-1.4196,-1.4196,-1.4196,-1.4196,-1.4196,-1.4196,-1.4196,-1.4196,-1.3807,-1.3483,-1.3315,-1.2221,-1.1356,-1.104,-1.0276,-0.9677,-0.9335,-0.9331,-0.9183,-0.8928,-0.868,-0.8482,-0.8382,-0.8387,-0.828,-0.8174,-0.8366,-0.8397,-1.7681,-1.7394,-1.7279,-1.7529,-1.7582,-1.7582,0.0,0.0,-1.7582,-1.7582,-1.7582,-1.7582,-1.7582,-1.7582,-1.7582,-1.7582,0.0,0.0,0.0,0.0,0.0,0.0,0.0,0.0,0.0,0.0,0.0,0.0,0.0,0.0,-1.7543,-1.7485,-1.7485,-1.7485,-1.7485,-1.7485,-1.7485,-1.7485,-1.7485,-1.7485,-1.7485,-1.7485,-1.7485,-1.7485,-1.7485,0.0,0.0,0.0,0.0,-1.7485,-1.6767,-1.5451,-1.4202,-1.3725,-1.3366,-1.0785,-1.0501,-1.1307,-1.0021,-0.951,-0.9384,-0.9384,-0.8971,-0.836,-0.8295,-0.7947,-0.7494,-0.7315,-0.7249,-0.7213,-0.7213,-0.7213,-0.721,-0.721,-0.721,-0.721,-0.721,-0.8094,-0.8923,-0.8923,-1.0777,-1.2417,-1.2417,-1.3413,-1.4196,-1.4196,-1.4196,-1.4196,-1.4196,-1.4196,-1.4196,-1.4196,-1.4191,-1.3975,-1.3369,-1.2906,-1.2184,-1.1092,-1.0628,-1.0167,-0.9628,-0.9579,-0.948,-0.9187,-0.8928,-0.8676,-0.8382,-0.8488,-0.8479,-0.8489,-0.8794,-0.8881,-1.8023,-1.7797,-1.7749,-1.7635,-1.7582,-1.7582,-1.7582,-1.7582,-1.7582,-1.7582,-1.7582,-1.7582,-1.7582,-1.7582,-1.7582,-1.7582,0.0,0.0,0.0,0.0,0.0,0.0,0.0,0.0,0.0,0.0,0.0,0.0,0.0,0.0,-1.7543,-1.7485,-1.7485,-1.7485,-1.7485,-1.7485,-1.7485,-1.7485,-1.7485,-1.7485,-1.7485,-1.7485,-1.7485,-1.7485,0.0,0.0,0.0,0.0,0.0,-1.6585,-1.5451,-1.4262,-1.3844,-1.2567,-1.0919,-1.0975,-1.0572,-1.0029,-0.9628,-0.9354,-0.9282,-0.9282,-0.8757,-0.8105,-0.8124,-0.7751,-0.7369,-0.7247,-0.724,-0.721,-0.721,-0.721,-0.721,-0.721,-0.721,-0.721,-0.721,-0.7487,-0.7762,-0.7762,-0.9629,-1.1214,-1.1214,-1.2866,-1.4196,-1.4196,-1.4196,-1.4196,-1.4196,-1.4196,-1.4196,-1.4196,-1.4196,-1.4073,-1.3683,-1.308,-1.248,-1.1909,-1.0947,-1.0314,-1.0167,-0.9772,-0.9579,-0.948,-0.9232,-0.9034,-0.8935,-0.8747,-0.8591,-0.8482,-0.8581,-0.8625,0.0,-1.8123,-1.7834,-1.7749,-1.7669,0.0,0.0,-1.7582,-1.7582,-1.7582,-1.7582,-1.7582,-1.7582,-1.7582,-1.7582,-1.7582,0.0,0.0,0.0,0.0,0.0,0.0,0.0,0.0,0.0,0.0,0.0,0.0,0.0,0.0,-1.7189,-1.728,-1.7334,-1.7334,-1.743,-1.7485,-1.7485,-1.7485,-1.7485,-1.7485,-1.7485,-1.7485,-1.7485,-1.7485,0.0,0.0,0.0,0.0,0.0,-1.6467,-1.5273,-1.372,-1.4114,-1.2935,-1.1063,-1.129,-1.0809,-0.9982,-0.9465,-0.9198,-0.9072,-0.8957,-0.8447,-0.7826,-0.7826,-0.7603,-0.7252,-0.7232,-0.721,-0.721,-0.721,-0.721,-0.721,-0.721,-0.721,-0.721,-0.721,-0.721,-0.721,-0.721,-0.8751,-1.0014,-1.0014,-1.1987,-1.3527,-1.3527,-1.3916,-1.4196,-1.4196,-1.4196,-1.4196,-1.4196,-1.4196,-1.4056,-1.3723,-1.3246,-1.2807,-1.2314,-1.1505,-1.0801,-1.0413,-1.0068,-0.9826,-0.9628,-0.9335,-0.9187,-0.9187,-0.8852,-0.8649,-0.8482,-0.8482,-0.8482,0.0,0.0,0.0,0.0,0.0,0.0,0.0,-1.7582,0.0,-1.7582,-1.7582,-1.7582,-1.7582,-1.7582,-1.7589,-1.7609,0.0,0.0,0.0,0.0,0.0,0.0,0.0,0.0,0.0,0.0,0.0,0.0,0.0,0.0,-1.67,-1.693,-1.7005,-1.6948,-1.7181,-1.7384,-1.7485,-1.7485,-1.742,-1.7361,-1.7361,-1.7303,-1.7244,-1.7244,0.0,0.0,0.0,0.0,0.0,-1.6744,-1.5843,-1.3861,-1.4707,-1.4308,-1.3045,-1.1603,-1.1029,-1.0767,-0.9589,-0.9052,-0.8826,-0.8543,-0.81,-0.7607,-0.7607,-0.7379,-0.721,-0.721,-0.721,-0.721,-0.721,-0.721,-0.721,-0.721,-0.721,-0.721,-0.721,-0.721,-0.721,-0.721,-0.8094,-0.892,-0.892,-1.0777,-1.2304,-1.2413,-1.3359,-1.4083,-1.4191,-1.4196,-1.4196,-1.4196,-1.4196,-1.3997,-1.3518,-1.348,-1.3158,-1.2394,-1.2141,-1.1536,-1.056,-1.0462,-1.0167,-0.9677,-0.9385,-0.9236,-0.9187,-0.8892,-0.8628,-0.8504,-0.8504,-0.8504,-1.9279,0.0,-1.822,-1.8049,-1.7809,-1.7582,0.0,-1.7582,-1.7582,-1.7582,0.0,0.0,-1.7582,0.0,0.0,0.0,0.0,0.0,0.0,0.0,0.0,0.0,0.0,0.0,0.0,0.0,0.0,0.0,0.0,-1.67,-1.67,-1.6761,-1.639,-1.5518,-1.5574,-1.6195,-1.7479,-1.7485,-1.7003,-1.6048,-1.6048,-1.5515,-1.4619,-1.4619,0.0,0.0,0.0,0.0,-1.5558,-1.4672,-1.4488,-1.4755,-1.3889,-1.2671,-1.1459,-1.1199,-1.0403,-0.9377,-0.9099,-0.8967,-0.8826,-0.8266,-0.8045,-0.7823,-0.7435,-0.7265,-0.721,-0.721,-0.721,-0.721,-0.721,-0.721,-0.721,-0.721,-0.721,-0.721,-0.721,-0.721,-0.721,-0.721,-0.8094,-0.892,-0.892,-1.0123,-1.1383,-1.2254,-1.2639,-1.3137,-1.4083,-1.4196,-1.4196,-1.4196,-1.4196,-1.3997,-1.3518,-1.348,-1.3247,-1.272,-1.225,-1.1883,-1.1634,-1.085,-1.0364,-1.0216,-0.9723,-0.9381,-0.9187,-0.9126,-0.8861,-0.8442,-0.8442,-0.8291,-1.939,-1.9032,-1.8651,-1.8435,-1.8223,-1.8003,-1.8003,0.0,0.0,0.0,0.0,0.0,0.0,0.0,0.0,0.0,0.0,0.0,0.0,0.0,0.0,0.0,0.0,0.0,0.0,0.0,0.0,0.0,0.0,-1.4712,-1.4712,-1.481,-1.4641,-1.402,-1.4117,-1.4635,-1.553,-1.553,-1.5236,-1.4575,-1.4532,-1.4186,-1.3573,-1.3473,-1.3781,0.0,0.0,0.0,-1.5188,-1.4944,-1.4599,-1.4166,-1.383,-1.2604,-1.0996,-1.0966,-1.005,-0.8885,-0.8885,-0.8826,-0.8657,-0.8322,-0.8045,-0.7771,-0.7493,-0.7324,-0.721,-0.721,-0.721,-0.721,-0.721,-0.721,-0.721,-0.721,-0.721,-0.721,-0.721,-0.721,-0.721,-0.721,-0.7706,-0.8094,-0.8094,-0.9082,-1.0069,-1.0722,-1.1269,-1.2037,-1.3197,-1.3359,-1.3581,-1.4137,-1.4089,-1.3873,-1.3513,-1.3373,-1.3152,-1.2835,-1.2516,-1.2273,-1.2029,-1.1438,-1.09,-1.0413,-0.9871,-0.948,-0.9187,-0.9187,-0.8985,-0.8577,-0.8482,-0.8333,-1.9232,-1.9145,-1.8921,-1.8875,-1.8704,-1.849,-1.8428,0.0,0.0,0.0,0.0,0.0,0.0,0.0,0.0,0.0,0.0,0.0,0.0,0.0,0.0,0.0,0.0,0.0,0.0,0.0,0.0,0.0,0.0,-1.2417,-1.2417,-1.2638,-1.2673,-1.2506,-1.2674,-1.2706,-1.2536,-1.2994,-1.3174,-1.3059,-1.294,-1.2892,-1.2768,-1.2653,-1.3203,0.0,0.0,0.0,-1.4354,-1.5401,-1.4697,-1.3027,-1.3714,-1.2798,-1.1003,-1.0567,-0.9754,-0.8885,-0.8885,-0.8768,-0.8543,-0.854,-0.81,-0.7662,-0.7607,-0.7438,-0.721,-0.721,-0.721,-0.721,-0.721,-0.721,-0.721,-0.721,-0.721,-0.721,-0.721,-0.721,-0.721,-0.721,-0.721,-0.721,-0.721,-0.7983,-0.8702,-0.8865,-0.9743,-1.0832,-1.1982,-1.2141,-1.2531,-1.3586,-1.3593,-1.3461,-1.3234,-1.3143,-1.3007,-1.2824,-1.2813,-1.2565,-1.2024,-1.198,-1.1492,-1.0408,-0.9969,-0.9579,-0.9282,-0.9282,-0.913,-0.8874,-0.863,-0.8482,-1.8978,-1.896,-1.8873,-1.8921,-1.8704,-1.8428,-1.8138,0.0,0.0,0.0,0.0,0.0,0.0,0.0,0.0,0.0,0.0,0.0,0.0,0.0,0.0,0.0,0.0,0.0,0.0,0.0,0.0,0.0,0.0,-1.2417,-1.2417,-1.2446,-1.2023,-1.1042,-1.1067,-1.0591,-0.9554,-1.1955,-1.2646,-1.1648,-1.1618,-1.1051,-0.999,-0.9964,-1.0066,0.0,0.0,-1.0866,-1.1822,-1.1781,-1.2212,-1.2748,-1.172,-1.1097,-1.0602,-0.9544,-0.9047,-0.8885,-0.8885,-0.8881,-0.8826,-0.8598,-0.8263,-0.7881,-0.766,-0.7438,-0.721,-0.721,-0.721,-0.721,-0.721,-0.721,-0.721,-0.721,-0.721,-0.721,-0.721,-0.721,-0.721,-0.721,-0.721,-0.721,-0.721,-0.7321,-0.7762,-0.8758,-0.9085,-0.9633,-1.0836,-1.0945,-1.1055,-1.1223,-1.1916,-1.2245,-1.1987,-1.2683,-1.3007,-1.2824,-1.2813,-1.2565,-1.2024,-1.198,-1.1492,-1.0408,-1.0314,-1.0019,-0.9529,-0.9529,-0.9381,-0.9133,-0.9084,-0.8836,-1.8838,-1.8904,-1.8953,-1.9094,-1.883,-1.8439,-1.849,0.0,0.0,0.0,0.0,0.0,0.0,0.0,0.0,0.0,0.0,0.0,0.0,0.0,0.0,0.0,0.0,0.0,0.0,0.0,0.0,0.0,0.0,0.0,-1.0515,-1.0515,-1.0241,-0.9754,-0.9754,-0.9482,-0.8885,-1.0233,-1.0634,-1.0159,-1.0073,-0.9741,-0.9313,-0.9178,-0.9476,-1.0085,0.0,-1.0751,-1.1857,-1.1769,-1.1678,-1.161,-1.0979,-1.0292,-0.9644,-0.9099,-0.8885,-0.8885,-0.8885,-0.8885,-0.8826,-0.8377,-0.81,-0.7934,-0.749,-0.7324,-0.721,-0.721,-0.721,-0.721,-0.721,-0.721,-0.721,-0.721,-0.721,-0.721,-0.721,-0.721,-0.721,-0.721,-0.721,-0.721,-0.721,-0.721,-0.7376,-0.7928,-0.7983,-0.8423,-0.9578,-1.0288,-1.0945,-1.1542,-1.2351,-1.2806,-1.2653,-1.283,-1.2921,-1.2818,-1.2813,-1.2716,-1.2419,-1.2175,-1.1785,-1.1292,-1.1002,-1.056,-1.0019,-1.0019,-0.9826,-0.943,-0.9282,-0.9084,-1.8542,-1.8761,-1.8844,-1.9125,0.0,-1.8655,-1.8765,0.0,0.0,0.0,0.0,0.0,0.0,0.0,0.0,0.0,0.0,0.0,0.0,0.0,0.0,0.0,0.0,0.0,0.0,0.0,0.0,0.0,0.0,0.0,-0.8885,-0.8885,-0.8885,-0.8885,-0.8885,-0.8885,-0.8885,-0.8885,-0.8994,-0.91,-0.8991,-0.8994,-0.91,-0.8988,-0.9427,-1.0296,-1.0296,-1.0785,-1.1601,-1.1601,-1.1055,-1.0296,-1.0296,-0.9695,-0.8885,-0.8885,-0.8881,-0.8826,-0.8826,-0.8771,-0.8605,-0.8156,-0.7934,-0.7829,-0.7469,-0.7307,-0.7203,-0.7287,-0.7295,-0.7281,-0.7226,-0.721,-0.721,-0.721,-0.721,-0.721,-0.721,-0.721,-0.721,-0.721,-0.721,-0.721,-0.721,-0.721,-0.721,-0.721,-0.721,-0.754,-0.8371,-0.9302,-1.0229,-1.1101,-1.1838,-1.2392,-1.2547,-1.2272,-1.2068,-1.2068,-1.2516,-1.2813,-1.2813,-1.2419,-1.2127,-1.198,-1.1585,-1.1096,-1.0605,-1.0458,-1.0167,-0.9776,-0.943,-0.9282,-1.8042,-1.8275,-1.8449,-1.8555,-1.8965,0.0,-1.8596,-1.8421,0.0,0.0,0.0,0.0,0.0,0.0,0.0,0.0,0.0,0.0,0.0,0.0,0.0,0.0,0.0,0.0,0.0,0.0,0.0,0.0,0.0,0.0,-0.8885,-0.8885,-0.8885,-0.8885,-0.8885,-0.8885,-0.8885,-0.8885,-0.8888,-0.8898,-0.8888,-0.8888,-0.8898,-0.8888,-0.8937,-0.9047,-0.9047,-0.9103,-0.9158,-0.9158,-0.9103,-0.9047,-0.9047,-0.8992,-0.8885,-0.8885,-0.8768,-0.854,-0.854,-0.8322,-0.8045,-0.7989,-0.7826,-0.7627,-0.774,-0.7547,-0.7347,-0.7462,-0.7491,-0.744,-0.727,-0.721,-0.721,-0.721,-0.721,-0.721,-0.721,-0.721,-0.721,-0.721,-0.721,-0.721,-0.721,-0.721,-0.721,-0.721,-0.721,-0.721,-0.7321,-0.7374,-0.7485,-0.754,-0.828,-0.9083,-0.9822,-0.9871,-0.9854,-0.9854,-1.1678,-1.2813,-1.2813,-1.2764,-1.2516,-1.2029,-1.198,-1.1683,-1.1145,-1.0659,-1.0359,-1.0314,-0.9826,-0.943,-1.7442,-1.6947,-1.6522,-1.6867,-1.6375,0.0,0.0,-1.6509,0.0,0.0,0.0,0.0,0.0,0.0,0.0,0.0,0.0,0.0,0.0,0.0,0.0,0.0,0.0,0.0,0.0,0.0,0.0,0.0,0.0,0.0,0.0,-0.9211,-0.9171,-0.9076,-0.9072,-0.9028,-0.8885,-0.8885,-0.8885,-0.8885,-0.8885,-0.8885,-0.8885,-0.8885,-0.8885,-0.8885,-0.8885,-0.8885,-0.8885,-0.8885,-0.8885,-0.8892,-0.9035,-0.9072,-0.9083,-0.9178,-0.9154,-0.9037,-0.8812,-0.8641,-0.847,-0.8124,-0.7952,-0.7792,-0.7665,-0.7506,-0.7459,-0.7505,-0.7519,-0.7497,-0.7404,-0.738,-0.738,-0.738,-0.7323,-0.7269,-0.7269,-0.7206,-0.721,-0.721,-0.721,-0.721,-0.721,-0.721,-0.721,-0.721,-0.721,-0.721,-0.721,-0.7817,-0.8225,-0.8138,-0.8878,-0.9466,-0.9579,-0.9608,-0.9608,-0.9608,-1.0346,-1.0792,-1.0792,-1.0792,-1.069,-1.0498,-1.0498,-1.0252,-0.9715,-0.9517,-0.9171,-0.8673,-0.8425,-0.823,-1.6374,-1.5822,-1.5181,0.0,0.0,0.0,-1.4167,0.0,0.0,0.0,0.0,0.0,0.0,0.0,0.0,0.0,0.0,0.0,0.0,0.0,0.0,0.0,0.0,0.0,0.0,0.0,0.0,0.0,0.0,0.0,0.0,-0.9381,-0.9334,-0.9286,-0.9282,-0.9178,-0.9079,-0.9079,-0.9079,-0.9079,-0.9079,-0.9055,-0.9008,-0.9055,-0.9079,-0.9079,-0.9079,-0.9079,-0.9079,-0.9079,-0.9079,-0.9086,-0.9188,-0.9282,-0.9239,-0.9228,-0.9149,-0.9029,-0.8742,-0.8567,-0.8393,-0.7982,-0.7866,-0.7816,-0.7624,-0.7576,-0.7584,-0.7619,-0.763,-0.763,-0.763,-0.7576,-0.7508,-0.747,-0.7339,-0.7269,-0.7288,-0.7214,-0.721,-0.721,-0.721,-0.721,-0.721,-0.721,-0.721,-0.721,-0.721,-0.721,-0.721,-0.7873,-0.8297,-0.8113,-0.8605,-0.8841,-0.863,-0.8566,-0.8566,-0.8566,-0.8566,-0.8913,-0.9558,-0.9608,-0.9608,-0.9608,-0.9608,-0.941,-0.9069,-0.8874,-0.8528,-0.7978,-0.773,-0.7481,-1.4794,-1.4989,-1.4769,0.0,0.0,0.0,0.0,0.0,0.0,0.0,0.0,0.0,0.0,0.0,0.0,0.0,0.0,0.0,0.0,0.0,0.0,0.0,0.0,0.0,0.0,0.0,0.0,0.0,0.0,0.0,0.0,-0.9384,-0.9384,-0.9384,-0.9384,-0.9384,-0.9381,-0.9381,-0.9381,-0.9381,-0.9384,-0.9303,-0.9217,-0.9313,-0.9381,-0.9381,-0.9381,-0.9381,-0.9381,-0.9381,-0.9381,-0.9381,-0.9384,-0.9384,-0.9384,-0.9039,-0.8684,-0.8387,-0.8099,-0.7813,-0.7521,-0.7521,-0.7521,-0.7546,-0.7665,-0.7703,-0.7728,-0.7839,-0.7872,-0.7872,-0.7869,-0.7695,-0.7489,-0.7312,-0.728,-0.7301,-0.7237,-0.7213,-0.721,-0.721,-0.721,-0.721,-0.721,-0.721,-0.721,-0.721,-0.721,-0.721,-0.721,-0.7207,-0.7117,-0.6825,-0.669,-0.6567,-0.6395,-0.6387,-0.6387,-0.6387,-0.6387,-0.7329,-0.946,-0.9558,-0.9558,-0.9558,-0.9558,-0.9558,-0.9558,-0.9019,-0.8775,-0.8775,-0.7978,-0.758,-1.4619,-1.3686,0.0,0.0,0.0,0.0,0.0,0.0,0.0,0.0,0.0,0.0,0.0,0.0,0.0,0.0,0.0,0.0,0.0,0.0,0.0,0.0,0.0,0.0,0.0,0.0,0.0,0.0,0.0,0.0,0.0,-0.969,-0.9646,-0.9544,-0.954,-0.949,-0.9384,-0.9381,-0.9381,-0.9384,-0.949,-0.9462,-0.9313,-0.9361,-0.9381,-0.9381,-0.9381,-0.9381,-0.9381,-0.9381,-0.9381,-0.9391,-0.95,-0.9419,-0.9189,-0.9174,-0.8973,-0.8732,-0.8374,-0.8193,-0.8076,-0.7829,-0.7766,-0.7774,-0.7809,-0.782,-0.7828,-0.7861,-0.7872,-0.7853,-0.7771,-0.7701,-0.7638,-0.7603,-0.7462,-0.7269,-0.729,-0.7214,-0.721,-0.721,-0.721,-0.721,-0.721,-0.721,-0.721,-0.721,-0.721,-0.7182,-0.7046,-0.6959,-0.6847,-0.669,-0.6564,-0.6425,-0.6389,-0.6387,-0.6387,-0.6387,-0.6387,-0.6684,-0.7329,-0.7329,-0.7329,-0.7329,-0.7329,-0.7329,-0.7329,-0.7182,-0.7036,-0.6836,-0.6589,-0.6289,-1.2877,0.0,0.0,0.0,0.0,0.0,0.0,0.0,0.0,0.0,0.0,0.0,0.0,0.0,0.0,0.0,0.0,0.0,0.0,0.0,0.0,0.0,0.0,0.0,0.0,0.0,0.0,0.0,0.0,0.0,0.0,-0.9822,-0.9781,-0.9696,-0.9693,-0.9649,-0.9557,-0.9554,-0.9554,-0.9557,-0.9649,-0.9646,-0.9554,-0.9554,-0.9554,-0.9554,-0.9554,-0.9554,-0.9554,-0.9554,-0.9554,-0.9564,-0.9656,-0.945,-0.9156,-0.9124,-0.8976,-0.8674,-0.8305,-0.8183,-0.8183,-0.7994,-0.7872,-0.7872,-0.7872,-0.7872,-0.7872,-0.7872,-0.7839,-0.7788,-0.772,-0.763,-0.7557,-0.7557,-0.7442,-0.7266,-0.7274,-0.7206,-0.721,-0.721,-0.721,-0.721,-0.721,-0.721,-0.721,-0.721,-0.721,-0.7169,-0.6999,-0.6877,-0.6755,-0.6632,-0.646,-0.6387,-0.6387,-0.6387,-0.6387,-0.6387,-0.6387,-0.6387,-0.6387,-0.6387,-0.6387,-0.6387,-0.6387,-0.6387,-0.6387,-0.6387,-0.6337,-0.6139,-0.6042,-0.5792,0.0,0.0,0.0,0.0,0.0,0.0,0.0,0.0,0.0,0.0,0.0,0.0,0.0,0.0,0.0,0.0,0.0,0.0,0.0,0.0,0.0,0.0,0.0,0.0,0.0,0.0,0.0,0.0,0.0,0.0,0.0,-0.9822,-0.9822,-0.9822,-0.9822,-0.9822,-0.9822,-0.9822,-0.9822,0.0,-0.9822,-0.9822,-0.9822,-0.9822,-0.9822,-0.9822,-0.9822,-0.9822,-0.9822,-0.9822,-0.9758,-0.9761,-0.9761,-0.9518,-0.9217,-0.8915,-0.8613,-0.8308,-0.7994,-0.7872,-0.7872,-0.7872,-0.7872,-0.7872,-0.7872,-0.7864,-0.7856,-0.7856,-0.7774,-0.7682,-0.7671,-0.7502,-0.7277,-0.7266,-0.7317,-0.7288,-0.7235,-0.721,-0.721,-0.721,-0.721,-0.721,-0.721,-0.721,-0.721,-0.721,-0.7202,-0.7152,-0.6983,-0.6861,-0.6738,-0.6616,-0.6452,-0.6387,-0.6387,-0.6387,-0.6387,-0.6387,-0.6387,-0.6387,-0.6387,-0.6387,-0.6387,-0.6387,-0.6387,-0.6387,-0.6387,-0.6387,-0.6387,-0.6387,-0.6139,-0.5889,0.0,0.0,0.0,0.0,0.0,0.0,0.0,0.0,0.0,0.0,0.0,0.0,0.0,0.0,0.0,0.0,0.0,0.0,0.0,0.0,0.0,0.0,0.0,0.0,0.0,0.0,0.0,0.0,0.0,0.0,-0.9822,-0.9822,-0.9822,-0.9822,-0.9822,-0.9822,-0.9822,-0.9822,-0.9822,0.0,-0.9822,-0.9822,-0.9822,-0.9822,-0.9822,-0.9822,-0.9822,-0.9822,-0.9822,-0.9822,-0.964,-0.9396,-0.9396,-0.9095,-0.8613,-0.8552,-0.8305,-0.7994,-0.7933,-0.7872,-0.7872,-0.7872,-0.7872,-0.7872,-0.7872,-0.7809,-0.7739,-0.7739,-0.7652,-0.7535,-0.744,-0.7317,-0.7312,-0.7217,-0.7248,-0.7243,-0.7215,-0.721,-0.721,-0.721,-0.721,-0.721,-0.721,-0.721,-0.721,-0.721,-0.7133,-0.6978,-0.6858,-0.6736,-0.6611,-0.6438,-0.64,-0.6387,-0.6387,-0.6387,-0.6387,-0.6387,-0.6387,-0.6387,-0.6387,-0.6387,-0.6387,-0.6387,-0.6387,-0.6387,-0.6387,-0.6387,-0.6387,-0.6387,-0.6337,-0.6189,0.0,0.0,0.0,0.0,0.0,0.0,0.0,0.0,0.0,0.0,0.0,0.0,0.0,0.0,0.0,0.0,0.0,0.0,0.0,0.0,0.0,0.0,0.0,0.0,0.0,0.0,0.0,0.0,0.0,-0.9608,-0.9608,-0.9608,-0.9608,-0.9608,-0.9608,-0.9608,-0.9608,-0.9683,-0.972,-0.972,-0.9788,-0.9822,-0.9822,-0.9822,-0.9822,-0.9822,-0.9822,-0.9822,-0.9761,-0.964,-0.9457,-0.9275,-0.9156,-0.8793,-0.8369,-0.8369,-0.8183,-0.7872,-0.7872,-0.7872,-0.7872,-0.7872,-0.7834,-0.779,-0.779,-0.7706,-0.7614,-0.7614,-0.7527,-0.7415,-0.7296,-0.7293,-0.7233,-0.7226,-0.721,-0.721,-0.721,-0.721,-0.721,-0.721,-0.721,-0.721,-0.721,-0.721,-0.7191,-0.7136,-0.7024,-0.6918,-0.6738,-0.666,-0.6573,-0.6398,-0.6387,-0.6387,-0.6387,-0.6387,-0.6387,-0.6387,-0.6387,-0.6387,-0.6387,-0.6387,-0.6387,-0.6387,-0.6387,-0.6387,-0.6387,-0.6387,-0.6387,-0.6387,-0.6387,-0.6239,0.0,0.0,0.0,0.0,0.0,0.0,0.0,0.0,0.0,0.0,0.0,0.0,0.0,0.0,0.0,0.0,0.0,0.0,0.0,0.0,0.0,0.0,0.0,0.0,0.0,0.0,0.0,0.0,0.0,-0.9381,-0.9381,-0.9381,-0.9381,-0.9381,-0.9381,-0.9381,-0.9381,-0.9507,-0.9571,-0.9571,-0.969,-0.9744,-0.9744,-0.9744,-0.9774,-0.9822,-0.9822,-0.9761,-0.97,-0.9396,-0.9214,-0.9095,-0.8915,-0.861,-0.8308,-0.8308,-0.8119,-0.7869,-0.7847,-0.7842,-0.7839,-0.7818,-0.7747,-0.7671,-0.7671,-0.7584,-0.7489,-0.7489,-0.7399,-0.7304,-0.7304,-0.723,-0.721,-0.721,-0.721,-0.721,-0.721,-0.721,-0.721,-0.721,-0.721,-0.721,-0.721,-0.7193,-0.715,-0.6999,-0.6948,-0.685,-0.6646,-0.66,-0.6497,-0.6398,-0.6387,-0.6387,-0.6387,-0.6387,-0.6387,-0.6387,-0.6387,-0.6387,-0.6387,-0.6387,-0.6387,-0.6387,-0.6387,-0.6387,-0.6387,-0.6387,-0.6387,-0.6387,-0.6387,-0.6287,0.0,0.0,0.0,0.0,0.0,0.0,0.0,0.0,0.0,0.0,0.0,0.0,0.0,0.0,0.0,0.0,0.0,0.0,0.0,0.0,0.0,0.0,0.0,0.0,0.0,0.0,0.0,0.0,-0.9381,-0.9381,-0.9381,-0.9381,-0.9381,-0.9381,-0.9381,-0.9381,-0.9381,-0.9401,-0.9412,-0.9412,-0.9432,-0.9439,-0.9439,-0.9439,-0.9581,-0.9822,-0.9822,-0.964,-0.9335,-0.9339,-0.8973,-0.8491,-0.8491,-0.8244,-0.7994,-0.7994,-0.7933,-0.7856,-0.7758,-0.7725,-0.7706,-0.76,-0.7554,-0.7543,-0.7543,-0.7456,-0.7301,-0.7301,-0.7274,-0.7235,-0.7235,-0.7224,-0.721,-0.721,-0.721,-0.721,-0.721,-0.721,-0.721,-0.721,-0.721,-0.721,-0.721,-0.7128,-0.7002,-0.6989,-0.6804,-0.6657,-0.6624,-0.6476,-0.6403,-0.6387,-0.6387,-0.6387,-0.6387,-0.6387,-0.6387,-0.6387,-0.6387,-0.6387,-0.6387,-0.6387,-0.6387,-0.6387,-0.6387,-0.6387,-0.6387,-0.6387,-0.6387,-0.6387,-0.6387,-0.6387,0.0,0.0,0.0,0.0,0.0,0.0,0.0,0.0,0.0,0.0,0.0,0.0,0.0,0.0,0.0,0.0,0.0,0.0,0.0,0.0,0.0,0.0,0.0,0.0,0.0,0.0,0.0,0.0,-0.9133,-0.9133,-0.9133,-0.9133,-0.9133,-0.9133,-0.9133,-0.9133,-0.9133,-0.9215,-0.9354,-0.9381,-0.9381,-0.9381,-0.9381,-0.9381,-0.9452,-0.9574,-0.9397,-0.9219,-0.9044,-0.8685,-0.8388,-0.8153,-0.7974,-0.7795,-0.7674,-0.7674,-0.7674,-0.7665,-0.7616,-0.76,-0.7589,-0.7535,-0.7472,-0.7415,-0.7415,-0.7331,-0.7233,-0.7233,-0.7195,-0.721,-0.721,-0.721,-0.721,-0.721,-0.721,-0.721,-0.721,-0.721,-0.721,-0.721,-0.721,-0.7191,-0.7125,-0.7018,-0.694,-0.6801,-0.6687,-0.6594,-0.6473,-0.6419,-0.6387,-0.6387,-0.6387,-0.6387,-0.6387,-0.6387,-0.6387,-0.6387,-0.6387,-0.6337,-0.6189,-0.6337,-0.6337,-0.6189,-0.6337,-0.6387,-0.6387,-0.6387,-0.6387,-0.6387,-0.6387,-0.6387,0.0,0.0,0.0,0.0,0.0,0.0,0.0,0.0,0.0,0.0,0.0,0.0,0.0,0.0,0.0,0.0,0.0,0.0,0.0,0.0,0.0,0.0,0.0,0.0,0.0,0.0,0.0,0.0,-0.8885,-0.8885,-0.8885,-0.8885,-0.8885,-0.8885,-0.8885,-0.8885,-0.8885,-0.9045,-0.9154,-0.9269,-0.9269,-0.9269,-0.9269,-0.9208,-0.9151,-0.9154,-0.9003,-0.8803,-0.8626,-0.8157,-0.7924,-0.7866,-0.7577,-0.7519,-0.7519,-0.7519,-0.7519,-0.7513,-0.7483,-0.7472,-0.7462,-0.7402,-0.732,-0.7241,-0.7209,-0.7135,-0.7119,-0.7119,-0.7119,-0.7119,-0.7119,-0.7144,-0.7166,-0.7166,-0.7188,-0.721,-0.721,-0.721,-0.721,-0.721,-0.7185,-0.7139,-0.6999,-0.6934,-0.6831,-0.6646,-0.6592,-0.6489,-0.6398,-0.6387,-0.6387,-0.6387,-0.6387,-0.6387,-0.6387,-0.6337,-0.6337,-0.6387,-0.6287,-0.6137,-0.5992,-0.6137,-0.6087,-0.5889,-0.5834,-0.5934,-0.6289,-0.6237,-0.6034,-0.5782,-0.5782,-0.5632,0.0,0.0,0.0,0.0,0.0,0.0,0.0,0.0,0.0,0.0,0.0,0.0,0.0,0.0,0.0,0.0,0.0,0.0,0.0,0.0,0.0,0.0,0.0,0.0,0.0,0.0,0.0,0.0,-0.8885,-0.8885,-0.8885,-0.8885,-0.8885,-0.8885,-0.8885,-0.8885,-0.8885,-0.8892,-0.8898,-0.8905,-0.8905,-0.8905,-0.8905,-0.8677,-0.8562,-0.8579,-0.88,-0.8567,-0.8041,-0.8041,-0.7807,-0.7519,-0.7519,-0.7519,-0.7519,-0.7519,-0.7519,-0.7502,-0.7328,-0.7288,-0.7253,-0.7084,-0.701,-0.6983,-0.6866,-0.6825,-0.682,-0.682,-0.682,-0.682,-0.682,-0.6907,-0.6994,-0.6994,-0.713,-0.721,-0.721,-0.721,-0.721,-0.721,-0.7122,-0.6991,-0.6986,-0.6793,-0.6632,-0.6622,-0.647,-0.6392,-0.6387,-0.6387,-0.6387,-0.6387,-0.6387,-0.6387,-0.6387,-0.6189,-0.6139,-0.6387,-0.5937,-0.5737,-0.5992,-0.5789,-0.5636,-0.5636,-0.4628,-0.473,-0.6042,-0.5787,-0.5131,-0.4124,-0.4124,-0.3571,0.0,0.0,0.0,0.0,0.0,0.0,0.0,0.0,0.0,0.0,0.0,0.0,0.0,0.0,0.0,0.0,0.0,0.0,0.0,0.0,0.0,0.0,0.0,0.0,0.0,0.0,0.0,0.0,0.0,-0.8794,-0.8794,-0.8831,-0.8885,-0.8885,-0.8885,-0.8885,-0.8885,-0.8885,-0.8885,-0.8885,-0.8712,-0.8654,-0.8654,-0.8322,-0.81,-0.794,-0.8039,-0.7969,-0.7743,-0.7567,-0.7398,-0.7285,-0.7285,-0.7285,-0.7285,-0.7285,-0.7285,-0.7279,-0.7233,-0.722,-0.7206,-0.7177,-0.715,-0.7128,-0.6956,-0.6918,-0.6904,-0.6825,-0.6801,-0.6801,-0.6801,-0.6834,-0.6869,-0.6869,-0.6899,-0.6929,-0.6929,-0.6929,-0.6929,-0.6929,-0.6896,-0.6842,-0.6763,-0.6676,-0.6592,-0.6462,-0.6414,-0.6387,-0.6387,-0.6387,-0.6387,-0.6387,-0.6239,-0.6139,-0.6139,-0.5889,-0.5484,-0.4878,-0.4678,-0.4225,-0.347,-0.3522,-0.347,-0.327,-0.2917,-0.337,-0.473,-0.3924,-0.337,-0.2968,-0.2968,-0.2768,0.0,0.0,0.0,0.0,0.0,0.0,0.0,0.0,0.0,0.0,0.0,0.0,0.0,0.0,0.0,0.0,0.0,0.0,0.0,0.0,0.0,0.0,0.0,0.0,0.0,0.0,0.0,0.0,0.0,0.0,-0.8632,-0.873,-0.8621,-0.8237,-0.7898,-0.77,-0.77,-0.7741,-0.7648,-0.7537,-0.7365,-0.7254,-0.7146,-0.6811,-0.6536,-0.6371,-0.6318,-0.671,-0.7438,-0.7268,-0.721,-0.721,-0.721,-0.721,-0.721,-0.721,-0.721,-0.721,-0.721,-0.721,-0.7204,-0.7163,-0.7152,-0.713,-0.6959,-0.6896,-0.6844,-0.6763,-0.6711,-0.6679,-0.6679,-0.6709,-0.6752,-0.6793,-0.6771,-0.6741,-0.6741,-0.6774,-0.6801,-0.6801,-0.6768,-0.6714,-0.6632,-0.6586,-0.6478,-0.6398,-0.6387,-0.6387,-0.6387,-0.6337,-0.6137,-0.5784,-0.5484,-0.5183,-0.4832,-0.4528,-0.4124,-0.3522,-0.3271,-0.2819,-0.2013,-0.2064,-0.2064,-0.1863,-0.151,-0.1762,-0.2667,-0.2316,-0.1964,-0.1611,-0.1611,-0.146,0.0,0.0,0.0,0.0,0.0,0.0,0.0,0.0,0.0,0.0,0.0,0.0,0.0,0.0,0.0,0.0,0.0,0.0,0.0,0.0,0.0,0.0,0.0,0.0,0.0,0.0,0.0,0.0,-0.8472,-0.8476,-0.8476,-0.8426,-0.7954,-0.6948,-0.5882,-0.5285,-0.5285,-0.5367,-0.524,-0.4905,-0.4906,-0.4741,-0.4467,-0.4132,-0.3965,-0.3967,-0.3691,-0.492,-0.7099,-0.7099,-0.7099,-0.7099,-0.7099,-0.7099,-0.7099,-0.7154,-0.7154,-0.7154,-0.721,-0.721,-0.7191,-0.7027,-0.6991,-0.6967,-0.6844,-0.6725,-0.663,-0.6627,-0.6487,-0.6389,-0.6387,-0.6473,-0.6643,-0.6763,-0.67,-0.6613,-0.6613,-0.6709,-0.679,-0.679,-0.6695,-0.6613,-0.6613,-0.6465,-0.6387,-0.6337,-0.6337,-0.6337,-0.6287,-0.6039,-0.5486,-0.4429,-0.4126,-0.3522,-0.2466,-0.2164,-0.2063,-0.2315,-0.1864,-0.1662,-0.1862,-0.1662,-0.1513,-0.1513,-0.0504,0.005,0.005,-0.1008,-0.0958,0.005,0.005,0.0454,-0.8592,0.0,0.0,0.0,0.0,0.0,0.0,0.0,0.0,0.0,0.0,0.0,0.0,0.0,0.0,0.0,0.0,0.0,0.0,0.0,0.0,0.0,0.0,0.0,0.0,0.0,0.0,0.0,-0.8265,-0.8014,-0.7228,-0.6532,-0.6421,-0.6895,-0.5866,-0.519,-0.5028,-0.505,-0.4899,-0.4629,-0.4359,-0.4221,-0.4115,-0.3835,-0.3691,-0.3691,-0.3636,-0.3971,-0.4585,-0.4585,-0.4585,-0.4585,-0.4585,-0.4585,-0.4697,-0.5592,-0.5873,-0.604,-0.6874,-0.721,-0.7204,-0.7174,-0.7163,-0.7141,-0.697,-0.691,-0.6866,-0.6777,-0.6662,-0.6497,-0.6408,-0.6411,-0.6446,-0.6478,-0.6462,-0.6435,-0.6435,-0.6462,-0.6487,-0.6487,-0.646,-0.6435,-0.6435,-0.6408,-0.6134,-0.5336,-0.5081,-0.4678,-0.3874,-0.3572,-0.3271,-0.297,-0.2717,-0.2415,-0.2114,-0.1863,-0.1411,-0.0705,-0.0504,-0.0151,0.0555,0.0656,0.0707,0.0707,0.101,0.1161,0.1161,0.0858,0.0858,0.1161,0.1161,0.1262,0.0,0.0,0.0,0.0,0.0,0.0,0.0,-0.7988,0.0,0.0,0.0,0.0,0.0,0.0,0.0,0.0,0.0,0.0,0.0,0.0,0.0,0.0,0.0,0.0,0.0,0.0,-0.7855,-0.7855,-0.794,-0.7564,-0.6556,-0.5154,-0.4639,-0.5188,-0.4188,-0.3523,-0.3259,-0.3231,-0.3083,-0.2764,-0.2578,-0.2428,-0.2321,-0.2183,-0.2084,-0.2085,-0.2099,-0.2106,-0.2108,-0.2121,-0.2686,-0.358,-0.358,-0.3916,-0.4419,-0.5146,-0.5706,-0.6262,-0.6932,-0.721,-0.721,-0.721,-0.721,-0.7188,-0.7018,-0.695,-0.6883,-0.676,-0.6638,-0.6476,-0.6403,-0.6387,-0.6387,-0.6387,-0.6387,-0.6287,-0.5834,-0.5634,-0.5734,-0.6284,-0.6387,-0.6237,-0.5682,-0.5582,-0.5181,-0.3977,-0.3674,-0.3321,-0.2718,-0.2416,-0.2063,-0.1611,-0.1309,-0.1007,-0.0554,-0.0353,0.0,0.0605,0.0656,0.0959,0.1566,0.1617,0.1617,0.1617,0.1617,0.1617,0.1617,0.1617,0.1617,0.1617,0.1617,0.1617,0.0,0.0,0.0,0.0,0.0,0.0,-0.7988,-0.7988,-0.7988,0.0,0.0,0.0,0.0,0.0,0.0,0.0,0.0,0.0,0.0,0.0,0.0,0.0,0.0,0.0,0.0,-0.76,-0.755,-0.7456,-0.7218,-0.6795,-0.6034,-0.4096,-0.2902,-0.2751,-0.1783,-0.1133,-0.0826,-0.0839,-0.0688,-0.0371,-0.0372,-0.0213,0.0,0.0,0.0,0.0,0.0,0.0,0.0,0.0,-0.1284,-0.3189,-0.3189,-0.3916,-0.5035,-0.5146,-0.5975,-0.7025,-0.7135,-0.7182,-0.7172,-0.7172,-0.7172,-0.7152,-0.6994,-0.6888,-0.6777,-0.6654,-0.6489,-0.6403,-0.6389,-0.6387,-0.6384,-0.6234,-0.6184,-0.5884,-0.4782,-0.4329,-0.4529,-0.5732,-0.5932,-0.5582,-0.4377,-0.4176,-0.3723,-0.2416,-0.2215,-0.2114,-0.2014,-0.1762,-0.1259,-0.0302,0.005,0.0555,0.1515,0.1617,0.1617,0.1617,0.1617,0.1617,0.1617,0.1617,0.1617,0.1617,0.1617,0.1617,0.1617,0.1617,0.1617,0.1617,0.1617,0.1617,0.0,0.0,0.0,0.0,0.0,0.0,-0.7988,-0.7988,-0.7988,0.0,0.0,0.0,0.0,0.0,0.0,0.0,0.0,0.0,0.0,0.0,0.0,0.0,0.0,0.0,0.0,-0.76,-0.7265,-0.6549,-0.4937,-0.4188,-0.4728,-0.2727,-0.1871,-0.2451,-0.145,-0.0782,-0.0496,-0.0498,-0.0352,-0.0102,-0.0104,-0.0052,0.0,0.0,0.0,0.0,0.0,0.0,0.0,0.0,-0.0274,-0.0728,-0.0728,-0.1456,-0.2629,-0.358,-0.4657,-0.5752,-0.6686,-0.6953,-0.6872,-0.6872,-0.6872,-0.6866,-0.6844,-0.682,-0.6777,-0.6654,-0.6603,-0.6559,-0.6411,-0.6387,-0.6134,-0.5031,-0.478,-0.4427,-0.3171,-0.2819,-0.2868,-0.3119,-0.3169,-0.3119,-0.2819,-0.2768,-0.2416,-0.126,-0.0907,-0.0454,0.0404,0.0707,0.0959,0.1212,0.1262,0.1364,0.1566,0.1617,0.1617,0.1617,0.1617,0.1617,0.1617,0.1617,0.1617,0.1617,0.1617,0.1617,0.1617,0.1617,0.1617,0.1617,0.1617,0.1617,0.0,0.0,0.0,-0.7988,0.0,0.0,0.0,-0.7988,-0.7968,0.0,0.0,0.0,0.0,0.0,0.0,0.0,0.0,0.0,0.0,0.0,0.0,0.0,0.0,0.0,0.0,-0.737,-0.6907,-0.5896,-0.3919,-0.2967,-0.3276,-0.183,-0.1132,-0.1379,-0.0857,-0.0479,-0.0194,-0.0194,-0.0146,0.0,0.0,0.0,0.0,0.0,0.0,0.0,0.0,0.0,0.0,0.0,0.0,0.0,0.0,-0.071,-0.1855,-0.2455,-0.3416,-0.4468,-0.5112,-0.5245,-0.5204,-0.5204,-0.5204,-0.5195,-0.5149,-0.5052,-0.5008,-0.491,-0.4898,-0.4888,-0.4841,-0.4728,-0.4427,-0.3775,-0.3524,-0.307,-0.1863,-0.1511,-0.1259,-0.0705,-0.0504,-0.0605,-0.1309,-0.141,-0.1007,0.0202,0.0504,0.0808,0.1314,0.1516,0.1617,0.1617,0.1617,0.1617,0.1617,0.1617,0.1617,0.1617,0.1617,0.1617,0.1617,0.1617,0.1617,0.1617,0.1617,0.1617,0.1617,0.1617,0.1617,0.1617,0.1617,0.1617,0.0,0.0,0.0,0.0,0.0,-0.7988,0.0,0.0,0.0,-0.7838,0.0,0.0,0.0,0.0,0.0,0.0,0.0,0.0,0.0,0.0,0.0,0.0,0.0,0.0,0.0,-0.6918,-0.634,-0.5179,-0.3487,-0.23,-0.1881,-0.1149,-0.0602,-0.033,-0.033,-0.0236,0.0,0.0,0.0,0.0,0.0,0.0,0.0,0.0,0.0,0.0,0.0,0.0,0.0,0.0,0.0,0.0,0.0,-0.0746,-0.1807,-0.1807,-0.2544,-0.354,-0.354,-0.3533,-0.3523,-0.3523,-0.3523,-0.3514,-0.341,-0.3311,-0.3224,-0.3224,-0.3224,-0.3173,-0.3123,-0.2971,-0.2718,-0.2417,-0.2165,-0.1712,-0.0605,-0.0151,0.0252,0.1111,0.1465,0.1262,0.0151,0.0,0.0353,0.1414,0.1617,0.1617,0.1617,0.1617,0.1617,0.1617,0.1617,0.1617,0.1617,0.1617,0.1617,0.1617,0.1617,0.1617,0.1617,0.1617,0.1617,0.1617,0.1617,0.1617,0.1617,0.1617,0.1617,0.1617,0.1617,0.1617,0.0,0.0,0.0,0.0,-0.7988,0.0,0.0,0.0,-0.7831,-0.7814,0.0,0.0,0.0,0.0,0.0,0.0,0.0,0.0,0.0,0.0,0.0,0.0,0.0,0.0,0.0,0.0,-0.5359,-0.4152,-0.3086,-0.1928,-0.0675,-0.0495,-0.0316,-0.0045,-0.0045,-0.0046,0.0,0.0,0.0,0.0,0.0,0.0,0.0,0.0,0.0,0.0,0.0,0.0,0.0,0.0,0.0,0.0,0.0,-0.0746,-0.1807,-0.1807,-0.2472,-0.3422,-0.3422,-0.3336,-0.3243,-0.3243,-0.3243,-0.3243,-0.3236,-0.3229,-0.3224,-0.3224,-0.3224,-0.3123,-0.292,-0.282,-0.2416,-0.1007,-0.0655,-0.0252,0.106,0.1364,0.1414,0.1516,0.1566,0.1566,0.1414,0.1364,0.1414,0.1566,0.1617,0.1617,0.1617,0.1617,0.1617,0.1617,0.1617,0.1617,0.1617,0.1617,0.1617,0.1617,0.1617,0.1617,0.1617,0.1617,0.1617,0.1617,0.1617,0.1617,0.1617,0.1617,0.1617,0.1617,0.1617,0.1617,0.0,0.0,0.0,0.0,0.0,0.0,0.0,0.0,-0.7763,0.0,0.0,0.0,0.0,0.0,0.0,0.0,0.0,0.0,0.0,0.0,0.0,0.0,0.0,0.0,0.0,0.0,0.0,0.0,-0.2728,-0.1657,-0.0224,-0.018,-0.0135,0.0,0.0,0.0,0.0,0.0,0.0,0.0,0.0,0.0,0.0,0.0,0.0,0.0,0.0,0.0,0.0,0.0,0.0,0.0,0.0,-0.031,-0.0774,-0.0774,-0.1027,-0.1427,-0.1427,-0.137,-0.1361,-0.1361,-0.1361,-0.1361,-0.1361,-0.1361,-0.1361,-0.1361,-0.121,-0.1109,-0.0958,-0.0706,-0.0303,0.0353,0.0656,0.0908,0.1465,0.1617,0.1617,0.1617,0.1617,0.1617,0.1617,0.1617,0.1617,0.1617,0.1617,0.1617,0.1617,0.1617,0.1617,0.1617,0.1617,0.1617,0.1617,0.1617,0.1617,0.1617,0.1617,0.1617,0.1617,0.1617,0.1617,0.1617,0.1617,0.1617,0.1617,0.1617,0.1617,0.1617,0.1617,0.1617,-0.7487,0.0,0.0,0.0,0.0,0.0,0.0,0.0,0.0,0.0,0.0,0.0,0.0,0.0,0.0,0.0,0.0,0.0,0.0,0.0,0.0,0.0,0.0,0.0,0.0,0.0,0.0,-0.3439,-0.2816,-0.1791,-0.009,0.0,0.0,0.0,0.0,0.0,0.0,0.0,0.0,0.0,0.0,0.0,0.0,0.0,0.0,0.0,0.0,0.0,0.0,0.0,0.0,0.0,0.0,0.0,0.0,0.0,0.0,0.0,0.0,0.0,0.0,0.0,0.0,0.0,0.0,0.0051,0.0101,0.0101,0.0303,0.0505,0.0606,0.0909,0.1212,0.1313,0.1465,0.1617,0.1617,0.1617,0.1617,0.1617,0.1617,0.1617,0.1617,0.1617,0.1617,0.1617,0.1617,0.1617,0.1617,0.1617,0.1617,0.1617,0.1617,0.1617,0.1617,0.1617,0.1617,0.1617,0.1617,0.1617,0.1617,0.1667,0.1718,0.1718,0.1768,0.1969,0.227,0.227,0.2422,0.2672,0.1919,0.1768,0.0,0.0,0.0,-0.7739,0.0,0.0,0.0,0.0,-0.756,0.0,0.0,0.0,0.0,0.0,-0.7051,-0.6916,-0.7007,0.0,0.0,0.0,0.0,0.0,0.0,0.0,0.0,0.0,0.0,-0.3748,-0.357,-0.2503,-0.0135,0.0,0.0,0.0,0.0,0.0,0.0,0.0,0.0,0.0,0.0,0.0,0.0,0.0,0.0,0.0,0.0,0.0,0.0,0.0,0.0,0.0,0.0,0.0,0.0,0.0,0.0,0.0,0.0,0.0,0.0,0.0,0.0,0.0,0.0,0.0202,0.0404,0.0404,0.0556,0.0859,0.1111,0.1162,0.1263,0.1516,0.1617,0.1617,0.1617,0.1617,0.1617,0.1617,0.1617,0.1617,0.1617,0.1617,0.1617,0.1617,0.1617,0.1617,0.1617,0.1617,0.1617,0.1617,0.1617,0.1617,0.1617,0.1617,0.1617,0.1617,0.1617,0.1617,0.1617,0.1869,0.1971,0.1971,0.2221,0.2873,0.3924,0.3924,0.4474,0.5422,0.2822,0.217,0.0,0.0,-0.4728,-0.6484,0.0,0.0,0.0,0.0,0.0,0.0,0.0,0.0,0.0,0.0,-0.7082,-0.7034,-0.7065,-0.7078,0.0,0.0,0.0,0.0,0.0,0.0,0.0,0.0,0.0,-0.3266,-0.2683,-0.1701,-0.009,0.0,0.0,0.0,0.0,0.0,0.0,0.0,0.0,0.0,0.0,0.0,0.0,0.0,0.0,0.0,0.0,0.0,0.0,0.0,0.0,0.0,0.0,0.0,0.0,0.0,0.0,0.0,0.0,0.0,0.0,0.0,0.0,0.0051,0.0202,0.0303,0.0455,0.0606,0.0859,0.1061,0.1162,0.1314,0.1465,0.1566,0.1617,0.1617,0.1617,0.1617,0.1617,0.1617,0.1617,0.1617,0.1617,0.1617,0.1617,0.1617,0.1617,0.1617,0.1617,0.1617,0.1617,0.1617,0.1617,0.1617,0.1617,0.227,0.2672,0.2672,0.3323,0.3725,0.3725,0.3977,0.413,0.413,0.4375,0.4674,0.5074,0.5074,0.5222,0.5572,0.4674,0.4423,-0.4124,-0.3723,0.0,-0.5379,-0.5255,0.0,-0.625,0.0,0.0,0.0,0.0,0.0,0.0,0.0,-0.7007,-0.665,-0.6874,-0.7095,0.0,-0.7095,0.0,0.0,0.0,0.0,0.0,0.0,-0.4865,-0.2686,-0.246,-0.1746,0.0,0.0,0.0,0.0,0.0,0.0,0.0,0.0,0.0,0.0,0.0,0.0,0.0,0.0,0.0,0.0,0.0,0.0,0.0,0.0,0.0,0.0,0.0,0.0,0.0,0.0,0.0,0.0,0.0,0.0,0.0,0.0,0.0051,0.0152,0.0354,0.0556,0.0707,0.0909,0.1111,0.1364,0.1364,0.1465,0.1617,0.1617,0.1617,0.1617,0.1617,0.1617,0.1617,0.1617,0.1617,0.1617,0.1617,0.1617,0.1617,0.1617,0.1617,0.1617,0.1617,0.1617,0.1768,0.2119,0.217,0.2321,0.2722,0.3374,0.3775,0.3775,0.4423,0.4824,0.4824,0.5127,0.5327,0.5327,0.5675,0.6071,0.6473,0.6473,0.6672,0.7021,0.7021,0.6997]}]]